[[{"header":{"parameterUnit":"m.s-1","parameterCategory":1,"la1":30.6,"la2":29.2853,"lo1":-89.7004,"lo2":-87.6739,"dy":0.0162,"dx":0.0183,"nx":112,"ny":82,"refTime":"2023-10-13T12:00:00:Z","depth":0,"parameterNumber":2,"parameterNumberName":"U-component_of_WINDS"},"data":[0.0,0.0,0.0,0.0,0.0,0.0,0.0,0.0,0.0,0.0,0.0,0.0,0.0,0.0,0.0,0.0,0.0,0.0,0.0,0.0,0.0,0.0,0.0,0.0,0.0,0.0,0.0,0.0,0.0,0.0,0.0,0.0,0.0,0.0,0.0,0.0,0.0,0.0,0.0,0.0,0.0,0.0,0.0,0.0,0.0,0.0,0.0,0.0,0.0,0.0,0.0,0.0,0.0,0.0,0.0,0.0,0.0,0.0,0.0,0.0,0.0,0.0,0.0,0.0,0.0,0.0,0.0,0.0,0.0,0.0,0.0,0.0,0.0,0.0,0.0,0.0,0.0,0.0,0.0,0.0,0.0,0.0,0.0,0.0,0.0,0.0,0.0,0.0,0.0,0.0,0.0,6.3759,6.8715,7.2094,7.3033,7.2845,6.9992,6.3608,0.0,0.0,0.0,0.0,0.0,0.0,0.0,0.0,0.0,0.0,0.0,0.0,0.0,0.0,0.0,0.0,0.0,0.0,0.0,0.0,0.0,0.0,0.0,0.0,0.0,0.0,0.0,0.0,0.0,0.0,0.0,0.0,0.0,0.0,0.0,0.0,0.0,0.0,0.0,0.0,0.0,0.0,0.0,0.0,0.0,0.0,0.0,0.0,0.0,0.0,0.0,0.0,0.0,0.0,0.0,0.0,0.0,0.0,0.0,0.0,0.0,0.0,0.0,0.0,0.0,0.0,0.0,0.0,0.0,0.0,0.0,0.0,0.0,0.0,0.0,0.0,0.0,0.0,0.0,0.0,0.0,0.0,0.0,0.0,0.0,0.0,0.0,0.0,0.0,0.0,0.0,0.0,0.0,0.0,0.0,0.0,0.0,0.0,0.0,0.0,0.0,0.0,0.0,0.0,6.1618,6.864,7.078,7.232,7.3859,7.2695,6.9654,6.4434,0.0,0.0,0.0,0.0,0.0,0.0,0.0,0.0,0.0,0.0,0.0,0.0,0.0,0.0,0.0,0.0,0.0,0.0,0.0,0.0,0.0,0.0,0.0,0.0,0.0,0.0,0.0,0.0,0.0,0.0,0.0,0.0,0.0,0.0,0.0,0.0,0.0,0.0,0.0,0.0,0.0,0.0,0.0,0.0,0.0,0.0,0.0,0.0,0.0,0.0,0.0,0.0,0.0,0.0,0.0,0.0,0.0,0.0,0.0,0.0,0.0,0.0,0.0,0.0,0.0,0.0,0.0,0.0,0.0,0.0,0.0,0.0,0.0,0.0,0.0,0.0,0.0,0.0,0.0,0.0,0.0,0.0,0.0,0.0,0.0,0.0,0.0,0.0,0.0,0.0,0.0,0.0,0.0,0.0,0.0,0.0,0.0,0.0,0.0,0.0,0.0,0.0,0.0,6.0904,6.5861,7.063,7.1869,7.2845,7.4085,7.2282,6.9128,6.4585,6.267,0.0,0.0,0.0,0.0,0.0,0.0,0.0,0.0,0.0,0.0,0.0,0.0,0.0,0.0,0.0,0.0,0.0,0.0,0.0,0.0,0.0,0.0,0.0,0.0,0.0,0.0,0.0,0.0,0.0,0.0,0.0,0.0,0.0,0.0,0.0,0.0,0.0,0.0,0.0,0.0,0.0,0.0,0.0,0.0,0.0,0.0,0.0,0.0,0.0,0.0,0.0,0.0,0.0,0.0,0.0,0.0,0.0,0.0,0.0,0.0,0.0,0.0,0.0,0.0,0.0,0.0,0.0,0.0,0.0,0.0,0.0,0.0,0.0,0.0,0.0,0.0,0.0,0.0,0.0,0.0,0.0,0.0,0.0,0.0,0.0,0.0,0.0,0.0,0.0,0.0,0.0,0.0,0.0,0.0,0.0,0.0,0.0,0.0,0.0,0.0,0.0,0.0,6.4469,6.8302,7.1381,7.2432,7.3258,7.4122,7.1944,6.8715,6.4547,6.1956,0.0,0.0,0.0,0.0,0.0,0.0,0.0,0.0,0.0,0.0,0.0,0.0,0.0,0.0,0.0,0.0,0.0,0.0,0.0,0.0,0.0,0.0,0.0,0.0,0.0,0.0,0.0,0.0,0.0,0.0,0.0,0.0,0.0,0.0,0.0,0.0,0.0,0.0,0.0,0.0,0.0,0.0,0.0,0.0,0.0,0.0,0.0,0.0,0.0,0.0,0.0,0.0,0.0,0.0,0.0,0.0,0.0,0.0,0.0,0.0,0.0,0.0,0.0,0.0,0.0,0.0,0.0,0.0,0.0,0.0,0.0,0.0,0.0,0.0,0.0,0.0,0.0,0.0,0.0,0.0,0.0,0.0,0.0,0.0,0.0,0.0,0.0,0.0,0.0,0.0,0.0,0.0,0.0,0.0,0.0,0.0,0.0,0.0,0.0,0.0,0.0,0.0,6.3383,6.6387,7.1193,7.2432,7.3258,7.4122,7.1944,6.8715,6.4547,6.1956,0.0,0.0,0.0,0.0,0.0,0.0,0.0,0.0,0.0,0.0,0.0,0.0,0.0,0.0,0.0,0.0,0.0,0.0,0.0,0.0,0.0,0.0,0.0,0.0,0.0,0.0,0.0,0.0,0.0,0.0,0.0,0.0,0.0,0.0,0.0,0.0,0.0,0.0,0.0,0.0,0.0,0.0,0.0,0.0,0.0,0.0,0.0,0.0,0.0,0.0,0.0,0.0,0.0,0.0,0.0,0.0,0.0,0.0,0.0,0.0,0.0,0.0,0.0,0.0,0.0,0.0,0.0,0.0,0.0,0.0,0.0,0.0,0.0,0.0,0.0,0.0,0.0,0.0,0.0,0.0,0.0,0.0,0.0,0.0,0.0,0.0,0.0,0.0,0.0,0.0,0.0,0.0,0.0,0.0,0.0,0.0,0.0,0.0,0.0,0.0,0.0,0.0,6.4694,6.849,0.0,7.2921,7.3859,7.416,7.1944,6.849,6.3796,0.0,0.0,0.0,0.0,0.0,0.0,0.0,0.0,0.0,0.0,0.0,0.0,0.0,0.0,0.0,0.0,0.0,0.0,0.0,0.0,0.0,0.0,0.0,0.0,0.0,0.0,0.0,0.0,0.0,0.0,0.0,0.0,0.0,0.0,0.0,0.0,0.0,0.0,0.0,0.0,0.0,0.0,0.0,0.0,0.0,0.0,0.0,0.0,0.0,0.0,0.0,0.0,0.0,0.0,0.0,0.0,0.0,0.0,0.0,0.0,0.0,0.0,0.0,0.0,0.0,0.0,0.0,0.0,0.0,0.0,0.0,0.0,0.0,0.0,0.0,0.0,0.0,0.0,0.0,0.0,0.0,0.0,0.0,0.0,0.0,0.0,0.0,0.0,0.0,0.0,0.0,0.0,0.0,0.0,0.0,0.0,0.0,0.0,0.0,0.0,0.0,0.0,6.0303,6.582,7.0142,0.0,7.2958,7.3897,7.4197,7.1456,6.7814,6.3308,0.0,0.0,0.0,0.0,0.0,0.0,0.0,0.0,0.0,0.0,0.0,0.0,0.0,0.0,0.0,0.0,0.0,0.0,0.0,0.0,0.0,0.0,0.0,0.0,0.0,0.0,0.0,0.0,0.0,0.0,0.0,0.0,0.0,0.0,0.0,0.0,0.0,0.0,0.0,0.0,0.0,0.0,0.0,0.0,0.0,0.0,0.0,0.0,0.0,0.0,0.0,0.0,0.0,0.0,0.0,0.0,0.0,0.0,0.0,0.0,0.0,0.0,0.0,0.0,0.0,0.0,0.0,0.0,0.0,0.0,0.0,0.0,0.0,0.0,0.0,0.0,0.0,0.0,0.0,0.0,0.0,0.0,0.0,0.0,0.0,0.0,0.0,0.0,0.0,0.0,0.0,0.0,0.0,0.0,0.0,0.0,0.0,0.0,0.0,0.0,0.0,0.0,6.0492,6.6387,7.078,7.1606,7.2432,7.3221,7.4085,7.0367,6.6612,0.0,0.0,0.0,0.0,0.0,0.0,0.0,0.0,0.0,0.0,0.0,0.0,0.0,0.0,0.0,0.0,0.0,0.0,0.0,0.0,0.0,0.0,0.0,0.0,0.0,0.0,0.0,0.0,0.0,0.0,0.0,0.0,0.0,0.0,0.0,0.0,0.0,0.0,0.0,0.0,0.0,0.0,0.0,0.0,0.0,0.0,0.0,0.0,0.0,0.0,0.0,0.0,0.0,0.0,0.0,0.0,0.0,0.0,0.0,0.0,0.0,0.0,0.0,0.0,0.0,0.0,0.0,0.0,0.0,0.0,0.0,0.0,0.0,0.0,0.0,0.0,0.0,0.0,0.0,0.0,0.0,0.0,0.0,0.0,0.0,0.0,0.0,0.0,0.0,0.0,0.0,0.0,0.0,0.0,0.0,0.0,0.0,0.0,0.0,0.0,0.0,0.0,0.0,0.0,6.5861,6.9917,7.0743,7.1569,7.1899,7.147,6.9873,6.642,6.0714,0.0,0.0,0.0,0.0,0.0,0.0,0.0,0.0,0.0,0.0,0.0,0.0,0.0,0.0,0.0,0.0,0.0,0.0,0.0,0.0,0.0,0.0,0.0,0.0,0.0,0.0,0.0,0.0,0.0,0.0,0.0,0.0,0.0,0.0,0.0,0.0,0.0,0.0,0.0,0.0,0.0,0.0,0.0,0.0,0.0,0.0,0.0,0.0,0.0,0.0,0.0,0.0,0.0,0.0,0.0,0.0,0.0,0.0,0.0,0.0,0.0,0.0,0.0,0.0,0.0,0.0,0.0,0.0,0.0,0.0,0.0,0.0,0.0,0.0,0.0,0.0,0.0,0.0,0.0,0.0,0.0,0.0,0.0,0.0,0.0,0.0,0.0,0.0,0.0,0.0,0.0,0.0,0.0,0.0,0.0,0.0,0.0,0.0,0.0,0.0,0.0,0.0,5.9929,6.5448,6.9654,7.0855,7.1118,7.1224,7.1329,6.9678,6.6528,6.1462,0.0,0.0,0.0,0.0,0.0,0.0,0.0,0.0,0.0,0.0,0.0,0.0,0.0,0.0,0.0,0.0,0.0,0.0,0.0,0.0,0.0,0.0,0.0,0.0,0.0,0.0,0.0,0.0,0.0,0.0,0.0,0.0,0.0,0.0,0.0,0.0,0.0,0.0,0.0,0.0,0.0,0.0,0.0,0.0,0.0,0.0,0.0,0.0,0.0,0.0,0.0,0.0,0.0,0.0,0.0,0.0,0.0,0.0,0.0,0.0,0.0,0.0,0.0,0.0,0.0,0.0,0.0,0.0,0.0,0.0,0.0,0.0,0.0,0.0,0.0,0.0,0.0,0.0,0.0,0.0,0.0,0.0,0.0,0.0,0.0,0.0,0.0,0.0,0.0,0.0,0.0,0.0,0.0,0.0,0.0,0.0,0.0,0.0,0.0,0.0,0.0,0.0,5.9215,6.5032,6.9685,7.1261,7.0773,7.0923,7.2387,6.9559,6.6587,6.4117,0.0,0.0,0.0,0.0,0.0,0.0,0.0,0.0,0.0,0.0,0.0,0.0,0.0,0.0,0.0,0.0,0.0,0.0,0.0,0.0,0.0,0.0,0.0,0.0,0.0,0.0,0.0,0.0,0.0,0.0,0.0,0.0,0.0,0.0,0.0,0.0,0.0,0.0,0.0,0.0,0.0,0.0,0.0,0.0,0.0,0.0,0.0,0.0,0.0,0.0,0.0,0.0,0.0,0.0,0.0,0.0,0.0,0.0,0.0,0.0,6.2133,0.0,0.0,0.0,0.0,0.0,0.0,0.0,0.0,0.0,0.0,0.0,0.0,0.0,0.0,0.0,0.0,0.0,0.0,0.0,0.0,0.0,0.0,0.0,0.0,0.0,0.0,0.0,0.0,0.0,0.0,0.0,0.0,0.0,0.0,0.0,0.0,0.0,0.0,0.0,0.0,0.0,6.0116,6.4795,6.8339,6.9439,6.9394,6.9341,6.9584,6.7838,6.5596,6.3003,0.0,0.0,0.0,0.0,0.0,0.0,0.0,0.0,0.0,0.0,0.0,0.0,0.0,0.0,0.0,0.0,0.0,0.0,0.0,0.0,0.0,0.0,0.0,0.0,0.0,0.0,0.0,0.0,0.0,0.0,0.0,0.0,0.0,0.0,0.0,0.0,0.0,0.0,0.0,0.0,0.0,0.0,0.0,0.0,0.0,0.0,0.0,0.0,0.0,0.0,0.0,0.0,0.0,0.0,0.0,0.0,0.0,0.0,0.0,0.0,0.0,6.1865,0.0,0.0,0.0,0.0,0.0,0.0,0.0,0.0,0.0,0.0,0.0,0.0,0.0,0.0,0.0,0.0,0.0,0.0,0.0,0.0,0.0,0.0,0.0,0.0,0.0,0.0,0.0,0.0,0.0,0.0,0.0,0.0,0.0,0.0,0.0,0.0,0.0,0.0,0.0,0.0,5.9703,6.4495,6.8339,7.0039,6.9798,6.9677,6.991,6.8791,6.7141,6.5046,6.2668,0.0,0.0,0.0,0.0,0.0,0.0,0.0,0.0,0.0,0.0,0.0,0.0,0.0,0.0,0.0,0.0,0.0,0.0,0.0,0.0,0.0,0.0,0.0,0.0,0.0,0.0,0.0,0.0,0.0,0.0,0.0,0.0,0.0,0.0,0.0,0.0,0.0,0.0,0.0,0.0,0.0,0.0,0.0,0.0,0.0,0.0,0.0,0.0,0.0,0.0,0.0,0.0,0.0,0.0,6.5122,6.7195,6.6469,6.6007,6.5754,6.4203,6.3643,6.3705,0.0,0.0,0.0,0.0,0.0,0.0,0.0,0.0,0.0,0.0,0.0,0.0,0.0,0.0,0.0,0.0,0.0,0.0,0.0,0.0,0.0,0.0,0.0,0.0,0.0,6.4266,6.2687,0.0,0.0,0.0,0.0,0.0,0.0,0.0,0.0,0.0,0.0,0.0,0.0,5.9403,6.4533,6.8833,7.1004,7.0779,7.0733,7.1413,7.0385,6.9182,6.7989,6.489,6.2656,0.0,0.0,0.0,0.0,0.0,0.0,0.0,0.0,0.0,0.0,0.0,0.0,0.0,0.0,0.0,0.0,0.0,0.0,0.0,0.0,0.0,0.0,0.0,0.0,0.0,0.0,0.0,0.0,0.0,0.0,0.0,0.0,6.1806,6.3721,0.0,0.0,0.0,0.0,0.0,0.0,0.0,0.0,0.0,0.0,0.0,0.0,0.0,0.0,6.4662,6.6082,6.6941,6.7277,6.7845,6.8912,7.0459,6.9771,6.9398,6.9144,6.7589,0.0,6.3929,6.5717,0.0,0.0,0.0,0.0,0.0,0.0,0.0,0.0,0.0,0.0,0.0,0.0,0.0,0.0,0.0,0.0,0.0,0.0,0.0,0.0,0.0,0.0,6.7912,6.9228,6.7576,6.6194,0.0,6.2051,5.7154,5.9209,0.0,0.0,0.0,0.0,0.0,0.0,0.0,0.0,6.105,6.5683,6.9154,7.0154,7.0789,7.1451,7.2025,7.0102,6.907,6.9554,6.7114,6.465,6.2513,6.358,0.0,0.0,0.0,0.0,0.0,0.0,0.0,0.0,0.0,0.0,0.0,0.0,0.0,0.0,0.0,0.0,0.0,0.0,0.0,0.0,0.0,0.0,0.0,0.0,0.0,0.0,0.0,0.0,0.0,6.267,6.3233,6.4772,6.466,6.4284,0.0,0.0,0.0,0.0,0.0,0.0,0.0,0.0,0.0,6.5994,6.7292,6.7912,6.7867,6.9463,7.0768,7.1664,7.1589,7.2274,7.3736,7.3069,7.2696,7.2609,7.1368,6.9778,6.7896,6.6528,6.6147,6.6342,0.0,0.0,0.0,0.0,0.0,6.2358,6.1167,0.0,0.0,0.0,0.0,0.0,0.0,0.0,0.0,0.0,0.0,0.0,0.0,0.0,0.0,7.0266,6.9211,6.7887,6.8642,6.4748,6.1395,0.0,5.9692,5.7452,5.7265,0.0,0.0,0.0,0.0,0.0,6.3439,6.7091,6.9948,7.1312,7.176,7.2037,7.2298,7.138,7.0571,7.0022,6.8474,6.69,6.5471,6.5613,6.378,0.0,0.0,0.0,0.0,0.0,0.0,0.0,0.0,0.0,0.0,0.0,0.0,0.0,0.0,0.0,0.0,0.0,0.0,0.0,0.0,0.0,0.0,0.0,0.0,0.0,0.0,0.0,0.0,6.4359,6.4998,6.6011,6.6725,6.6687,0.0,0.0,0.0,0.0,0.0,0.0,6.6678,6.7604,6.8264,6.8638,7.0425,7.1413,7.16,7.2783,7.3964,7.5208,7.456,7.4956,7.6245,7.5478,7.5268,7.5455,7.448,7.3452,7.2235,6.8352,6.7476,6.8416,6.6556,6.5365,6.4584,6.4175,6.3877,6.3617,6.2798,6.4033,6.5799,6.4562,0.0,6.3979,6.3158,0.0,0.0,0.0,0.0,6.5328,6.8791,0.0,6.7896,7.0321,6.9937,6.8958,6.8724,6.6816,6.5142,0.0,6.2891,6.0766,5.976,0.0,0.0,0.0,0.0,6.4128,6.5117,6.8249,7.0816,7.2107,7.263,7.2892,7.2733,7.2547,7.1962,7.0836,6.9686,6.8782,6.8331,6.724,6.5515,6.2966,0.0,0.0,0.0,0.0,0.0,0.0,0.0,0.0,0.0,0.0,0.0,0.0,0.0,0.0,0.0,0.0,0.0,0.0,0.0,0.0,0.0,0.0,0.0,0.0,0.0,0.0,0.0,0.0,0.0,6.7664,6.9954,0.0,0.0,0.0,0.0,6.7567,6.8353,6.9132,6.9818,7.1386,7.2955,7.4524,7.4711,7.5159,7.5981,7.6019,7.6144,7.6406,7.6181,7.663,7.7554,7.6592,7.6565,7.7326,7.6312,7.585,7.5552,7.3056,7.0806,6.8884,6.8734,6.8211,6.7277,6.5708,6.6045,6.7195,6.6456,6.7277,6.8651,6.8483,6.6742,6.4159,6.1038,6.1236,0.0,0.0,6.4897,6.6635,6.8145,6.916,6.9729,6.9781,6.983,6.9618,6.8691,6.7263,6.6565,0.0,6.5645,6.3639,6.4345,0.0,6.1974,6.1246,6.271,6.4332,6.5282,6.9041,7.1591,7.1537,7.3091,7.3981,7.374,7.303,7.2593,7.2538,7.0853,6.9948,7.0188,6.8444,6.7464,6.7315,6.3339,0.0,0.0,0.0,0.0,0.0,0.0,0.0,0.0,0.0,0.0,0.0,0.0,0.0,0.0,0.0,0.0,0.0,0.0,0.0,0.0,0.0,0.0,0.0,0.0,0.0,0.0,0.0,0.0,7.0818,7.2432,0.0,0.0,7.1644,7.1336,7.1762,7.2641,7.3419,7.4099,7.4735,7.5608,7.6731,7.6667,7.7027,7.7849,7.7812,7.7812,7.7797,7.7707,7.7803,7.8048,7.7696,7.7542,7.7513,7.758,7.7162,7.6281,7.5271,7.3678,7.1887,7.1365,7.0704,6.9855,6.8734,6.8697,6.907,6.8286,6.8398,6.8921,6.8875,6.8194,6.7216,6.606,6.6142,6.6777,6.7551,6.8232,6.8987,7.006,7.0171,7.0022,6.9975,6.9612,6.9164,6.8819,6.8343,6.8082,6.8633,6.6872,6.5374,6.5762,6.6247,6.6097,6.4806,6.6038,6.7696,6.914,7.0555,7.1865,7.2997,7.3682,7.4056,7.3961,7.3127,7.2464,7.2079,7.0854,6.9985,6.9603,6.8959,6.8353,6.7703,6.6282,6.3617,0.0,0.0,0.0,0.0,0.0,0.0,0.0,0.0,0.0,0.0,0.0,0.0,0.0,0.0,0.0,0.0,0.0,0.0,0.0,0.0,0.0,0.0,0.0,0.0,0.0,0.0,7.0555,7.3033,7.4836,7.5737,7.5474,7.5173,7.5201,7.5619,7.6504,7.713,7.7591,7.7666,7.8041,7.8915,7.8551,7.8812,7.9687,7.9336,7.9172,7.9119,7.8714,7.8602,7.8549,7.8495,7.7953,7.7139,7.8064,7.7685,7.6394,7.6504,7.5781,7.4474,7.3355,7.247,7.1752,7.0966,7.048,7.0143,6.9319,6.8975,6.8967,6.9266,6.9341,6.9295,6.9295,6.9295,6.9407,6.9967,6.9892,6.9939,7.0677,7.0303,6.9752,6.9705,6.9295,6.8929,6.8884,6.8518,6.8257,6.8817,6.7942,6.6918,6.6404,6.727,6.7531,6.615,6.6896,6.8137,6.9664,7.0471,7.1406,7.267,7.3569,7.4056,7.4056,7.2698,7.1911,7.2094,7.0114,6.9177,6.9616,6.8565,6.7809,6.746,6.6336,6.3776,5.9763,0.0,0.0,0.0,0.0,0.0,0.0,0.0,0.0,0.0,0.0,0.0,0.0,0.0,0.0,0.0,0.0,0.0,0.0,0.0,0.0,0.0,0.0,0.0,6.5749,6.9917,7.3334,7.4272,7.7239,7.8891,7.8065,7.8703,7.9142,7.9041,7.9702,8.0137,8.0106,7.9941,8.0346,8.1312,8.0488,8.0503,8.1519,8.0629,8.0254,8.043,7.9313,7.8901,7.9154,7.885,7.7886,7.6467,7.7894,7.7564,7.6148,7.6931,7.6938,7.6256,7.4645,7.3616,7.2845,7.2057,7.1231,7.0367,6.9466,6.9078,6.914,7.0001,7.0172,7.0042,7.0042,7.0042,7.0042,7.0079,6.9573,6.917,6.9901,6.9536,6.8983,6.8929,6.8975,6.8983,6.8929,6.7741,6.7117,6.869,6.8975,6.839,6.6657,6.6313,6.6052,6.5307,6.5195,0.0,6.6668,6.8878,7.0421,7.063,7.2733,7.416,7.4235,7.1678,7.0892,7.277,6.8833,6.771,7.0367,6.7326,6.6011,6.6838,6.3528,6.1721,6.1599,0.0,0.0,0.0,0.0,0.0,0.0,0.0,0.0,0.0,0.0,0.0,0.0,0.0,0.0,0.0,0.0,0.0,0.0,0.0,0.0,0.0,0.0,7.0855,7.0855,7.3071,7.5699,7.8365,7.9916,8.0742,8.0581,8.0666,8.099,8.1537,8.1342,8.1417,8.1858,8.0278,7.9429,7.9742,7.9517,7.9517,7.9792,8.0718,8.1154,8.1102,8.0825,8.0324,7.9673,7.962,7.906,7.8228,7.8625,7.8602,7.8179,7.7142,7.6668,7.6391,7.5184,7.4383,7.3747,7.2791,7.1591,7.0217,6.8152,6.8184,6.9197,6.9422,6.9453,6.9453,6.9453,6.9453,6.9453,6.9447,6.9303,6.9191,6.9416,6.9303,6.9116,6.9116,6.9116,6.9116,6.9153,6.8778,6.8634,6.9085,6.9641,6.9903,6.9409,6.9334,6.9447,6.9821,6.9859,0.0,7.1074,7.1749,7.265,7.3934,7.3071,7.3108,7.4911,7.1636,7.0166,0.0,6.9753,6.8741,6.9541,6.8677,6.8302,6.8565,6.5253,6.3784,0.0,0.0,0.0,0.0,0.0,0.0,0.0,0.0,0.0,0.0,0.0,0.0,0.0,0.0,0.0,0.0,0.0,0.0,0.0,0.0,0.0,0.0,7.1937,7.4854,7.6241,7.7291,7.8866,8.1492,8.2189,8.2601,8.3134,8.2782,8.2729,8.3217,8.2857,8.2819,8.3217,8.1581,8.0505,8.0168,8.0468,8.0505,8.0168,8.1444,8.2069,8.2017,8.1642,8.1177,8.0586,8.0586,7.9814,0.0,7.9102,7.8891,7.7929,7.7279,7.7066,0.0,0.0,0.0,0.0,0.0,7.1561,7.0255,6.8415,6.8415,6.9278,6.9654,6.9766,6.9766,6.9766,6.9504,6.9128,6.879,6.8452,6.8264,6.8602,6.8715,6.879,6.9128,6.9203,6.9203,6.9203,6.8677,6.849,6.9541,0.0,0.0,7.1268,7.0623,6.9941,7.0009,7.0009,7.0309,0.0,7.1937,7.2837,7.4197,7.3672,7.3972,7.5774,7.2087,0.0,0.0,0.0,6.7621,6.7664,6.8002,0.0,0.0,0.0,6.3563,0.0,0.0,0.0,0.0,6.0227,5.9326,0.0,0.0,0.0,0.0,0.0,0.0,0.0,0.0,0.0,0.0,0.0,0.0,0.0,0.0,0.0,0.0,7.4956,7.8166,8.1125,8.1874,8.2511,8.3672,8.3971,8.44,8.5237,8.4749,8.4373,8.4373,8.4373,8.4373,8.4373,0.0,0.0,0.0,0.0,8.2533,8.1594,8.2608,8.3059,8.2946,8.2233,8.182,8.1745,8.1745,8.0417,7.8216,7.9678,7.9003,7.7017,7.7617,7.7816,7.7502,7.5116,7.4216,7.4076,7.2245,7.1231,0.0,0.0,0.0,0.0,7.0142,7.0367,7.0367,7.0367,6.9879,6.9203,6.849,6.7814,6.7513,6.8227,6.834,6.849,6.9316,6.9428,6.9391,6.9466,6.8377,6.8002,7.0217,6.9504,6.9466,7.2395,7.1029,6.929,6.8563,6.8481,0.0,6.9664,7.1087,7.2407,7.3325,0.0,0.0,7.6638,7.2941,7.1591,7.3934,6.9041,6.6153,6.6199,6.6838,6.612,6.3825,6.2963,6.2925,6.3638,6.3525,6.4728,6.695,6.2922,6.1831,0.0,0.0,0.0,0.0,0.0,0.0,0.0,0.0,0.0,0.0,0.0,0.0,0.0,0.0,0.0,7.502,7.8904,8.1702,8.2125,8.4591,8.5694,8.4009,8.4983,8.5675,8.5349,8.5654,8.5917,8.6025,8.6025,8.6025,8.6025,8.4636,0.0,8.2608,8.3397,8.3134,8.1594,8.3735,8.4486,8.3847,0.0,0.0,8.2571,8.2571,8.197,8.083,8.1168,8.0643,7.9604,7.9029,7.8016,7.6751,7.5587,7.5079,7.4656,7.1787,7.1456,7.2019,6.9203,6.9128,7.0142,6.9654,6.9466,6.9466,6.9466,6.9842,0.0,7.0067,7.0367,7.078,7.093,7.0517,7.0217,7.1043,7.0743,7.0442,7.1081,7.0879,7.0758,7.1336,7.1629,7.2033,7.277,7.2507,7.2349,7.2875,7.3419,7.3811,7.4009,7.487,7.5769,7.668,7.5389,7.5061,7.6563,7.4085,7.262,7.3108,7.1449,7.0473,7.0517,7.0029,6.9541,6.901,6.8184,6.7809,6.7996,6.7321,6.7584,6.8677,6.6533,6.5707,0.0,0.0,0.0,0.0,0.0,0.0,0.0,0.0,0.0,0.0,0.0,6.8578,0.0,0.0,7.6129,7.8604,8.1417,8.3538,8.4291,8.6163,8.693,8.5245,8.6144,8.6799,8.6588,8.6459,8.6459,8.6513,8.6513,8.6513,8.6513,8.5725,8.4749,8.3509,8.426,8.3885,8.2233,8.3847,8.4486,8.411,8.411,8.3885,8.3472,8.3472,8.2984,8.2195,8.2195,8.1745,8.0919,8.0092,7.9004,7.7764,7.6976,7.6102,7.5004,7.262,7.2207,7.262,7.0555,7.0405,7.1043,7.0592,7.048,7.048,7.048,7.048,7.048,7.048,7.048,7.0555,7.1006,7.0818,7.0705,7.1531,7.1381,7.1231,7.1606,7.1674,7.1741,7.2245,7.2904,7.3484,7.3991,7.4356,7.4571,7.4704,7.5233,7.5708,7.5708,7.6082,7.6643,7.7604,7.6642,7.6515,7.7802,7.6375,7.4873,7.3634,7.3183,7.277,7.232,7.1531,7.093,7.0517,6.9654,6.9015,6.8602,6.8189,6.8227,6.8602,6.8189,6.7551,0.0,0.0,0.0,0.0,0.0,0.0,0.0,0.0,6.7987,7.0527,7.1518,7.281,7.542,7.7404,7.9329,8.1656,8.3329,8.4813,8.6106,8.7211,8.7623,8.6911,8.7399,8.7867,8.8015,8.7415,8.7039,8.7227,8.7227,8.7152,8.7001,8.7114,8.6476,8.4861,8.5462,8.4974,8.3322,8.3998,8.426,8.411,8.411,8.411,8.411,8.411,8.3735,8.3059,8.2871,8.2458,8.1745,8.0806,7.998,7.9266,7.829,7.6976,7.5474,7.3934,7.3296,7.3033,7.2207,7.1944,7.1907,7.1757,7.1719,7.1719,7.1719,7.1381,7.0968,7.0968,7.0592,7.033,7.1043,7.1081,7.1156,7.1982,7.2057,7.1982,7.217,7.2162,7.2387,7.3175,7.3832,7.4447,7.5271,7.5994,7.6205,7.5533,7.5994,7.6416,7.6416,7.6565,7.699,7.7816,7.7941,7.8254,7.9041,7.8215,7.6863,7.5061,7.476,7.4272,7.3409,7.262,7.1794,7.0968,6.9992,6.9128,6.849,6.834,6.8227,6.8264,6.8903,6.834,6.3712,6.1666,6.1409,6.4063,6.6015,6.8099,0.0,0.0,7.5046,7.4709,7.6406,7.8054,7.8428,7.9852,8.1589,8.3313,8.5017,8.6234,8.6312,8.7754,8.8841,8.8729,8.8804,8.8841,8.8841,8.8766,8.9029,8.9743,8.978,8.948,8.8766,8.9405,8.9067,8.7452,8.749,8.6739,8.5049,8.5124,8.4824,8.411,8.411,8.411,8.411,8.411,8.4035,8.3922,8.3134,8.2758,8.2571,8.1031,8.0318,8.0092,7.8515,7.7351,7.645,7.5474,7.4685,7.3934,7.3071,7.277,7.2658,7.1944,7.1719,7.1719,7.1719,7.2132,7.262,7.262,7.3108,7.3672,7.3747,7.3221,7.2845,7.3709,7.3334,7.2996,7.3747,7.3841,7.3971,7.4758,7.4922,7.5122,7.5944,7.67,7.6909,7.6205,7.6737,7.7154,7.7154,7.7787,7.8341,7.8559,7.8663,7.8854,7.9079,7.7727,7.7013,7.7464,7.6751,7.5962,7.5136,7.4347,7.3521,7.2658,7.1118,7.0292,7.0217,6.9466,6.9091,6.9091,6.9166,6.834,6.4711,6.486,0.0,0.0,7.0198,7.3044,7.501,7.6256,7.7354,7.8424,7.9575,8.0788,8.2249,8.2751,8.3682,0.0,8.6309,8.6851,8.7772,8.8485,8.8841,8.8353,8.7865,8.794,8.8917,8.9405,8.963,8.9517,9.0418,9.0606,8.9743,9.0043,8.948,8.7865,8.7302,8.6476,8.5312,8.4861,8.4448,8.411,8.411,8.411,8.411,8.411,8.411,8.4073,8.3697,8.3284,8.2721,8.1557,8.0806,8.028,7.9079,7.8102,7.7239,7.5887,7.4873,7.416,7.3784,7.3672,7.3596,7.3258,7.31,7.3054,7.31,7.3279,7.3447,7.3625,7.385,7.4104,7.4104,7.3841,7.3719,7.4485,7.4084,7.3869,7.5084,7.4731,7.4431,7.5558,7.572,7.593,7.6737,7.7399,7.7808,7.7542,7.7696,7.7903,7.8011,7.8272,7.8602,7.8812,7.8966,7.9066,7.9116,7.8478,7.8253,7.859,7.7802,7.7201,7.6863,7.6037,7.4986,7.3672,7.2507,7.1419,7.048,6.9654,6.9203,6.9203,6.9203,6.8602,6.5546,0.0,0.0,7.0751,7.384,7.6849,7.8275,7.8962,7.986,8.1826,8.2586,8.3313,8.5095,8.4867,0.0,8.7452,8.7077,8.7001,8.8466,8.8654,8.8278,8.7227,8.6363,8.6213,8.7189,8.8428,8.933,8.9667,9.0569,9.0869,9.0231,9.0193,8.9555,8.8166,8.7302,8.6476,8.565,8.4824,8.4335,8.411,8.411,8.411,8.411,8.411,8.411,8.411,8.411,8.3735,8.3096,8.227,8.1444,8.0656,8.0055,7.9154,7.8102,7.7126,7.5812,7.4498,7.4272,7.4197,7.4235,7.446,7.4338,7.4094,7.4413,7.4244,7.3998,7.4366,7.4394,7.4308,7.4298,7.4298,7.4399,7.4861,7.4611,7.4623,7.5907,7.5458,7.5095,7.6266,7.6476,7.6737,7.7489,7.8014,7.8332,7.8495,7.8386,7.8332,7.8495,7.8495,7.8602,7.876,7.8915,7.9016,7.9066,7.9066,7.9066,7.9116,7.8553,7.814,7.7915,7.7276,7.6187,7.4573,7.3446,7.2207,7.0818,6.9729,6.9203,6.9203,6.9203,6.879,0.0,0.0,6.7696,7.2481,7.5621,7.8125,8.0713,8.2511,8.3934,8.4795,8.5692,8.6309,8.6274,8.5692,8.5837,8.7527,8.7077,8.6814,8.7715,8.7828,8.7227,8.5575,8.4673,8.3847,0.0,8.5199,8.794,9.1169,9.0681,9.0231,9.0193,9.0193,8.9818,8.8992,8.8166,8.7339,8.6476,8.5687,8.4861,8.411,8.411,8.411,8.411,8.411,8.411,8.411,8.411,8.4073,8.3998,8.3134,8.2308,8.1557,8.1519,8.0505,7.9154,7.9942,7.8177,7.5249,7.446,7.4197,7.4347,7.5098,7.4836,7.4347,7.5136,7.4798,7.4338,7.4993,7.517,7.5121,7.4973,7.4973,7.4973,7.501,7.501,7.5234,7.6005,7.6205,7.6378,7.708,7.7266,7.7527,7.8309,7.8386,7.8332,7.8495,7.8386,7.8332,7.8495,7.8495,7.8495,7.8549,7.8655,7.876,7.8915,7.8915,7.8966,7.9116,7.9079,7.8703,7.7915,7.7877,7.7051,7.5399,7.3747,7.2507,7.1681,7.0029,6.9203,6.9203,6.9203,6.879,0.0,0.0,7.3586,7.593,7.869,8.1425,8.3517,8.4433,8.492,8.5221,8.372,8.2458,8.2369,8.1332,8.1294,8.4035,8.426,8.4936,8.7452,8.6851,8.595,8.5387,8.4598,0.0,0.0,0.0,0.0,8.8917,9.0306,9.1057,9.1057,9.0531,8.9592,8.8241,8.7377,8.6814,8.6513,8.5162,8.4636,8.4899,8.4373,8.411,8.411,8.411,8.411,8.411,8.411,8.411,8.4035,8.3171,8.2646,8.2345,8.182,8.1256,8.0731,8.0468,7.9304,7.7727,7.6938,7.6638,7.66,7.63,7.5989,7.5791,7.6064,7.5893,7.5682,7.6091,7.6118,7.6069,7.6019,7.6019,7.6082,7.6542,7.6243,7.6117,7.7483,7.699,7.6667,7.7878,7.7797,7.7789,7.8506,7.8549,7.8441,7.8386,7.8386,7.8441,7.8495,7.8602,7.8655,7.8655,7.8655,7.8708,7.876,7.8864,7.8915,7.8966,7.9066,7.8966,7.8703,7.8703,7.7915,7.63,7.5136,7.3897,7.2507,7.1419,7.0592,7.0067,7.0067,6.9616,0.0,7.3279,7.7366,7.9229,8.1431,8.3442,8.4636,8.5086,8.5312,8.5312,8.3134,8.1069,8.0505,7.8778,7.8365,8.1031,8.1482,8.2758,8.6401,8.5988,8.5086,8.4486,8.4223,0.0,0.0,0.0,0.0,8.7264,8.9104,9.0306,9.0569,8.9818,8.9142,8.8691,8.7828,8.7264,8.6964,8.595,8.5387,8.5312,8.4486,8.411,8.411,8.411,8.3772,8.3247,8.3847,8.3772,8.3209,8.3247,8.3096,8.2796,8.2571,8.2308,8.2007,8.1782,8.1181,8.0205,7.8478,7.7689,7.7389,7.7164,7.6815,7.6616,7.6879,7.6668,7.6419,7.6805,7.7067,7.7204,7.6905,7.7017,7.7316,7.7438,7.7065,7.7027,7.8304,7.7849,7.749,7.8379,7.826,7.8214,7.8686,7.8655,7.8549,7.8441,7.8495,7.8495,7.8441,7.8495,7.8549,7.8549,7.8549,7.8549,7.8602,7.876,7.8864,7.8915,7.9016,7.9116,7.9116,7.9116,7.8328,7.6713,7.5812,7.4573,7.2883,7.2094,7.1419,7.093,7.063,7.0217,7.3972,7.6826,7.9004,8.212,8.3509,8.4148,8.4148,8.4749,8.5237,8.5049,8.3622,8.1895,0.0,0.0,7.6901,7.8703,7.9079,8.0618,8.4786,8.5387,8.4786,0.0,0.0,0.0,0.0,0.0,0.0,8.6438,0.0,8.8241,8.9142,8.8428,8.8691,9.0231,8.9442,8.8654,8.794,8.779,8.6926,8.5312,8.4486,8.411,8.411,8.411,8.3247,8.182,8.3397,8.3209,8.1857,8.3434,8.3622,8.2946,8.3772,8.3585,8.2984,8.3735,8.3472,8.2308,7.9154,7.7502,7.6938,7.7689,7.7389,7.6852,7.7542,7.7192,7.6656,7.7222,7.8006,7.8521,7.7617,7.8058,7.8574,7.7812,7.7588,7.7774,7.8596,7.8746,7.8708,7.8708,7.8708,7.876,7.8864,7.8812,7.8708,7.8708,7.8602,7.8441,7.8332,7.8276,7.8276,7.8276,7.8276,7.8332,7.8495,7.8602,7.876,7.8915,7.9016,7.9116,7.9116,7.9116,7.8328,7.6713,7.5924,7.4685,7.3033,7.2282,7.1832,7.1681,7.093,7.0517,7.5924,7.9792,8.3472,8.3697,8.4411,8.5011,8.5011,8.5162,8.4411,8.1332,7.8891,7.6037,0.0,0.0,0.0,7.6563,7.8816,0.0,8.5612,8.6175,0.0,0.0,0.0,8.5988,8.6213,8.7152,0.0,0.0,8.8241,8.9592,9.1658,9.0982,9.0719,9.1169,8.9743,8.9179,8.9592,8.7752,8.6326,8.5312,8.4486,8.411,8.411,8.411,8.3847,8.3472,8.3922,8.3847,8.3509,8.3922,8.396,8.3772,8.3998,8.396,8.3735,8.3284,8.2608,8.1782,8.0956,8.013,7.9341,7.8928,7.8628,7.8515,7.8691,7.8579,7.8466,7.8591,7.8779,7.8941,7.8704,7.8816,7.9129,7.9541,7.9116,7.8752,7.9575,7.9276,7.8864,7.8864,7.8915,7.8966,7.8915,7.8864,7.8812,7.8708,7.8655,7.8602,7.8495,7.8441,7.8386,7.8276,7.8276,7.8332,7.8495,7.8602,7.876,7.8915,7.9016,7.9116,7.9116,7.9116,7.8628,7.7577,7.7351,7.645,7.476,7.4573,7.3521,7.1719,7.1494,7.1081,8.0055,8.3096,8.565,8.4824,8.4974,8.4749,8.2571,8.2045,8.0881,7.6713,7.416,0.0,0.0,0.0,0.0,0.0,0.0,0.0,8.58,8.6513,8.6739,0.0,8.7527,0.0,8.9292,8.9818,9.0043,0.0,8.9705,9.0118,9.1545,9.1169,9.1282,9.1996,9.0756,9.0118,9.0193,8.8128,8.6851,8.6401,8.5199,8.4636,8.4598,8.426,8.3697,8.3021,0.0,8.366,8.3059,8.381,8.411,8.411,8.411,8.411,8.4035,8.3547,8.2834,8.212,8.212,8.1594,8.0768,7.9942,7.9417,7.9154,7.9479,7.9279,7.9091,7.9378,7.9491,7.9466,7.9091,7.9329,7.9679,7.9792,7.9404,7.9129,7.9579,7.9316,7.9016,7.9016,7.9066,7.9066,7.9016,7.8966,7.8915,7.8864,7.876,7.8655,7.8602,7.8602,7.8549,7.8386,7.8386,7.8386,7.8386,7.8602,7.8708,7.8812,7.9016,7.9116,7.9116,7.9116,7.8703,7.7915,7.7502,7.6675,7.5399,7.5061,7.416,7.2808,7.2395,7.1982,8.4411,8.5913,8.6438,8.5537,8.5387,8.4185,7.9341,7.8065,7.6638,7.2132,0.0,0.0,6.665,0.0,6.9316,7.2808,0.0,8.028,8.5725,8.6776,8.779,8.993,8.9592,8.9893,9.1808,9.177,9.2071,9.3122,9.177,9.0832,9.0719,9.0719,9.132,9.2671,9.192,9.1057,9.0231,8.8616,8.779,8.779,8.61,8.5312,8.5274,8.4486,8.3322,8.2007,0.0,0.0,8.2045,8.3509,8.411,8.411,8.411,8.411,8.4073,8.396,8.3472,8.2834,8.2834,8.227,8.1482,8.0768,8.0055,7.9567,8.009,7.9828,7.9365,7.9972,8.0211,8.0128,7.929,7.9729,8.0205,7.9454,7.9191,7.9154,7.9266,7.9191,7.9116,7.9116,7.9116,7.9116,7.9116,7.9016,7.8966,7.9116,7.8915,7.8798,7.8858,7.8783,7.8602,7.8495,7.8495,7.8441,7.8332,7.8549,7.8708,7.8708,7.8966,7.9116,7.9116,7.9116,7.8778,7.8065,7.7314,7.6525,7.5737,7.4911,7.4423,7.4197,7.3296,7.2883,8.4523,8.5913,8.7227,8.5687,8.58,8.5162,8.0919,7.8891,0.0,0.0,0.0,6.7288,6.4284,6.6612,0.0,7.5211,0.0,0.0,0.0,0.0,8.9743,0.0,0.0,0.0,0.0,0.0,0.0,0.0,0.0,0.0,9.3385,9.3347,9.3122,9.2709,9.192,9.1057,9.0231,8.8616,8.779,8.779,8.61,8.5312,8.5274,8.4486,8.3922,8.366,0.0,0.0,8.3697,8.396,8.411,8.411,8.411,8.411,8.3998,8.3284,8.2946,8.2834,8.2834,8.227,8.1594,8.1444,8.1294,8.1181,8.128,8.1243,8.113,8.128,8.1318,8.113,8.0342,8.028,8.0355,8.0205,7.9604,7.9304,8.0017,7.9604,7.9116,7.9116,7.9116,7.9116,7.9116,7.9066,7.9066,7.9116,7.9066,7.9241,7.9762,7.9066,7.8495,7.8332,7.8332,7.8386,7.8441,7.8495,7.8655,7.8864,7.8915,7.9016,7.9116,7.9116,7.9041,7.8891,7.8741,7.829,7.7464,7.66,7.5511,7.4197,7.3296,7.2883,8.6851,8.7828,8.8654,8.7001,8.6251,8.4223,7.7915,0.0,0.0,0.0,0.0,6.3683,6.2106,0.0,0.0,0.0,0.0,0.0,0.0,0.0,0.0,0.0,0.0,0.0,0.0,0.0,0.0,0.0,0.0,0.0,9.4662,9.4211,9.3798,9.3385,9.2146,9.1282,9.0869,8.9254,8.8428,8.8391,8.7189,8.6363,8.5913,8.5086,8.4486,8.411,8.411,0.0,8.2871,8.3735,8.3585,8.2871,8.3772,8.411,8.4035,8.3622,8.3472,8.3472,8.3472,8.3209,8.2909,8.2909,8.2308,8.167,8.212,8.1932,8.1707,8.212,8.1932,8.1519,8.1106,8.1031,8.0919,8.0468,7.9717,7.9229,7.9642,7.9754,7.9792,7.9792,8.0092,8.028,7.983,7.9792,7.9754,7.9654,7.9552,7.9613,7.9972,7.9779,7.9465,7.9056,7.8647,7.8386,7.8386,7.8441,7.8602,7.8812,7.8864,7.8966,7.9116,7.9116,7.9116,7.9116,7.8703,7.829,7.7877,7.7051,7.6225,7.5436,7.4573,7.4197,8.8954,8.9705,9.0081,8.8466,8.6814,8.3472,7.5511,7.2057,0.0,0.0,0.0,6.0717,0.0,0.0,0.0,0.0,0.0,0.0,0.0,0.0,0.0,0.0,0.0,0.0,0.0,0.0,0.0,0.0,0.0,0.0,9.5225,9.4436,9.3986,9.3986,9.2521,9.177,9.177,9.0081,8.9254,8.9254,8.8278,8.7452,8.6739,8.5762,8.4974,8.4335,8.4148,0.0,0.0,8.3397,8.3096,8.1782,8.3434,8.411,8.411,8.411,8.411,8.411,8.411,8.411,8.411,8.411,8.3209,8.2233,8.2909,8.2646,8.227,8.2909,8.2608,8.2083,8.1895,8.1857,8.167,8.0843,8.013,7.9604,7.9417,8.0168,8.0843,8.0693,8.1444,8.1932,8.1294,8.1031,8.0905,8.0952,8.0533,8.0314,8.0651,8.073,8.0619,8.0228,7.9352,7.8627,7.8369,7.8441,7.8624,7.897,7.9074,7.9228,7.9379,7.9379,7.9304,7.9116,7.8478,7.814,7.814,7.7314,7.6901,7.6863,7.6037,7.5549,8.8804,9.0156,9.0982,8.9292,8.764,8.4636,7.7877,0.0,0.0,0.0,6.1656,6.1055,0.0,0.0,0.0,0.0,0.0,0.0,0.0,0.0,0.0,0.0,0.0,0.0,0.0,0.0,0.0,0.0,0.0,0.0,0.0,9.4436,9.3986,9.3986,9.3084,9.2596,9.2596,9.0944,9.0081,9.0081,8.8541,8.7752,8.764,8.6025,8.5274,8.5162,0.0,0.0,0.0,8.3397,8.3096,8.1782,8.3434,8.411,8.411,8.411,8.411,8.411,8.411,8.411,8.411,8.411,8.3998,8.3885,8.396,8.3922,8.3885,8.396,8.3922,8.3697,8.2909,8.2721,8.2496,8.167,8.1444,8.1181,8.043,8.1482,8.2383,8.1632,8.2796,8.3847,8.3772,8.3096,8.2871,8.3622,8.2302,8.1783,8.3079,8.183,8.1121,8.1715,8.0489,7.9278,7.8532,7.8495,7.8847,7.9754,7.9791,7.9949,8.028,8.028,7.9905,7.9116,7.9041,7.9004,7.9004,7.8177,7.7764,7.7764,7.6901,7.6112,8.794,8.9855,9.132,9.0644,8.7377,8.2834,7.7201,0.0,6.8452,6.4021,6.2144,6.1355,6.1543,0.0,0.0,0.0,0.0,0.0,0.0,0.0,0.0,0.0,0.0,0.0,0.0,0.0,0.0,0.0,0.0,0.0,0.0,9.4436,9.3986,9.3986,9.316,9.2709,9.2709,9.1545,9.0719,9.0193,8.9555,8.8729,8.779,8.7114,8.6513,8.5988,0.0,0.0,0.0,8.3922,8.3547,8.1857,8.4523,8.5237,8.4824,8.4824,8.4523,8.411,8.411,8.411,8.411,8.411,8.411,8.411,8.411,8.411,8.411,8.411,8.411,8.4035,8.366,8.3209,8.2721,8.242,8.197,8.1519,8.1181,8.242,8.3509,8.3171,8.4035,8.4673,8.4185,8.3397,8.2894,8.3179,8.2601,8.2308,8.278,8.2631,8.2146,8.1513,8.0786,8.0172,7.9875,7.9837,8.0042,8.045,8.0505,8.0651,8.1004,8.0516,8.0104,7.9867,7.9379,7.9116,7.9116,7.8778,7.8628,7.859,7.7764,7.7201,8.6063,8.8841,9.1169,9.1432,8.7114,8.1519,0.0,0.0,6.7701,6.3571,6.2031,6.143,6.1355,6.0717,0.0,0.0,0.0,6.7138,0.0,0.0,0.0,0.0,0.0,0.0,0.0,0.0,0.0,0.0,0.0,0.0,0.0,9.4436,9.3986,9.3986,9.3385,9.3084,9.3084,9.2258,9.1432,9.0569,9.0343,8.9217,8.7415,8.7677,8.7189,8.6138,0.0,0.0,0.0,8.4749,8.4335,8.2608,8.5424,8.6025,8.5312,8.5312,8.4786,8.411,8.411,8.411,8.411,8.411,8.411,8.411,8.411,8.411,8.411,8.411,8.411,8.411,8.411,8.366,8.3171,8.3171,8.2758,8.2345,8.2345,8.3434,8.4448,8.4448,8.5086,8.5462,8.4899,8.411,8.357,8.3726,8.326,8.3019,8.3116,8.3303,8.2966,8.183,8.1772,8.1471,8.0822,8.0748,8.0916,8.1252,8.1289,8.1288,8.1425,8.0825,8.0315,8.0017,7.9417,7.9116,7.9116,7.9116,7.9116,7.9079,7.8515,7.814,8.3021,8.7114,9.0418,9.1282,8.7114,8.1519,0.0,7.1569,6.6838,6.267,6.1168,6.113,6.2782,6.1017,6.068,6.481,6.481,0.0,0.0,0.0,0.0,0.0,0.0,0.0,0.0,0.0,0.0,0.0,0.0,0.0,0.0,9.4436,9.3986,9.3986,9.3986,9.3986,9.3986,9.3122,9.2296,9.147,9.0606,8.8917,8.6551,8.7415,8.6889,0.0,0.0,0.0,0.0,8.58,8.5537,8.4223,8.5875,8.6025,8.5312,8.5312,8.4786,8.411,8.411,8.411,8.411,8.411,8.411,8.411,8.411,8.411,8.411,8.411,8.411,8.411,8.411,8.4073,8.4073,8.4073,8.4073,8.4073,8.4073,8.4711,8.5312,8.5312,8.595,8.6476,8.6476,8.58,8.5537,8.6326,8.4942,8.4029,8.4816,8.4012,8.3355,8.3143,8.3886,8.3425,8.1103,8.0917,8.1252,8.2109,8.2183,8.1923,8.1425,8.1387,8.0652,7.9154,7.9116,7.9116,7.9116,7.9116,7.9116,7.9116,7.9079,7.8666,7.5774,7.9041,8.1857,8.212,7.8666,7.4498,7.1794,6.8227,6.4772,6.2294,6.2069,6.2294,6.2219,6.1543,6.2181,6.5786,6.5674,6.695,0.0,0.0,0.0,0.0,0.0,0.0,0.0,0.0,0.0,0.0,0.0,0.0,0.0,0.0,9.3986,9.3986,9.3986,9.3986,9.3986,9.3723,9.316,9.2296,9.147,9.0081,8.8203,8.8503,0.0,0.0,0.0,0.0,0.0,8.6926,8.6739,8.5837,8.6964,8.7227,8.6889,8.5725,8.55,8.5575,8.4486,8.4448,8.4824,8.426,8.411,8.411,8.411,8.411,8.411,8.411,8.411,8.411,8.411,8.4523,8.4936,8.4936,8.4936,8.4936,8.4936,8.5124,8.5462,8.6025,8.5875,8.5837,8.6401,8.5837,8.5333,8.5542,8.5562,8.5508,8.5541,8.5201,8.4993,8.4815,8.5075,8.4666,8.3388,8.3797,8.4205,8.4503,8.4503,8.4307,8.3769,8.2685,8.1671,8.0843,7.9679,7.9116,7.9116,7.9116,7.9116,7.9116,7.9116,7.8966,0.0,7.3972,7.615,7.6788,7.3822,0.0,6.8677,6.5974,6.3383,6.1693,6.2519,6.3195,6.2031,6.2557,6.3571,6.4735,6.6011,6.7964,0.0,0.0,0.0,0.0,0.0,0.0,0.0,0.0,0.0,0.0,0.0,0.0,0.0,0.0,9.4136,9.4436,9.4136,9.3986,9.3986,9.3986,9.3535,9.2709,9.2183,9.0907,8.8992,8.9292,0.0,0.0,0.0,0.0,0.0,8.8015,8.794,8.749,8.8053,8.809,8.764,8.6251,8.6063,8.6326,8.5011,8.4899,8.5237,8.4711,8.4335,8.411,8.411,8.411,8.411,8.411,8.4335,8.4561,8.4561,8.5162,8.5687,8.5387,8.5537,8.5762,8.5762,8.5762,8.5988,8.6851,8.6326,8.5913,8.6401,8.61,8.5709,8.5545,8.5994,8.6181,8.5797,8.5797,8.5775,8.5595,8.5855,8.5855,8.5335,8.5483,8.5595,8.5595,8.5595,8.5195,8.431,8.3004,8.1938,8.1042,7.9691,7.9066,7.9116,7.9116,7.9116,7.9116,7.9116,7.9116,0.0,0.0,0.0,0.0,0.0,0.0,0.0,6.451,0.0,6.1055,6.267,0.0,0.0,0.0,6.4923,6.2632,6.6162,6.9278,0.0,0.0,0.0,0.0,0.0,0.0,0.0,0.0,0.0,0.0,0.0,0.0,0.0,0.0,9.4399,9.5075,9.4399,9.3986,9.3986,9.3986,9.3535,9.2709,9.2709,9.1395,8.9029,8.9893,0.0,0.0,0.0,0.0,0.0,8.9067,8.9067,8.8992,8.8992,8.8579,8.7865,8.7001,8.6701,8.6626,8.58,8.55,8.55,8.5424,8.4861,8.4185,8.4185,8.4148,8.411,8.411,8.4636,8.5237,8.5237,8.5837,8.6288,8.55,8.5913,8.6513,8.6513,8.6476,8.6701,8.764,8.7114,8.6513,8.6588,8.6588,8.6534,8.6406,8.6387,8.6311,8.5983,8.5924,8.5924,8.5781,8.6449,8.6895,8.6895,8.6189,8.5781,8.5781,8.5706,8.5023,8.3636,8.2705,8.1605,8.0226,7.9365,7.8966,7.9116,7.9116,7.9116,7.9116,7.9116,7.9116,6.3083,0.0,6.4359,6.4134,0.0,0.0,0.0,0.0,0.0,0.0,0.0,0.0,0.0,0.0,6.7213,6.665,6.8039,6.9879,0.0,0.0,0.0,0.0,0.0,0.0,0.0,0.0,0.0,0.0,0.0,0.0,0.0,0.0,9.4699,9.4286,9.4098,9.3986,9.3986,9.3986,9.3535,9.2709,9.2709,9.1395,8.9029,9.0531,0.0,0.0,0.0,0.0,8.976,8.976,8.9327,8.865,8.865,8.897,8.9385,8.856,8.8692,8.9142,8.7715,8.7227,8.7114,8.6438,8.5687,8.5011,8.5011,8.4598,8.411,8.411,8.4223,8.4373,8.4373,8.5424,8.6288,8.55,8.5913,8.6513,8.6513,8.6025,8.6025,8.7527,8.7114,8.6701,8.7377,8.7342,8.723,8.7059,8.7503,8.7794,8.7551,8.7551,8.7551,8.7527,8.7675,8.7787,8.7787,8.7601,8.749,8.749,8.6895,8.6139,8.5276,8.3415,8.1958,8.1125,7.9766,7.9066,7.9116,7.9116,7.9116,7.9116,7.9116,7.9116,5.9966,6.0379,6.083,6.1581,6.0867,6.0304,0.0,0.0,0.0,0.0,0.0,0.0,0.0,0.0,0.0,6.7316,6.8372,7.0893,0.0,0.0,0.0,0.0,0.0,0.0,0.0,0.0,0.0,0.0,0.0,0.0,0.0,0.0,9.4999,9.4549,9.4173,9.3986,9.3986,9.3986,9.3535,9.2709,9.3122,9.2371,9.0719,9.162,0.0,0.0,0.0,0.0,8.9847,8.9061,8.8891,8.9056,8.8682,8.9302,9.0333,8.9195,8.961,9.0492,8.9273,8.8654,8.8166,8.6889,8.595,8.5312,8.5312,8.5011,8.4561,8.4185,8.4373,8.4636,8.4636,8.5575,8.6401,8.595,8.6476,8.7114,8.7114,8.7039,8.7264,8.8166,8.7978,8.779,8.8278,8.8204,8.8034,8.786,8.8115,8.8232,8.8084,8.8084,8.8084,8.8084,8.8084,8.8233,8.8604,8.8307,8.8084,8.8084,8.7638,8.6919,8.5753,8.4137,8.252,8.0757,7.9654,7.9116,7.9116,7.9116,7.9116,7.9116,7.9116,7.9116,5.8802,5.9178,6.0191,6.2369,6.1205,6.0116,0.0,0.0,0.0,0.0,0.0,0.0,0.0,0.0,0.0,0.0,0.0,0.0,0.0,0.0,0.0,0.0,0.0,0.0,0.0,0.0,0.0,0.0,0.0,0.0,0.0,0.0,0.0,9.4999,9.4361,9.3986,9.3986,9.3986,9.3535,9.2709,9.3573,9.346,9.2463,9.2634,9.2517,0.0,0.0,0.0,8.9855,8.8548,8.8772,8.9855,8.9108,8.978,9.1036,8.9772,9.0226,9.1296,9.0474,8.9743,8.8954,8.7527,8.6513,8.5875,8.5875,8.5687,8.5349,8.4673,8.4974,8.55,8.55,8.61,8.6664,8.6513,8.7189,8.779,8.779,8.8353,8.8841,8.8992,8.8992,8.8992,8.8992,8.8823,8.8708,8.8533,8.8428,8.8381,8.8121,8.8195,8.8233,8.8084,8.8084,8.8418,8.9236,8.8567,8.8158,8.827,8.8047,8.7081,8.5358,8.4503,8.2817,8.0031,7.9541,7.9229,7.9116,7.9116,7.9116,7.9116,7.9116,7.9116,6.0867,6.1318,6.1506,6.1881,6.1205,6.0867,0.0,0.0,0.0,0.0,0.0,0.0,0.0,0.0,0.0,0.0,0.0,0.0,0.0,0.0,0.0,0.0,0.0,0.0,0.0,0.0,0.0,0.0,0.0,0.0,0.0,0.0,0.0,9.4211,9.4061,9.3986,9.3986,9.3986,9.3535,9.2709,9.3573,9.3101,9.1484,9.2313,9.2158,0.0,0.0,9.1432,9.0702,9.1112,9.0913,9.0377,9.0228,9.0938,9.2007,9.1622,9.1942,9.2238,9.0756,9.0118,8.9968,8.9743,8.9104,8.8428,8.8428,8.7452,8.6288,8.6175,8.6213,8.6326,8.6326,8.6964,8.7415,8.6664,8.7189,8.779,8.779,8.7903,8.8203,8.8879,8.8992,8.8992,8.8992,8.8766,8.8533,8.8495,8.8889,8.8927,8.8195,8.8678,8.8827,8.8158,8.8084,8.8418,8.9236,8.8567,8.8381,8.905,8.7787,8.6087,8.3974,8.3135,8.1938,8.0342,8.0243,7.983,7.9116,7.9116,7.9116,7.9116,7.9116,7.9116,5.9178,6.0454,6.2219,6.4059,6.3233,0.0,0.0,0.0,0.0,0.0,0.0,0.0,0.0,0.0,0.0,0.0,0.0,0.0,0.0,0.0,0.0,0.0,0.0,0.0,0.0,0.0,0.0,0.0,0.0,0.0,0.0,0.0,0.0,0.0,9.4273,9.4273,9.4273,9.4065,9.3535,9.2709,9.3514,9.2967,9.1392,9.2548,9.2577,9.1633,0.0,9.0801,9.0589,9.0193,9.018,9.0499,9.0689,9.1597,9.2741,9.2903,9.3148,9.3272,9.2521,9.1958,9.147,9.1057,9.0043,8.8992,8.8992,8.8166,8.7302,8.7715,8.7189,8.6513,8.6513,8.6814,8.7114,8.7189,8.7527,8.794,8.8353,8.8466,8.8541,8.8917,8.8992,8.8992,8.8992,8.8708,8.8682,8.913,8.9237,8.931,8.9384,8.9719,8.9793,8.9421,8.9384,8.9719,9.0536,8.9459,8.8716,8.8641,8.7613,8.6482,8.5541,8.3994,8.2832,8.2242,8.1431,8.0843,8.0468,8.0017,7.9792,7.9792,7.9304,7.9116,5.7788,5.9591,6.2519,0.0,0.0,0.0,0.0,0.0,0.0,0.0,0.0,0.0,0.0,0.0,0.0,0.0,0.0,0.0,0.0,0.0,0.0,0.0,0.0,0.0,0.0,0.0,0.0,0.0,0.0,0.0,0.0,0.0,0.0,0.0,9.4628,9.4613,9.4508,9.4366,9.3841,9.3009,9.347,9.3095,9.1992,9.2839,9.2654,9.1734,9.059,9.028,9.0424,8.9721,9.0068,9.112,9.1249,9.1983,9.3077,9.3574,9.3717,9.3626,9.3685,9.3272,9.2596,9.1958,9.0794,8.9592,8.9592,8.8879,8.8203,8.8841,8.809,8.7077,8.7077,8.7077,8.7264,8.794,8.8241,8.8541,8.9142,8.9292,8.933,8.9555,8.9405,8.933,8.9555,8.9327,8.9317,8.999,8.9945,8.9942,9.0202,9.0536,9.0647,9.0276,9.0387,9.0759,9.1353,9.0276,8.9236,8.8418,8.7538,8.6989,8.6862,8.5227,8.4121,8.3576,8.2857,8.2195,8.1594,8.1181,8.0843,8.0656,7.993,7.9629,5.9178,6.0454,0.0,0.0,0.0,0.0,0.0,0.0,0.0,0.0,0.0,0.0,0.0,0.0,0.0,0.0,0.0,0.0,0.0,0.0,0.0,0.0,0.0,0.0,0.0,0.0,0.0,0.0,0.0,0.0,0.0,0.0,0.0,0.0,0.0,9.487,9.4508,9.487,9.4666,9.3873,9.377,9.3611,9.3376,9.2604,9.1672,9.0674,9.1471,9.1359,9.061,9.2216,9.2821,9.2793,9.2294,9.2194,9.238,9.3567,9.338,9.2645,9.2726,9.2747,9.2709,9.2634,9.2033,9.132,9.132,9.0193,8.8917,8.8992,8.8917,8.8804,8.8804,8.8804,8.8841,8.8879,8.948,9.0043,9.0118,9.0118,9.0343,9.1169,9.0681,9.0381,9.1169,9.105,9.0849,9.0886,9.1248,9.1019,8.957,9.0685,9.1056,8.9533,9.0053,9.0536,9.0573,9.0462,9.0053,8.9273,8.7712,8.6608,8.6196,8.603,8.5002,8.2894,8.4298,8.3922,8.1594,8.2308,8.2233,8.1519,8.129,8.12,5.9178,6.0714,0.0,0.0,0.0,0.0,0.0,0.0,0.0,0.0,0.0,0.0,0.0,0.0,0.0,0.0,0.0,0.0,0.0,0.0,0.0,0.0,0.0,0.0,0.0,0.0,0.0,0.0,0.0,0.0,0.0,0.0,0.0,0.0,0.0,9.5394,9.5257,9.5163,9.4969,9.4703,9.4508,9.419,9.3751,9.3388,9.272,9.1912,9.202,9.1769,9.1508,9.2683,9.3026,9.2945,9.331,9.3422,9.3358,9.3814,9.3798,9.3439,9.3498,9.3498,9.3422,9.2897,9.2146,9.1395,9.0869,8.9893,8.8992,8.8992,8.8992,8.8992,8.8992,8.8992,8.9142,8.963,9.0005,9.0343,9.0907,9.1019,9.1094,9.1432,9.1207,9.1094,9.1432,9.1237,9.1148,9.1671,9.1694,9.1688,9.1613,9.2133,9.2282,9.165,9.1873,9.1836,9.1279,9.0796,9.0164,8.9347,8.832,8.7474,8.6889,8.648,8.5619,8.4411,8.4486,8.4073,8.3134,8.2946,8.2594,8.2189,8.1717,8.1492,5.9087,6.0471,6.2845,6.6938,0.0,0.0,0.0,0.0,0.0,0.0,0.0,0.0,0.0,0.0,0.0,0.0,0.0,0.0,0.0,0.0,0.0,0.0,0.0,0.0,0.0,0.0,0.0,0.0,0.0,0.0,0.0,0.0,0.0,0.0,0.0,0.0,9.5696,9.5566,9.5433,9.5303,9.5303,9.4952,9.423,9.406,9.3652,9.3008,9.2859,9.2683,9.2517,9.3347,9.3585,9.3623,9.4227,9.4383,9.4142,9.4142,9.4065,9.3986,9.3986,9.3986,9.3873,9.331,9.2559,9.1733,9.0869,9.0231,8.9667,8.9142,8.9179,8.9367,8.9367,8.9179,8.9142,8.9705,9.0231,9.0756,9.1357,9.1695,9.1958,9.2221,9.2071,9.1958,9.2221,9.2024,9.2031,9.253,9.2354,9.2273,9.2542,9.2839,9.2988,9.2988,9.2988,9.2765,9.2171,9.1353,9.0647,9.009,8.9175,8.8181,8.7316,8.7001,8.6537,8.5562,8.5279,8.492,8.4433,8.3832,8.3419,8.3051,8.2542,8.2242,5.9063,5.9899,6.1595,0.0,0.0,0.0,0.0,0.0,0.0,0.0,0.0,0.0,0.0,0.0,0.0,0.0,0.0,0.0,0.0,0.0,0.0,0.0,0.0,0.0,0.0,0.0,0.0,0.0,0.0,0.0,0.0,0.0,0.0,0.0,0.0,0.0,9.5696,9.6098,9.6098,9.5696,9.6098,9.5818,9.492,9.4693,9.4149,9.3479,9.4262,9.4149,9.3517,9.449,9.5018,9.5115,9.4969,9.4731,9.4508,9.4508,9.4273,9.3986,9.3986,9.3986,9.3986,9.3986,9.3385,9.2559,9.1733,9.147,9.1132,8.948,8.9592,9.0231,9.0231,8.963,8.9029,8.9029,9.0306,9.1507,9.1507,9.2146,9.2972,9.3835,9.331,9.2972,9.3835,9.383,9.3649,9.3501,9.3338,9.2849,9.1836,9.2468,9.2988,9.2988,9.2988,9.2988,9.2988,9.2208,9.1688,9.1688,9.0202,8.863,8.7175,8.7883,8.7571,8.6142,8.7024,8.6706,8.5095,8.5258,8.4899,8.411,8.3876,8.3784,6.2552,6.2529,0.0,0.0,0.0,0.0,0.0,0.0,0.0,0.0,0.0,0.0,0.0,0.0,0.0,0.0,0.0,0.0,0.0,0.0,0.0,0.0,0.0,0.0,0.0,0.0,0.0,0.0,0.0,0.0,0.0,0.0,0.0,0.0,0.0,0.0,9.6098,9.6251,9.6251,9.6098,9.6251,9.6136,9.5859,9.5363,9.5028,9.4799,9.4779,9.468,9.454,9.5189,9.5522,9.5522,9.5477,9.5257,9.487,9.4508,9.4328,9.4199,9.3889,9.377,9.3695,9.3214,9.2521,9.1695,9.0832,9.0606,9.0494,8.9968,9.0456,9.1094,9.1094,9.0944,9.0907,9.147,9.1996,9.2521,9.3122,9.3422,9.3685,9.3948,9.3701,9.353,9.3948,9.3649,9.3401,9.3501,9.3248,9.2942,9.2653,9.2839,9.2988,9.2988,9.2988,9.2988,9.2988,9.2208,9.1688,9.1688,9.0202,8.889,8.7995,8.7623,8.7012,8.6142,8.6443,8.6387,8.5788,8.5467,8.5054,8.4573,8.4175,8.3929,6.4392,0.0,0.0,0.0,0.0,0.0,0.0,0.0,0.0,0.0,0.0,0.0,0.0,0.0,0.0,0.0,0.0,0.0,0.0,0.0,0.0,0.0,0.0,0.0,0.0,0.0,0.0,0.0,0.0,0.0,0.0,0.0,0.0,0.0,0.0,0.0,9.6288,9.6288,9.6288,9.6288,9.6288,9.6288,9.6288,9.5902,9.5741,9.5741,9.5528,9.5439,9.5484,9.5818,9.5941,9.5941,9.5941,9.5696,9.5257,9.4769,9.4265,9.3783,9.3245,9.3101,9.305,9.2623,9.2421,9.2158,9.1355,9.1317,9.143,9.0907,9.132,9.1958,9.1958,9.1958,9.2033,9.2183,9.2484,9.2859,9.3347,9.376,9.3986,9.3927,9.377,9.3709,9.3807,9.3526,9.3338,9.3338,9.3184,9.2988,9.2988,9.2988,9.2988,9.2988,9.2988,9.2988,9.2988,9.2505,9.2208,9.2208,9.0685,8.9633,8.9175,8.8059,8.7301,8.6937,8.674,8.6648,8.6474,8.5994,8.5582,8.532,8.4721,8.4454,0.0,0.0,0.0,0.0,0.0,0.0,0.0,0.0,0.0,0.0,0.0,0.0,0.0,0.0,0.0,0.0,0.0,0.0,0.0,0.0,0.0,0.0,0.0,0.0,0.0,0.0,0.0,0.0,0.0,0.0,0.0,0.0,0.0,0.0,0.0,0.0,9.6288,9.6288,9.6288,0.0,9.6288,9.6288,9.6288,9.6288,9.6288,9.6288,9.6288,9.6288,9.6288,9.6288,9.6288,9.6288,9.6288,9.602,9.5581,9.5048,9.4162,9.3138,9.2458,9.2255,9.2255,9.2194,9.2679,9.3127,9.2563,9.296,9.3297,9.1975,9.2241,9.2842,9.2822,9.2842,9.2768,9.1997,9.2316,9.2822,9.2822,9.3422,9.3927,9.3709,9.3709,9.3649,9.3501,9.3501,9.3375,9.3211,9.3119,9.2988,9.2988,9.2988,9.2988,9.2988,9.2988,9.2988,9.2988,9.2988,9.2988,9.2988,9.1502,9.0573,9.0499,8.8938,8.8084,8.8084,8.7645,8.7332,8.7153,8.6648,8.6331,8.6159,8.5471,8.5207,0.0,0.0,0.0,0.0,0.0,0.0,0.0,0.0,0.0,0.0,0.0,0.0,0.0,0.0,0.0,0.0,0.0,0.0,0.0,0.0,0.0,0.0,0.0,0.0,0.0,0.0,0.0,0.0,0.0,0.0,0.0,0.0,0.0,0.0,0.0,9.6288,9.6288,9.6288,9.6288,0.0,9.6288,9.6288,9.6288,9.6288,9.6288,9.6288,9.6288,9.6288,9.6288,9.6288,9.6288,9.6288,9.6288,9.5828,9.5099,9.4534,9.4197,9.3821,9.2991,9.2654,9.2596,9.2316,9.1895,9.1545,9.1478,9.2061,9.272,9.2501,9.3313,9.419,9.3802,9.4296,9.4686,9.4173,9.384,9.3723,9.3723,9.3873,9.3927,9.3709,9.3625,9.3563,9.3501,9.3248,9.3119,9.3054,9.2988,9.2988,9.2988,9.2988,9.2988,9.2988,9.2988,9.2988,9.2988,9.2988,9.2988,9.2988,9.2022,9.1167,9.0536,8.8938,8.8084,8.8084,8.8083,8.8032,8.7886,8.7332,8.7018,8.69,8.6196,8.59,0.0,0.0,0.0,0.0,0.0,0.0,0.0,0.0,0.0,0.0,0.0,0.0,0.0,0.0,0.0,0.0,0.0,0.0,0.0,0.0,0.0,0.0,0.0,0.0,0.0,0.0,0.0,0.0,0.0,0.0,0.0,0.0,0.0,0.0,9.6288,9.6288,9.6288,9.6288,9.6288,9.6288,9.6288,9.6288,9.6288,9.6288,9.6288,9.6288,9.6288,9.6288,9.6288,9.6288,9.6288,9.6249,9.5826,9.5403,9.4943,9.4394,9.3688,9.2907,9.2307,9.2072,9.2053,9.1821,9.2024,9.2383,9.2843,9.3326,9.372,9.3812,9.4338,9.4882,9.4599,9.492,9.5219,9.4931,9.4819,9.4666,9.4666,9.4613,9.4523,9.4362,9.4235,9.4161,9.4067,9.4195,9.4399,9.4399,9.4399,9.4248,9.3814,9.3536,9.3389,9.3389,9.3146,9.2988,9.2988,9.2988,9.2988,9.2988,9.2171,9.1502,9.1093,8.9904,8.8901,8.8121,8.9051,8.9237,8.8678,8.8442,8.8316,8.8134,8.7086,8.6586,0.0,0.0,0.0,0.0,0.0,0.0,0.0,0.0,0.0,0.0,0.0,0.0,0.0,0.0,0.0,0.0,0.0,0.0,0.0,0.0,0.0,0.0,0.0,0.0,0.0,0.0,0.0,0.0,0.0,0.0,0.0,0.0,9.6288,9.6288,9.6288,9.6288,9.6288,9.6288,9.6288,9.6288,9.6288,9.6288,9.6288,9.6288,9.6288,9.6288,9.6288,9.6288,9.6288,9.6134,9.6095,9.598,9.5095,9.4672,9.452,9.4094,9.3128,9.1969,9.1723,9.1692,9.1788,9.1695,9.2618,9.386,9.4452,9.4828,9.4991,9.5077,9.5219,9.5273,9.5163,9.5257,9.5311,9.5219,9.5401,9.5538,9.5363,9.5273,9.5142,9.5001,9.4893,9.4832,9.4604,9.5172,9.5665,9.5665,9.5665,9.54,9.4679,9.4215,9.3972,9.3972,9.3451,9.3146,9.3146,9.3054,9.2988,9.2988,9.2319,9.1873,9.1725,9.1205,9.0164,8.853,8.9957,9.0329,8.9496,8.9473,8.9399,8.9273,8.791,8.7264,0.0,0.0,0.0,0.0,0.0,0.0,0.0,0.0,0.0,0.0,0.0,0.0,0.0,0.0,0.0,0.0,0.0,0.0,0.0,0.0,0.0,0.0,0.0,0.0,0.0,0.0,0.0,0.0,0.0,0.0,0.0,9.6288,9.6288,9.6288,9.6288,9.6288,9.6288,9.6288,9.6288,9.6288,9.6288,9.6288,9.6288,9.6288,9.6288,9.6288,9.6288,9.6288,9.6249,9.548,9.5172,9.5095,9.421,9.3441,9.2826,9.2753,9.3022,9.3332,9.2847,9.3206,9.377,9.3252,9.325,9.3491,9.3693,9.4274,9.4931,9.5067,9.5401,9.5619,9.521,9.5703,9.6209,9.5785,9.6059,9.6134,9.5311,9.5163,9.5077,9.4931,9.4744,9.4604,9.4604,9.4717,9.4755,9.4755,9.4755,9.4717,9.4604,9.4552,9.45,9.45,9.3991,9.368,9.368,9.3237,9.2988,9.2988,9.2876,9.2468,9.1725,9.2319,9.1873,9.0202,9.0387,9.0462,9.035,8.9644,8.931,8.9273,8.8344,8.7997,0.0,0.0,0.0,0.0,0.0,0.0,0.0,0.0,0.0,0.0,0.0,0.0,0.0,0.0,0.0,0.0,0.0,0.0,0.0,0.0,0.0,0.0,0.0,0.0,0.0,0.0,0.0,0.0,0.0,0.0,9.6288,9.6288,9.6095,9.5595,9.6057,9.6057,9.5557,9.5557,9.5557,9.5557,9.5557,9.5557,9.5557,9.5057,9.5365,9.6288,9.6288,9.6288,9.6288,9.5903,9.5711,9.5634,9.4749,9.421,9.3903,9.3903,9.3826,9.3713,9.3667,9.3879,9.4141,9.3923,9.4135,9.4562,9.4998,9.5431,9.5741,9.5738,9.5942,9.6059,9.5859,9.6059,9.6322,9.6136,9.6249,9.6286,9.5859,9.5821,9.5821,9.5696,9.5615,9.5686,9.6145,9.6222,9.6222,9.6222,9.6222,9.6069,9.561,9.5273,9.5048,9.5048,9.4552,9.416,9.3856,9.3597,9.3301,9.2988,9.2988,9.2839,9.2431,9.2802,9.2653,9.191,9.191,9.165,9.1167,9.035,8.9979,8.9942,8.8678,8.8084,0.0,0.0,0.0,0.0,0.0,0.0,0.0,0.0,0.0,0.0,0.0,0.0,0.0,0.0,0.0,0.0,0.0,0.0,0.0,0.0,0.0,0.0,0.0,0.0,0.0,0.0,0.0,0.0,0.0,0.0,9.6288,9.6095,9.5788,9.5326,9.5749,9.5672,9.5018,9.498,9.498,9.498,9.498,9.498,9.498,9.4095,9.4518,9.598,9.598,9.6095,9.6288,9.6057,9.5826,9.5557,9.4711,9.421,9.4018,9.4018,9.3903,9.3713,9.3751,9.4164,9.47,9.4471,9.493,9.57,9.6136,9.6325,9.6358,9.6325,9.6325,9.6358,9.6288,9.6288,9.6288,9.6288,9.6288,9.6288,9.6288,9.6361,9.6361,9.6288,9.6288,9.648,9.7096,9.7211,9.7211,9.7211,9.7211,9.698,9.6365,9.5902,9.5619,9.5619,9.5096,9.4655,9.427,9.3934,9.3657,9.3237,9.3119,9.2988,9.2988,9.2988,9.2988,9.2988,9.2988,9.2691,9.2022,9.0982,9.0499,9.0462,8.8827,8.8084,0.0,0.0,0.0,0.0,0.0,0.0,0.0,0.0,0.0,0.0,0.0,0.0,0.0,0.0,0.0,0.0,0.0,0.0,0.0,0.0,0.0,0.0,0.0,0.0,0.0,0.0,0.0,0.0,0.0,0.0,9.6288,9.5518,9.5441,9.6211,9.548,9.5057,9.498,9.498,9.498,9.498,9.498,9.498,9.498,9.4095,9.421,9.5057,9.5057,9.5518,9.6249,9.5403,9.4557,9.3749,9.2941,9.2133,9.1402,9.1402,9.2364,9.3595,9.2828,9.4174,9.6058,9.5212,9.552,9.6251,9.6288,9.6288,9.6288,9.6288,9.6288,9.6288,9.6288,9.6288,9.6288,9.6288,9.6288,9.6288,9.6288,9.6288,9.6288,9.6288,9.6288,9.6326,9.6365,9.6365,9.6365,9.6365,9.6365,9.6365,9.6326,9.6251,9.6251,9.6251,9.57,9.5363,9.5318,9.4394,9.3798,9.3739,9.3301,9.2988,9.2988,9.2988,9.2988,9.2988,9.2988,9.2988,9.2914,9.1279,9.0499,9.0462,8.8827,8.8084,0.0,0.0,0.0,0.0,0.0,0.0,0.0,0.0,0.0,0.0,0.0,0.0,0.0,0.0,0.0,0.0,0.0,0.0,0.0,0.0,0.0,0.0,0.0,0.0,0.0,0.0,0.0,0.0,0.0,0.0,9.6288,9.548,9.5134,9.5441,9.5172,9.4711,9.4172,9.4711,9.498,9.498,9.3903,9.3941,9.4903,9.2979,9.2864,9.4134,9.3633,9.3864,9.4595,9.4287,9.398,9.3672,9.3364,9.3095,9.2864,9.3441,9.4018,9.4557,9.4826,9.5557,9.6249,9.5942,9.6057,9.6288,9.6288,9.6288,9.6288,9.6288,9.6288,9.6288,9.6288,9.6288,9.6288,9.6288,9.6288,9.6288,9.6288,9.6288,9.6288,9.6288,9.6288,9.6288,9.6288,9.6288,9.6288,9.6288,9.6288,9.6288,9.6288,9.6288,9.6288,9.6288,9.6558,9.6587,9.6292,9.5886,9.5385,9.4645,9.3957,9.3364,9.2988,9.2988,9.2988,9.2988,9.2988,9.2988,9.2988,9.1836,9.1279,9.1242,9.0164,8.9347,0.0,0.0,0.0,0.0,0.0,0.0,0.0,0.0,0.0,0.0,0.0,0.0,0.0,0.0,0.0,0.0,0.0,0.0,0.0,0.0,0.0,0.0,0.0,0.0,0.0,0.0,0.0,0.0,0.0,0.0,9.6288,9.548,9.498,9.498,9.4441,9.4134,9.4134,9.4403,9.4441,9.4134,9.3287,9.3326,9.4095,9.2095,9.1979,9.3249,9.2402,9.2672,9.371,9.371,9.371,9.3672,9.3403,9.3441,9.3749,9.4057,9.4518,9.5018,9.5326,9.5826,9.6249,9.5942,9.6057,9.6288,9.6288,9.6288,9.6288,9.6288,9.6288,9.6288,9.6288,9.6288,9.6288,9.6288,9.6288,9.6288,9.6288,9.6288,9.6288,9.6288,9.6288,9.6288,9.6288,9.6288,9.6288,9.6288,9.6288,9.6288,9.6288,9.6557,9.6596,9.6326,9.7288,9.7673,9.7006,9.6795,9.6343,9.5404,9.4366,9.3536,9.3054,9.2988,9.2988,9.2988,9.2988,9.2988,9.2988,9.2133,9.1688,9.1688,9.087,9.0053,0.0,0.0,0.0,0.0,0.0,0.0,0.0,0.0,0.0,0.0,0.0,0.0,0.0,0.0,0.0,0.0,0.0,0.0,0.0,0.0,0.0,0.0,0.0,0.0,0.0,0.0,0.0,0.0,0.0,9.6288,9.6288,9.548,9.498,9.4941,9.3364,9.3287,9.4903,9.4095,9.3287,9.2556,9.3287,9.3249,9.2518,9.1595,9.1672,9.2441,9.1595,9.2133,9.3633,9.3633,9.3633,9.3557,9.2749,9.2941,9.3557,9.2826,9.3557,9.4864,9.4057,9.4864,9.6172,9.5288,9.5595,9.6288,9.6288,9.6288,9.6288,9.6288,9.6288,9.6288,9.6288,9.6288,9.6288,9.6288,9.6288,9.6288,9.6288,9.6288,9.6288,9.6288,9.6288,9.6288,9.6288,9.6288,9.6288,9.6288,9.6326,9.6326,9.6288,9.7019,9.7211,9.6442,9.7827,9.8442,9.7596,9.7086,9.6523,9.5996,9.4612,9.3597,9.3054,9.2988,9.2988,9.2988,9.2988,9.2988,9.2988,9.2133,9.1725,9.1725,9.0907,9.009,6.1281,0.0,0.0,0.0,0.0,0.0,6.8472,0.0,0.0,0.0,0.0,0.0,0.0,0.0,0.0,0.0,0.0,0.0,0.0,0.0,0.0,0.0,0.0,0.0,0.0,0.0,0.0,0.0,9.5711,9.5634,9.6288,9.548,9.4711,9.4057,9.3595,9.3287,9.3172,9.2941,9.3018,9.3364,9.2364,9.2402,9.3326,9.1864,9.1672,9.2441,9.1595,9.1479,9.1902,9.1902,9.1902,9.1864,9.1633,9.2095,9.2864,9.3249,9.4057,9.5057,9.5441,9.5903,9.6249,9.6019,9.6095,9.6288,9.6288,9.6288,9.6288,9.6288,9.6288,9.6288,9.6288,9.6288,9.6288,9.6288,9.6288,9.6288,9.6288,9.6288,9.6288,9.6288,9.6288,9.6288,9.6288,9.6288,9.6288,9.6288,9.6788,9.698,9.6365,9.7019,9.7403,9.7211,9.8134,9.8711,9.8442,9.8288,9.7699,9.657,9.5161,9.416,9.3597,9.3211,9.2988,9.2988,9.2988,9.2988,9.2988,9.2765,9.2653,9.2616,9.1762,9.0945,0.0,0.0,0.0,0.0,0.0,0.0,6.6535,6.9748,0.0,0.0,0.0,0.0,0.0,0.0,0.0,0.0,0.0,0.0,0.0,0.0,0.0,0.0,0.0,0.0,0.0,0.0,0.0,9.6288,9.5826,9.5595,9.5749,9.4941,9.421,9.371,9.3018,9.2595,9.2479,9.2479,9.2556,9.2633,9.2056,9.2056,9.2633,9.1633,9.1479,9.1941,9.1441,9.121,9.121,9.121,9.1402,9.1748,9.1748,9.2479,9.3595,9.4057,9.4788,9.5595,9.6134,9.6288,9.6288,9.6288,9.6288,9.6288,9.6288,9.6288,9.6288,9.6288,9.6288,9.6288,9.6288,9.6288,9.6288,9.6288,9.6288,9.6288,9.6288,9.6288,9.6288,9.6288,9.6288,9.6288,9.6288,9.6288,9.6288,9.6288,9.6711,9.6826,9.6365,9.7326,9.7788,9.7057,9.8711,9.9404,9.8365,9.8596,9.821,9.6789,9.5591,9.4604,9.3856,9.3513,9.3237,9.2988,9.2988,9.2988,9.2988,9.2988,9.2988,9.2988,9.2468,9.1799,0.0,0.0,0.0,0.0,0.0,0.0,6.6706,6.9262,7.2147,0.0,0.0,0.0,0.0,0.0,0.0,0.0,0.0,0.0,0.0,0.0,0.0,0.0,0.0,0.0,0.0,9.6211,9.6211,9.6288,9.6288,9.5903,9.5057,9.4172,9.371,9.371,9.2056,9.1633,9.2479,9.2402,9.2018,9.1364,9.2133,9.2095,9.1325,9.1325,9.1287,9.121,9.121,9.1248,9.1325,9.1325,9.1787,9.2479,9.2479,9.3518,9.498,9.498,9.5557,9.6288,9.6288,9.6288,9.6288,9.6288,9.6288,9.6288,9.6288,9.6288,9.6288,9.6288,9.6288,9.6288,9.6288,9.6288,9.6288,9.6288,9.6288,9.6288,9.6288,9.6288,9.6288,9.6288,9.6365,9.6442,9.6442,9.6442,9.6442,9.6442,9.6442,9.6403,9.6326,9.775,9.8173,9.6596,9.9211,10.0096,9.7711,9.8211,9.8095,9.6762,9.5872,9.4953,9.3972,9.3856,9.3536,9.2988,9.2988,9.2988,9.2988,9.2988,9.2988,9.2988,9.2988,9.2542,0.0,0.0,0.0,0.0,0.0,0.0,6.2835,6.4593,6.7092,0.0,0.0,0.0,0.0,0.0,0.0,0.0,0.0,0.0,0.0,0.0,0.0,0.0,0.0,0.0,0.0,9.5672,9.5518,9.6249,9.6288,9.5903,9.5057,9.4172,9.371,9.371,9.2056,9.1633,9.2479,9.1787,9.171,9.2249,9.2402,9.2402,9.2249,9.2249,9.1864,9.121,9.121,9.1595,9.2249,9.2249,9.2364,9.2479,9.2479,9.3518,9.498,9.498,9.5557,9.6288,9.6288,9.6288,9.6288,9.6288,9.6288,9.6288,9.6288,9.6288,9.6288,9.6288,9.6288,9.6288,9.6288,9.6288,9.6288,9.6288,9.6288,9.6288,9.6288,9.6288,9.6288,9.6288,9.6826,9.7288,9.7288,9.7288,9.7288,9.7288,9.7288,9.7019,9.6365,9.775,9.8404,9.7365,9.8481,9.8788,9.7596,9.7673,9.7366,9.6444,9.5776,9.5096,9.4447,9.4048,9.3536,9.2988,9.2988,9.2988,9.2988,9.2988,9.2988,9.2988,9.2988,9.2542,0.0,0.0,0.0,6.2317,0.0,0.0,0.0,6.411,6.5893,6.8777,0.0,0.0,0.0,0.0,0.0,0.0,0.0,0.0,0.0,0.0,0.0,0.0,0.0,0.0,0.0,9.5634,9.5826,9.6288,9.6288,9.5711,9.4403,9.3941,9.3518,9.3095,9.2287,9.2249,9.3095,9.2672,9.2441,9.2479,9.2479,9.2287,9.1864,9.1864,9.1595,9.121,9.1672,9.2095,9.2518,9.2941,9.3095,9.3133,9.3557,9.4249,9.5057,9.548,9.5903,9.6288,9.6288,9.6288,9.6288,9.6288,9.6288,9.6288,9.6288,9.6288,9.6288,9.6288,9.6288,9.6288,9.6288,9.6288,9.6288,9.6288,9.6288,9.6288,9.6288,9.6288,9.6288,9.6288,9.7288,9.8019,9.7557,9.7865,9.8134,9.8134,9.8134,9.8019,9.7596,9.8673,9.8942,9.7634,9.8673,9.875,9.7057,9.7288,9.7173,9.6365,9.602,9.549,9.4655,9.4341,9.3798,9.2988,9.2988,9.2988,9.2988,9.2988,9.2988,9.2988,9.2645,9.2263,0.0,0.0,0.0,0.0,0.0,6.2486,0.0,0.0,0.0,6.9159,0.0,0.0,0.0,0.0,0.0,0.0,0.0,0.0,0.0,0.0,0.0,0.0,0.0,0.0,0.0,9.4364,9.5326,9.6019,9.5749,9.4941,9.3557,9.348,9.3172,9.2518,9.2479,9.2903,9.3672,9.3557,9.321,9.271,9.2556,9.221,9.1672,9.1518,9.1518,9.171,9.2249,9.2672,9.3018,9.3672,9.4057,9.4249,9.4788,9.498,9.5095,9.598,9.6288,9.6288,9.6288,9.6288,9.6288,9.6288,9.6288,9.6288,9.6288,9.6288,9.6288,9.6288,9.6288,9.6288,9.6288,9.6288,9.6288,9.6288,9.6288,9.6288,9.6288,9.6288,9.6288,9.6288,9.7519,9.8365,9.7827,9.8481,9.9058,9.9058,9.8904,9.8788,9.8788,9.9404,9.925,9.7673,9.875,9.8711,9.648,9.6903,9.698,9.6326,9.6288,9.578,9.4655,9.4394,9.3914,9.2988,9.2988,9.2988,9.2988,9.2988,9.2988,9.2988,9.2412,9.2178,0.0,0.0,0.0,0.0,6.7115,0.0,0.0,0.0,6.5932,6.487,0.0,0.0,0.0,0.0,0.0,0.0,0.0,0.0,0.0,0.0,0.0,0.0,0.0,0.0,0.0,0.0,9.1864,9.4903,9.3749,9.2864,9.2633,9.2633,9.2595,9.2479,9.2479,9.2903,9.3672,9.2979,9.2941,9.3557,9.2826,9.2826,9.3403,9.2672,9.2749,9.3364,9.2749,9.3326,9.4711,9.4788,9.5288,9.5942,9.5249,9.498,9.5095,9.598,9.6288,9.6288,9.6288,9.6288,9.6288,9.6288,9.6288,9.6288,9.6288,9.6288,9.6288,9.6288,9.6288,9.6288,9.6288,9.6288,9.6288,9.6288,9.6288,9.6288,9.6288,9.6288,9.6288,9.6288,9.7019,9.7865,9.8519,9.9365,9.9942,9.9942,9.9288,9.8788,9.8788,9.8904,9.8596,9.7596,9.7673,9.7403,9.6403,9.6365,9.6403,9.6326,9.6288,9.578,9.4655,9.3717,9.3146,9.2988,9.2988,9.2988,9.2988,9.2988,9.2988,9.2988,9.2914,9.2905,0.0,0.0,0.0,0.0,0.0,0.0,0.0,0.0,6.4188,0.0,0.0,0.0,0.0,0.0,0.0,0.0,0.0,0.0,0.0,0.0,0.0,0.0,0.0,0.0,0.0,0.0,0.0,0.0,0.0,9.0056,8.9556,9.1402,9.271,9.3172,9.2749,9.3133,9.4441,9.4095,9.3633,9.3018,9.3133,9.2864,9.2249,9.1902,9.1941,9.2249,9.2441,9.2903,9.3595,9.4057,9.4441,9.4826,9.4941,9.5288,9.5788,9.6172,9.6288,9.6288,9.6288,9.6288,9.6288,9.6288,9.6288,9.6288,9.6288,9.6288,9.6288,9.6288,9.6288,9.6288,9.6288,9.6288,9.6288,9.6288,9.6288,9.6442,9.6903,9.6634,9.6596,9.7557,9.8019,9.8519,9.9404,9.9865,10.0096,10.0096,9.9788,9.9558,9.9558,9.9096,9.8481,9.7596,9.7519,9.7173,9.6365,9.6288,9.6288,9.6288,9.5981,9.5446,9.4655,9.3856,9.3301,9.2988,9.2988,9.2988,9.2988,9.2988,9.2988,9.2988,9.2635,9.2412,7.2871,0.0,0.0,0.0,0.0,0.0,0.0,0.0,0.0,0.0,0.0,0.0,0.0,0.0,0.0,0.0,0.0,0.0,0.0,0.0,0.0,0.0,0.0,0.0,0.0,0.0,0.0,0.0,8.7204,8.7209,8.7055,9.0056,9.2287,9.3326,9.3018,9.3403,9.4634,9.4864,9.4249,9.2826,9.321,9.2864,9.1864,9.1402,9.1441,9.1902,9.2326,9.2633,9.2903,9.371,9.4057,9.4134,9.5018,9.5749,9.6288,9.6288,9.6288,9.6288,9.6288,9.6288,9.6288,9.6288,9.6288,9.6288,9.6288,9.6288,9.6288,9.6288,9.6288,9.6288,9.6288,9.6288,9.6288,9.6288,9.6288,9.6519,9.7326,9.7057,9.7057,9.8519,9.8788,9.8981,9.9635,10.0096,10.0404,10.0404,10.0212,10.0096,10.0096,9.9135,9.8211,9.7557,9.7519,9.7173,9.6365,9.6519,9.6519,9.6326,9.5741,9.5227,9.4855,9.4287,9.3739,9.3237,9.3211,9.3146,9.2988,9.2988,9.2988,9.2988,9.2486,9.229,0.0,0.0,0.0,0.0,0.0,0.0,0.0,0.0,6.8665,0.0,0.0,0.0,0.0,0.0,0.0,0.0,0.0,0.0,0.0,0.0,0.0,0.0,0.0,0.0,0.0,0.0,0.0,8.2532,8.3317,8.4439,8.6055,8.8594,9.0787,9.2479,9.3249,9.3672,9.3749,9.4557,9.4557,9.3633,9.2903,9.2903,9.3557,9.1941,9.2095,9.3595,9.2826,9.2941,9.371,9.4595,9.4941,9.5018,9.5903,9.6288,9.6288,9.6288,9.6288,9.6288,9.6288,9.6288,9.6288,9.6288,9.6288,9.6288,9.6288,9.6288,9.6288,9.6288,9.6288,9.6288,9.6288,9.6288,9.6288,9.6288,9.6288,9.6519,9.7326,9.748,9.7711,9.8634,9.8788,9.8788,9.8827,10.0212,10.1289,10.1289,10.0596,10.0096,10.0096,9.8596,9.7519,9.7519,9.7519,9.7173,9.6365,9.7019,9.7134,9.6365,9.5741,9.5407,9.5363,9.4855,9.4287,9.3798,9.3739,9.3513,9.2988,9.2988,9.2988,9.2988,9.2951,9.2951,0.0,0.0,8.1088,7.913,0.0,0.0,0.0,0.0,0.0,0.0,0.0,0.0,0.0,0.0,0.0,0.0,0.0,0.0,0.0,0.0,0.0,0.0,0.0,0.0,0.0,0.0,0.0,7.7256,7.8122,7.8823,0.0,8.4478,8.794,8.9094,9.1595,9.2903,9.2903,9.4287,9.4287,9.2903,9.3172,9.3441,9.3672,9.2556,9.2364,9.2903,9.2633,9.2633,9.2941,9.321,9.398,9.5018,9.5326,9.5788,9.6288,9.6288,9.6288,9.6288,9.6288,9.6288,9.6288,9.6288,9.6288,9.6288,9.6288,9.6288,9.6288,9.6288,9.6288,9.6288,9.6288,9.6288,9.6288,9.6288,9.6288,9.6519,9.7326,9.7519,9.7942,9.9365,9.9635,9.9827,10.0404,10.0904,10.1096,10.0596,10.0289,10.0096,10.0096,9.9058,9.8365,9.8365,9.8365,9.825,9.798,9.7673,9.7365,9.7096,9.6405,9.6051,9.6248,9.6112,9.5741,9.521,9.5461,9.551,9.5367,9.5033,9.4617,9.3928,9.3928,9.3602,8.3764,8.445,0.0,8.2114,7.9728,0.0,7.5703,0.0,0.0,0.0,0.0,0.0,0.0,0.0,0.0,0.0,0.0,0.0,0.0,6.7494,0.0,0.0,0.0,0.0,0.0,0.0,7.2311,7.2546,7.412,7.5245,0.0,0.0,8.6363,8.7825,9.1171,9.2941,9.2941,9.4287,9.4287,9.2941,9.3172,9.3403,9.3672,9.2556,9.2056,9.2056,9.2364,9.2479,9.2556,9.3133,9.4018,9.5018,9.5326,9.5826,9.6288,9.6288,9.6288,9.6288,9.6288,9.6288,9.6288,9.6288,9.6288,9.6288,9.6288,9.6288,9.6596,9.8134,9.748,9.6634,9.8134,9.7442,9.6288,9.6288,9.6519,9.6942,9.7788,9.8211,9.8827,10.0289,10.0481,10.0712,10.1212,10.1289,10.1096,10.0596,10.0289,10.0096,10.0096,9.9327,9.8788,9.8788,9.8788,9.8788,9.8788,9.775,9.7211,9.748,9.6749,9.652,9.6967,9.7006,9.7172,9.754,9.7196,9.7138,9.7438,9.6516,9.5532,9.4366,9.4366,9.4077]},{"header":{"parameterUnit":"m.s-1","parameterCategory":1,"la1":30.6,"la2":29.2853,"lo1":-89.7004,"lo2":-87.6739,"dy":0.0162,"dx":0.0183,"nx":112,"ny":82,"refTime":"2023-10-13T12:00:00:Z","depth":0,"parameterNumber":3,"parameterNumberName":"V-component_of_WINDS"},"data":[0.0,0.0,0.0,0.0,0.0,0.0,0.0,0.0,0.0,0.0,0.0,0.0,0.0,0.0,0.0,0.0,0.0,0.0,0.0,0.0,0.0,0.0,0.0,0.0,0.0,0.0,0.0,0.0,0.0,0.0,0.0,0.0,0.0,0.0,0.0,0.0,0.0,0.0,0.0,0.0,0.0,0.0,0.0,0.0,0.0,0.0,0.0,0.0,0.0,0.0,0.0,0.0,0.0,0.0,0.0,0.0,0.0,0.0,0.0,0.0,0.0,0.0,0.0,0.0,0.0,0.0,0.0,0.0,0.0,0.0,0.0,0.0,0.0,0.0,0.0,0.0,0.0,0.0,0.0,0.0,0.0,0.0,0.0,0.0,0.0,0.0,0.0,0.0,0.0,0.0,0.0,-1.8282,-1.9704,-2.0673,-2.0942,-2.0888,-2.007,-1.8239,0.0,0.0,0.0,0.0,0.0,0.0,0.0,0.0,0.0,0.0,0.0,0.0,0.0,0.0,0.0,0.0,0.0,0.0,0.0,0.0,0.0,0.0,0.0,0.0,0.0,0.0,0.0,0.0,0.0,0.0,0.0,0.0,0.0,0.0,0.0,0.0,0.0,0.0,0.0,0.0,0.0,0.0,0.0,0.0,0.0,0.0,0.0,0.0,0.0,0.0,0.0,0.0,0.0,0.0,0.0,0.0,0.0,0.0,0.0,0.0,0.0,0.0,0.0,0.0,0.0,0.0,0.0,0.0,0.0,0.0,0.0,0.0,0.0,0.0,0.0,0.0,0.0,0.0,0.0,0.0,0.0,0.0,0.0,0.0,0.0,0.0,0.0,0.0,0.0,0.0,0.0,0.0,0.0,0.0,0.0,0.0,0.0,0.0,0.0,0.0,0.0,0.0,0.0,0.0,-1.7669,-1.9682,-2.0296,-2.0737,-2.1179,-2.0845,-1.9973,-1.8476,0.0,0.0,0.0,0.0,0.0,0.0,0.0,0.0,0.0,0.0,0.0,0.0,0.0,0.0,0.0,0.0,0.0,0.0,0.0,0.0,0.0,0.0,0.0,0.0,0.0,0.0,0.0,0.0,0.0,0.0,0.0,0.0,0.0,0.0,0.0,0.0,0.0,0.0,0.0,0.0,0.0,0.0,0.0,0.0,0.0,0.0,0.0,0.0,0.0,0.0,0.0,0.0,0.0,0.0,0.0,0.0,0.0,0.0,0.0,0.0,0.0,0.0,0.0,0.0,0.0,0.0,0.0,0.0,0.0,0.0,0.0,0.0,0.0,0.0,0.0,0.0,0.0,0.0,0.0,0.0,0.0,0.0,0.0,0.0,0.0,0.0,0.0,0.0,0.0,0.0,0.0,0.0,0.0,0.0,0.0,0.0,0.0,0.0,0.0,0.0,0.0,0.0,0.0,-1.7608,-1.8885,-2.0253,-2.0608,-2.0888,-2.1243,-2.0727,-1.9822,-1.8519,-1.797,0.0,0.0,0.0,0.0,0.0,0.0,0.0,0.0,0.0,0.0,0.0,0.0,0.0,0.0,0.0,0.0,0.0,0.0,0.0,0.0,0.0,0.0,0.0,0.0,0.0,0.0,0.0,0.0,0.0,0.0,0.0,0.0,0.0,0.0,0.0,0.0,0.0,0.0,0.0,0.0,0.0,0.0,0.0,0.0,0.0,0.0,0.0,0.0,0.0,0.0,0.0,0.0,0.0,0.0,0.0,0.0,0.0,0.0,0.0,0.0,0.0,0.0,0.0,0.0,0.0,0.0,0.0,0.0,0.0,0.0,0.0,0.0,0.0,0.0,0.0,0.0,0.0,0.0,0.0,0.0,0.0,0.0,0.0,0.0,0.0,0.0,0.0,0.0,0.0,0.0,0.0,0.0,0.0,0.0,0.0,0.0,0.0,0.0,0.0,0.0,0.0,0.0,-1.8639,-1.9585,-2.0468,-2.077,-2.1007,-2.1254,-2.063,-1.9704,-1.8509,-1.7766,0.0,0.0,0.0,0.0,0.0,0.0,0.0,0.0,0.0,0.0,0.0,0.0,0.0,0.0,0.0,0.0,0.0,0.0,0.0,0.0,0.0,0.0,0.0,0.0,0.0,0.0,0.0,0.0,0.0,0.0,0.0,0.0,0.0,0.0,0.0,0.0,0.0,0.0,0.0,0.0,0.0,0.0,0.0,0.0,0.0,0.0,0.0,0.0,0.0,0.0,0.0,0.0,0.0,0.0,0.0,0.0,0.0,0.0,0.0,0.0,0.0,0.0,0.0,0.0,0.0,0.0,0.0,0.0,0.0,0.0,0.0,0.0,0.0,0.0,0.0,0.0,0.0,0.0,0.0,0.0,0.0,0.0,0.0,0.0,0.0,0.0,0.0,0.0,0.0,0.0,0.0,0.0,0.0,0.0,0.0,0.0,0.0,0.0,0.0,0.0,0.0,0.0,-1.8175,-1.9036,-2.0414,-2.077,-2.1007,-2.1254,-2.063,-1.9704,-1.8509,-1.7766,0.0,0.0,0.0,0.0,0.0,0.0,0.0,0.0,0.0,0.0,0.0,0.0,0.0,0.0,0.0,0.0,0.0,0.0,0.0,0.0,0.0,0.0,0.0,0.0,0.0,0.0,0.0,0.0,0.0,0.0,0.0,0.0,0.0,0.0,0.0,0.0,0.0,0.0,0.0,0.0,0.0,0.0,0.0,0.0,0.0,0.0,0.0,0.0,0.0,0.0,0.0,0.0,0.0,0.0,0.0,0.0,0.0,0.0,0.0,0.0,0.0,0.0,0.0,0.0,0.0,0.0,0.0,0.0,0.0,0.0,0.0,0.0,0.0,0.0,0.0,0.0,0.0,0.0,0.0,0.0,0.0,0.0,0.0,0.0,0.0,0.0,0.0,0.0,0.0,0.0,0.0,0.0,0.0,0.0,0.0,0.0,0.0,0.0,0.0,0.0,0.0,0.0,-1.8704,-1.9639,0.0,-2.091,-2.1179,-2.1265,-2.063,-1.9639,-1.8293,0.0,0.0,0.0,0.0,0.0,0.0,0.0,0.0,0.0,0.0,0.0,0.0,0.0,0.0,0.0,0.0,0.0,0.0,0.0,0.0,0.0,0.0,0.0,0.0,0.0,0.0,0.0,0.0,0.0,0.0,0.0,0.0,0.0,0.0,0.0,0.0,0.0,0.0,0.0,0.0,0.0,0.0,0.0,0.0,0.0,0.0,0.0,0.0,0.0,0.0,0.0,0.0,0.0,0.0,0.0,0.0,0.0,0.0,0.0,0.0,0.0,0.0,0.0,0.0,0.0,0.0,0.0,0.0,0.0,0.0,0.0,0.0,0.0,0.0,0.0,0.0,0.0,0.0,0.0,0.0,0.0,0.0,0.0,0.0,0.0,0.0,0.0,0.0,0.0,0.0,0.0,0.0,0.0,0.0,0.0,0.0,0.0,0.0,0.0,0.0,0.0,0.0,-1.7577,-1.9029,-2.0113,0.0,-2.092,-2.119,-2.1276,-2.049,-1.9445,-1.8153,0.0,0.0,0.0,0.0,0.0,0.0,0.0,0.0,0.0,0.0,0.0,0.0,0.0,0.0,0.0,0.0,0.0,0.0,0.0,0.0,0.0,0.0,0.0,0.0,0.0,0.0,0.0,0.0,0.0,0.0,0.0,0.0,0.0,0.0,0.0,0.0,0.0,0.0,0.0,0.0,0.0,0.0,0.0,0.0,0.0,0.0,0.0,0.0,0.0,0.0,0.0,0.0,0.0,0.0,0.0,0.0,0.0,0.0,0.0,0.0,0.0,0.0,0.0,0.0,0.0,0.0,0.0,0.0,0.0,0.0,0.0,0.0,0.0,0.0,0.0,0.0,0.0,0.0,0.0,0.0,0.0,0.0,0.0,0.0,0.0,0.0,0.0,0.0,0.0,0.0,0.0,0.0,0.0,0.0,0.0,0.0,0.0,0.0,0.0,0.0,0.0,0.0,-1.7346,-1.9036,-2.0296,-2.0533,-2.077,-2.0996,-2.1243,-2.0177,-1.9101,0.0,0.0,0.0,0.0,0.0,0.0,0.0,0.0,0.0,0.0,0.0,0.0,0.0,0.0,0.0,0.0,0.0,0.0,0.0,0.0,0.0,0.0,0.0,0.0,0.0,0.0,0.0,0.0,0.0,0.0,0.0,0.0,0.0,0.0,0.0,0.0,0.0,0.0,0.0,0.0,0.0,0.0,0.0,0.0,0.0,0.0,0.0,0.0,0.0,0.0,0.0,0.0,0.0,0.0,0.0,0.0,0.0,0.0,0.0,0.0,0.0,0.0,0.0,0.0,0.0,0.0,0.0,0.0,0.0,0.0,0.0,0.0,0.0,0.0,0.0,0.0,0.0,0.0,0.0,0.0,0.0,0.0,0.0,0.0,0.0,0.0,0.0,0.0,0.0,0.0,0.0,0.0,0.0,0.0,0.0,0.0,0.0,0.0,0.0,0.0,0.0,0.0,0.0,0.0,-1.8885,-2.0048,-2.0285,-2.0522,-2.0787,-2.1001,-2.0201,-1.9203,-1.784,0.0,0.0,0.0,0.0,0.0,0.0,0.0,0.0,0.0,0.0,0.0,0.0,0.0,0.0,0.0,0.0,0.0,0.0,0.0,0.0,0.0,0.0,0.0,0.0,0.0,0.0,0.0,0.0,0.0,0.0,0.0,0.0,0.0,0.0,0.0,0.0,0.0,0.0,0.0,0.0,0.0,0.0,0.0,0.0,0.0,0.0,0.0,0.0,0.0,0.0,0.0,0.0,0.0,0.0,0.0,0.0,0.0,0.0,0.0,0.0,0.0,0.0,0.0,0.0,0.0,0.0,0.0,0.0,0.0,0.0,0.0,0.0,0.0,0.0,0.0,0.0,0.0,0.0,0.0,0.0,0.0,0.0,0.0,0.0,0.0,0.0,0.0,0.0,0.0,0.0,0.0,0.0,0.0,0.0,0.0,0.0,0.0,0.0,0.0,0.0,0.0,0.0,-1.7184,-1.8767,-1.9973,-2.0317,-2.0393,-2.0591,-2.079,-2.0309,-1.9391,-1.8206,0.0,0.0,0.0,0.0,0.0,0.0,0.0,0.0,0.0,0.0,0.0,0.0,0.0,0.0,0.0,0.0,0.0,0.0,0.0,0.0,0.0,0.0,0.0,0.0,0.0,0.0,0.0,0.0,0.0,0.0,0.0,0.0,0.0,0.0,0.0,0.0,0.0,0.0,0.0,0.0,0.0,0.0,0.0,0.0,0.0,0.0,0.0,0.0,0.0,0.0,0.0,0.0,0.0,0.0,0.0,0.0,0.0,0.0,0.0,0.0,0.0,0.0,0.0,0.0,0.0,0.0,0.0,0.0,0.0,0.0,0.0,0.0,0.0,0.0,0.0,0.0,0.0,0.0,0.0,0.0,0.0,0.0,0.0,0.0,0.0,0.0,0.0,0.0,0.0,0.0,0.0,0.0,0.0,0.0,0.0,0.0,0.0,0.0,0.0,0.0,0.0,0.0,-1.698,-1.8801,-2.0147,-2.0602,-2.0461,-2.0505,-2.0928,-2.0439,-1.9882,-1.9145,0.0,0.0,0.0,0.0,0.0,0.0,0.0,0.0,0.0,0.0,0.0,0.0,0.0,0.0,0.0,0.0,0.0,0.0,0.0,0.0,0.0,0.0,0.0,0.0,0.0,0.0,0.0,0.0,0.0,0.0,0.0,0.0,0.0,0.0,0.0,0.0,0.0,0.0,0.0,0.0,0.0,0.0,0.0,0.0,0.0,0.0,0.0,0.0,0.0,0.0,0.0,0.0,0.0,0.0,0.0,0.0,0.0,0.0,0.0,0.0,-1.8552,0.0,0.0,0.0,0.0,0.0,0.0,0.0,0.0,0.0,0.0,0.0,0.0,0.0,0.0,0.0,0.0,0.0,0.0,0.0,0.0,0.0,0.0,0.0,0.0,0.0,0.0,0.0,0.0,0.0,0.0,0.0,0.0,0.0,0.0,0.0,0.0,0.0,0.0,0.0,0.0,0.0,-1.7238,-1.9193,-2.0568,-2.0569,-2.072,-2.1034,-2.144,-2.074,-2.0055,-1.9714,0.0,0.0,0.0,0.0,0.0,0.0,0.0,0.0,0.0,0.0,0.0,0.0,0.0,0.0,0.0,0.0,0.0,0.0,0.0,0.0,0.0,0.0,0.0,0.0,0.0,0.0,0.0,0.0,0.0,0.0,0.0,0.0,0.0,0.0,0.0,0.0,0.0,0.0,0.0,0.0,0.0,0.0,0.0,0.0,0.0,0.0,0.0,0.0,0.0,0.0,0.0,0.0,0.0,0.0,0.0,0.0,0.0,0.0,0.0,0.0,0.0,-1.8766,0.0,0.0,0.0,0.0,0.0,0.0,0.0,0.0,0.0,0.0,0.0,0.0,0.0,0.0,0.0,0.0,0.0,0.0,0.0,0.0,0.0,0.0,0.0,0.0,0.0,0.0,0.0,0.0,0.0,0.0,0.0,0.0,0.0,0.0,0.0,0.0,0.0,0.0,0.0,0.0,-1.7402,-1.9104,-2.0568,-2.0746,-2.1007,-2.1136,-2.1708,-2.136,-2.1009,-2.0509,-1.9609,0.0,0.0,0.0,0.0,0.0,0.0,0.0,0.0,0.0,0.0,0.0,0.0,0.0,0.0,0.0,0.0,0.0,0.0,0.0,0.0,0.0,0.0,0.0,0.0,0.0,0.0,0.0,0.0,0.0,0.0,0.0,0.0,0.0,0.0,0.0,0.0,0.0,0.0,0.0,0.0,0.0,0.0,0.0,0.0,0.0,0.0,0.0,0.0,0.0,0.0,0.0,0.0,0.0,0.0,-1.96,-2.0704,-2.0005,-2.018,-2.0732,-1.9935,-1.9762,-2.0086,0.0,0.0,0.0,0.0,0.0,0.0,0.0,0.0,0.0,0.0,0.0,0.0,0.0,0.0,0.0,0.0,0.0,0.0,0.0,0.0,0.0,0.0,0.0,0.0,0.0,-1.9189,-1.9016,0.0,0.0,0.0,0.0,0.0,0.0,0.0,0.0,0.0,0.0,0.0,0.0,-1.7455,-1.9116,-2.0553,-2.1201,-2.1134,-2.1288,-2.2004,-2.2023,-2.1813,-2.1437,-2.0615,-1.9906,0.0,0.0,0.0,0.0,0.0,0.0,0.0,0.0,0.0,0.0,0.0,0.0,0.0,0.0,0.0,0.0,0.0,0.0,0.0,0.0,0.0,0.0,0.0,0.0,0.0,0.0,0.0,0.0,0.0,0.0,0.0,0.0,-1.7723,-1.8272,0.0,0.0,0.0,0.0,0.0,0.0,0.0,0.0,0.0,0.0,0.0,0.0,0.0,0.0,-1.9769,-2.0203,-2.0466,-2.0569,-2.0581,-2.1233,-2.2047,-2.1498,-2.1383,-2.1801,-2.1149,0.0,-2.0157,-2.072,0.0,0.0,0.0,0.0,0.0,0.0,0.0,0.0,0.0,0.0,0.0,0.0,0.0,0.0,0.0,0.0,0.0,0.0,0.0,0.0,0.0,0.0,-2.0763,-2.1,-2.066,-2.0238,0.0,-1.8823,-1.7474,-1.8102,0.0,0.0,0.0,0.0,0.0,0.0,0.0,0.0,-1.8084,-1.9768,-2.0978,-2.1448,-2.1642,-2.2015,-2.3055,-2.2271,-2.1778,-2.193,-2.1483,-2.085,-1.971,-2.0352,0.0,0.0,0.0,0.0,0.0,0.0,0.0,0.0,0.0,0.0,0.0,0.0,0.0,0.0,0.0,0.0,0.0,0.0,0.0,0.0,0.0,0.0,0.0,0.0,0.0,0.0,0.0,0.0,0.0,-1.797,-1.8132,-1.8573,-1.8541,-1.8433,0.0,0.0,0.0,0.0,0.0,0.0,0.0,0.0,0.0,-1.9548,-2.0252,-2.0763,-2.0911,-2.1569,-2.1974,-2.2252,-2.2229,-2.2788,-2.3603,-2.2863,-2.2747,-2.2894,-2.2673,-2.2001,-2.1082,-2.1136,-2.1174,-2.1077,0.0,0.0,0.0,0.0,0.0,-1.9811,-1.9433,0.0,0.0,0.0,0.0,0.0,0.0,0.0,0.0,0.0,0.0,0.0,0.0,0.0,0.0,-2.1482,-2.1325,-2.1242,-2.1314,-2.0415,-1.9358,0.0,-1.8392,-1.7702,-1.7644,0.0,0.0,0.0,0.0,0.0,-1.9093,-2.0512,-2.1719,-2.1802,-2.1939,-2.2368,-2.2969,-2.2506,-2.2082,-2.1742,-2.159,-2.1254,-2.0329,-2.053,-2.011,0.0,0.0,0.0,0.0,0.0,0.0,0.0,0.0,0.0,0.0,0.0,0.0,0.0,0.0,0.0,0.0,0.0,0.0,0.0,0.0,0.0,0.0,0.0,0.0,0.0,0.0,0.0,0.0,-1.8455,-1.8638,-1.8928,-1.9133,-1.9122,0.0,0.0,0.0,0.0,0.0,0.0,-1.9435,-2.0025,-2.0545,-2.0658,-2.1363,-2.2004,-2.2061,-2.26,-2.3143,-2.3353,-2.333,-2.3634,-2.4223,-2.3798,-2.3552,-2.361,-2.3841,-2.3336,-2.2257,-2.1715,-2.1762,-2.19,-2.1305,-2.0924,-2.0674,-2.0543,-2.0447,-2.0364,-2.0102,-2.0343,-2.0589,-2.0356,0.0,-1.9866,-1.9611,0.0,0.0,0.0,0.0,-2.0129,-2.136,0.0,-2.1082,-2.1835,-2.1884,-2.1742,-2.1834,-2.1388,-2.0852,0.0,-1.9679,-1.9014,-1.8699,0.0,0.0,0.0,0.0,-1.9912,-1.9753,-2.0866,-2.182,-2.1873,-2.2032,-2.2111,-2.2758,-2.27,-2.2345,-2.1488,-2.1638,-2.1522,-2.0728,-2.0557,-2.0186,-1.9702,0.0,0.0,0.0,0.0,0.0,0.0,0.0,0.0,0.0,0.0,0.0,0.0,0.0,0.0,0.0,0.0,0.0,0.0,0.0,0.0,0.0,0.0,0.0,0.0,0.0,0.0,0.0,0.0,0.0,-1.9402,-2.0059,0.0,0.0,0.0,0.0,-2.0014,-2.0247,-2.0642,-2.1345,-2.1825,-2.2305,-2.2784,-2.2841,-2.2979,-2.323,-2.3241,-2.3098,-2.2632,-2.3109,-2.3245,-2.3157,-2.3234,-2.3591,-2.3641,-2.3878,-2.3915,-2.3821,-2.3034,-2.1986,-2.106,-2.1014,-2.0854,-2.0569,-2.0089,-2.0192,-2.0704,-2.0318,-2.0569,-2.1153,-2.1429,-2.1364,-2.0847,-1.9833,-1.9602,0.0,0.0,-2.0462,-2.0531,-2.1977,-2.2138,-2.2153,-2.2505,-2.2353,-2.2118,-2.2319,-2.1531,-2.1148,0.0,-2.1329,-2.0678,-2.0907,0.0,-1.9987,-1.9311,-1.9472,-1.9515,-1.9337,-2.0124,-2.0867,-2.119,-2.1304,-2.1739,-2.2545,-2.2328,-2.2021,-2.1659,-2.1831,-2.1719,-2.0791,-2.0762,-2.0626,-2.058,-1.9819,0.0,0.0,0.0,0.0,0.0,0.0,0.0,0.0,0.0,0.0,0.0,0.0,0.0,0.0,0.0,0.0,0.0,0.0,0.0,0.0,0.0,0.0,0.0,0.0,0.0,0.0,0.0,0.0,-2.0307,-2.077,0.0,0.0,-2.0544,-2.0624,-2.1257,-2.1173,-2.1574,-2.2301,-2.2493,-2.2576,-2.2911,-2.3257,-2.355,-2.3801,-2.3789,-2.3789,-2.3971,-2.4129,-2.4345,-2.4608,-2.4684,-2.4263,-2.3698,-2.4275,-2.3775,-2.2777,-2.3013,-2.2878,-2.2322,-2.2159,-2.1785,-2.1357,-2.1014,-2.1003,-2.1117,-2.0877,-2.0911,-2.1071,-2.1222,-2.1175,-2.1032,-2.067,-2.0538,-2.0735,-2.1137,-2.1186,-2.1256,-2.1754,-2.1789,-2.1742,-2.1895,-2.1615,-2.1476,-2.1534,-2.1221,-2.114,-2.1475,-2.1085,-2.0769,-2.0577,-2.0729,-2.0682,-1.9968,-2.0347,-2.0535,-2.048,-2.1067,-2.1458,-2.1623,-2.1651,-2.1761,-2.2084,-2.2009,-2.1637,-2.1009,-2.1156,-2.1063,-2.0288,-2.0263,-2.0247,-2.0376,-1.9949,-1.945,0.0,0.0,0.0,0.0,0.0,0.0,0.0,0.0,0.0,0.0,0.0,0.0,0.0,0.0,0.0,0.0,0.0,0.0,0.0,0.0,0.0,0.0,0.0,0.0,0.0,0.0,-2.0231,-2.0942,-2.1459,-2.1717,-2.1642,-2.1556,-2.1741,-2.2399,-2.2299,-2.2664,-2.3168,-2.319,-2.3302,-2.3376,-2.3641,-2.372,-2.3794,-2.3877,-2.4016,-2.4189,-2.4441,-2.4407,-2.4578,-2.4749,-2.4391,-2.3584,-2.4426,-2.3936,-2.281,-2.339,-2.3349,-2.2947,-2.2602,-2.2156,-2.1424,-2.119,-2.1044,-2.0944,-2.0698,-2.0759,-2.0921,-2.1012,-2.1034,-2.1185,-2.1185,-2.1185,-2.122,-2.1391,-2.1368,-2.1216,-2.1608,-2.1494,-2.1159,-2.1311,-2.1185,-2.091,-2.106,-2.0785,-2.0705,-2.0876,-2.0934,-2.0939,-2.0619,-2.0727,-2.0808,-2.0382,-2.0612,-2.0831,-2.0635,-2.1209,-2.1491,-2.1353,-2.1618,-2.1761,-2.1761,-2.1534,-2.1301,-2.0673,-2.0769,-2.0491,-1.9962,-1.9661,-1.9604,-1.9823,-1.9492,-1.9194,-1.8557,0.0,0.0,0.0,0.0,0.0,0.0,0.0,0.0,0.0,0.0,0.0,0.0,0.0,0.0,0.0,0.0,0.0,0.0,0.0,0.0,0.0,0.0,0.0,-1.8853,-2.0048,-2.1028,-2.1297,-2.2148,-2.2622,-2.2385,-2.2568,-2.288,-2.3226,-2.3609,-2.3928,-2.43,-2.444,-2.4181,-2.4086,-2.3842,-2.3655,-2.3375,-2.3501,-2.3392,-2.3063,-2.3682,-2.3559,-2.2697,-2.3731,-2.3812,-2.3378,-2.4187,-2.4456,-2.4009,-2.4256,-2.3706,-2.2588,-2.2111,-2.1457,-2.0888,-2.0662,-2.0425,-2.0177,-1.9919,-2.0135,-2.048,-2.0735,-2.1119,-2.1414,-2.1414,-2.1414,-2.1414,-2.1425,-2.0939,-2.0653,-2.1204,-2.0928,-2.0597,-2.091,-2.0759,-2.0597,-2.091,-2.0388,-1.9881,-2.0347,-2.0759,-2.1072,-2.0857,-2.0908,-2.0826,-2.0591,-2.0556,0.0,-1.9748,-2.0402,-2.0693,-2.0253,-2.0856,-2.1265,-2.1286,-2.1402,-2.1167,-2.0867,-2.0553,-2.0217,-2.0177,-1.9305,-1.8928,-1.9165,-1.8517,-1.8429,-1.8833,0.0,0.0,0.0,0.0,0.0,0.0,0.0,0.0,0.0,0.0,0.0,0.0,0.0,0.0,0.0,0.0,0.0,0.0,0.0,0.0,0.0,0.0,-2.0317,-2.0317,-2.0953,-2.1706,-2.2471,-2.3294,-2.3534,-2.3106,-2.3512,-2.3798,-2.4152,-2.3709,-2.3731,-2.4442,-2.3589,-2.3151,-2.3054,-2.2989,-2.2989,-2.288,-2.3336,-2.3654,-2.3831,-2.3942,-2.3984,-2.3979,-2.4153,-2.3982,-2.3358,-2.3664,-2.347,-2.2972,-2.3034,-2.271,-2.2266,-2.2628,-2.2033,-2.1147,-2.1217,-2.0867,-2.0134,-1.9542,-1.9713,-2.0005,-2.0071,-2.0244,-2.0244,-2.0244,-2.0244,-2.0244,-2.0406,-2.02,-2.0167,-2.0233,-2.02,-2.0145,-2.0145,-2.0145,-2.0145,-2.0156,-2.0047,-1.9843,-1.9973,-2.0298,-2.0375,-2.0395,-2.0373,-2.0406,-2.0516,-2.0527,0.0,-2.0548,-2.0743,-2.1004,-2.12,-2.0953,-2.0963,-2.148,-2.0711,-2.0452,0.0,-2.0331,-2.0036,-1.9941,-1.9693,-1.9585,-1.9661,-1.902,-1.8894,0.0,0.0,0.0,0.0,0.0,0.0,0.0,0.0,0.0,0.0,0.0,0.0,0.0,0.0,0.0,0.0,0.0,0.0,0.0,0.0,0.0,0.0,-2.0797,-2.1818,-2.2222,-2.2528,-2.2987,-2.3753,-2.4151,-2.4272,-2.3838,-2.3933,-2.4113,-2.4255,-2.3954,-2.3944,-2.4255,-2.3586,-2.3085,-2.2988,-2.3074,-2.3085,-2.2988,-2.3354,-2.3727,-2.3906,-2.3796,-2.3853,-2.4062,-2.4062,-2.3642,0.0,-2.3431,-2.3181,-2.2714,-2.2708,-2.2463,0.0,0.0,0.0,0.0,0.0,-2.0689,-2.0145,-1.9618,-1.9618,-1.9865,-1.9973,-2.0005,-2.0005,-2.0005,-1.993,-1.9822,-1.9725,-1.9628,-1.9575,-1.9671,-1.9704,-1.9725,-1.9822,-1.9844,-1.9844,-1.9844,-1.9693,-1.9639,-1.9941,0.0,0.0,-2.0436,-2.0418,-2.0386,-2.0572,-2.0572,-2.066,0.0,-2.0797,-2.1058,-2.1276,-2.1125,-2.1211,-2.1728,-2.0841,0.0,0.0,0.0,-1.955,-1.9402,-1.9499,0.0,0.0,0.0,-1.8677,0.0,0.0,0.0,0.0,-1.7697,-1.7714,0.0,0.0,0.0,0.0,0.0,0.0,0.0,0.0,0.0,0.0,0.0,0.0,0.0,0.0,0.0,0.0,-2.2025,-2.3154,-2.403,-2.4252,-2.4441,-2.4785,-2.4873,-2.48,-2.4441,-2.4301,-2.4194,-2.4194,-2.4194,-2.4194,-2.4194,0.0,0.0,0.0,0.0,-2.3666,-2.3397,-2.3688,-2.3817,-2.3784,-2.358,-2.3461,-2.344,-2.344,-2.3249,-2.2983,-2.3413,-2.3215,-2.2631,-2.2807,-2.2681,-2.2223,-2.1894,-2.1632,-2.1416,-2.0716,-2.0425,0.0,0.0,0.0,0.0,-2.0113,-2.0177,-2.0177,-2.0177,-2.0037,-1.9844,-1.9639,-1.9445,-1.9359,-1.9564,-1.9596,-1.9639,-1.9876,-1.9908,-1.9898,-1.9919,-1.9607,-1.9499,-2.0134,-1.993,-1.9919,-2.0759,-2.0703,-2.0524,-2.0635,-2.0773,0.0,-2.0635,-2.1057,-2.1276,-2.1199,0.0,0.0,-2.1976,-2.126,-2.0867,-2.12,-2.0124,-1.9282,-1.8982,-1.9165,-1.9116,-1.8754,-1.8501,-1.849,-1.8699,-1.8666,-1.8867,-1.9198,-1.8638,-1.8609,0.0,0.0,0.0,0.0,0.0,0.0,0.0,0.0,0.0,0.0,0.0,0.0,0.0,0.0,0.0,-2.2222,-2.2998,-2.4007,-2.4912,-2.5258,-2.5384,-2.4885,-2.5173,-2.5175,-2.4474,-2.4966,-2.5042,-2.4667,-2.4667,-2.4667,-2.4667,-2.4269,0.0,-2.3688,-2.3914,-2.3838,-2.3397,-2.4011,-2.4226,-2.4043,0.0,0.0,-2.3677,-2.3677,-2.3504,-2.3369,-2.3466,-2.3314,-2.2826,-2.2848,-2.2555,-2.2008,-2.1674,-2.1883,-2.1937,-2.0754,-2.049,-2.0651,-1.9844,-1.9822,-2.0113,-1.9973,-1.9919,-1.9919,-1.9919,-2.0027,0.0,-2.0091,-2.0177,-2.0296,-2.0339,-2.0221,-2.0134,-2.0371,-2.0285,-2.0199,-2.0382,-2.0659,-2.0792,-2.0624,-2.0878,-2.1166,-2.0867,-2.0791,-2.0917,-2.1069,-2.1574,-2.2039,-2.1922,-2.2178,-2.2444,-2.2532,-2.1796,-2.1523,-2.1954,-2.1243,-2.0823,-2.0963,-2.0656,-2.0374,-2.0221,-2.0081,-1.9941,-1.9951,-1.9713,-1.9604,-1.9658,-1.9463,-1.9539,-1.9693,-1.9235,-1.8997,0.0,0.0,0.0,0.0,0.0,0.0,0.0,0.0,0.0,0.0,0.0,-2.0314,0.0,0.0,-2.219,-2.2911,-2.3731,-2.4547,-2.5168,-2.5727,-2.575,-2.5251,-2.5517,-2.5505,-2.4829,-2.4996,-2.4996,-2.4807,-2.4807,-2.4807,-2.4807,-2.4581,-2.4301,-2.3946,-2.4161,-2.4054,-2.358,-2.4043,-2.4226,-2.4118,-2.4118,-2.4054,-2.3935,-2.3935,-2.3795,-2.3569,-2.3569,-2.344,-2.3203,-2.2966,-2.2654,-2.2299,-2.2072,-2.2002,-2.1862,-2.0823,-2.0705,-2.0823,-2.0231,-2.0188,-2.0371,-2.0242,-2.021,-2.021,-2.021,-2.021,-2.021,-2.021,-2.021,-2.0231,-2.0361,-2.0307,-2.0274,-2.0511,-2.0468,-2.0425,-2.0533,-2.0722,-2.0911,-2.0716,-2.1249,-2.1767,-2.1566,-2.1849,-2.2089,-2.1774,-2.2464,-2.2785,-2.2785,-2.2898,-2.3067,-2.2987,-2.2521,-2.2121,-2.2309,-2.19,-2.147,-2.1114,-2.0985,-2.0867,-2.0737,-2.0511,-2.0339,-2.0221,-1.9973,-1.979,-1.9671,-1.9553,-1.9564,-1.9671,-1.9553,-1.937,0.0,0.0,0.0,0.0,0.0,0.0,0.0,0.0,-2.0786,-2.1562,-2.1525,-2.1567,-2.252,-2.2561,-2.2935,-2.3607,-2.4288,-2.4921,-2.5506,-2.5626,-2.5747,-2.5538,-2.5681,-2.5611,-2.5238,-2.5066,-2.4958,-2.5012,-2.5012,-2.499,-2.4947,-2.498,-2.4797,-2.4334,-2.4506,-2.4366,-2.3892,-2.4086,-2.4161,-2.4118,-2.4118,-2.4118,-2.4118,-2.4118,-2.4011,-2.3817,-2.3763,-2.3644,-2.344,-2.3171,-2.2934,-2.2729,-2.2449,-2.2072,-2.1642,-2.12,-2.1017,-2.0942,-2.0705,-2.063,-2.0619,-2.0576,-2.0565,-2.0565,-2.0565,-2.0468,-2.035,-2.035,-2.0242,-2.0167,-2.0371,-2.0382,-2.0404,-2.064,-2.0662,-2.064,-2.0694,-2.0863,-2.0928,-2.1155,-2.1695,-2.2229,-2.2475,-2.3053,-2.3298,-2.2553,-2.3053,-2.3545,-2.3545,-2.3591,-2.3538,-2.3235,-2.3087,-2.2994,-2.2665,-2.2428,-2.204,-2.1523,-2.1437,-2.1297,-2.105,-2.0823,-2.0587,-2.035,-2.007,-1.9822,-1.9639,-1.9596,-1.9564,-1.9575,-1.9758,-1.9596,-1.9935,-1.9148,-1.8921,-2.0507,-2.0814,-2.082,0.0,0.0,-2.2408,-2.2307,-2.2632,-2.3121,-2.3232,-2.3653,-2.3974,-2.4481,-2.478,-2.4931,-2.5362,-2.5578,-2.5475,-2.5443,-2.5464,-2.5475,-2.5475,-2.5453,-2.5529,-2.5733,-2.5744,-2.5658,-2.5453,-2.5636,-2.5539,-2.5076,-2.5087,-2.4872,-2.4387,-2.4409,-2.4323,-2.4118,-2.4118,-2.4118,-2.4118,-2.4118,-2.4097,-2.4064,-2.3838,-2.3731,-2.3677,-2.3235,-2.3031,-2.2966,-2.2514,-2.218,-2.1922,-2.1642,-2.1416,-2.12,-2.0953,-2.0867,-2.0834,-2.063,-2.0565,-2.0565,-2.0565,-2.0684,-2.0823,-2.0823,-2.0963,-2.1125,-2.1147,-2.0996,-2.0888,-2.1136,-2.1028,-2.0931,-2.1147,-2.1523,-2.1911,-2.2144,-2.2549,-2.2967,-2.3218,-2.3816,-2.4065,-2.3298,-2.3828,-2.4327,-2.4327,-2.4526,-2.4326,-2.4018,-2.3675,-2.317,-2.2675,-2.2288,-2.2083,-2.2212,-2.2008,-2.1782,-2.1545,-2.1319,-2.1082,-2.0834,-2.0393,-2.0156,-2.0134,-1.9919,-1.9811,-1.9811,-1.9833,-1.9596,-2.0403,-2.045,0.0,0.0,-2.1965,-2.2681,-2.2933,-2.3132,-2.3281,-2.379,-2.376,-2.393,-2.4363,-2.4316,-2.4193,0.0,-2.4953,-2.4904,-2.5376,-2.5582,-2.5475,-2.5335,-2.5195,-2.5216,-2.5496,-2.5636,-2.5701,-2.5669,-2.5927,-2.5981,-2.5733,-2.5819,-2.5658,-2.5195,-2.5033,-2.4797,-2.4463,-2.4334,-2.4215,-2.4118,-2.4118,-2.4118,-2.4118,-2.4118,-2.4118,-2.4107,-2.4,-2.3881,-2.372,-2.3386,-2.3171,-2.302,-2.2675,-2.2395,-2.2148,-2.176,-2.147,-2.1265,-2.1157,-2.1125,-2.1103,-2.1007,-2.1134,-2.1293,-2.1134,-2.1359,-2.1756,-2.1286,-2.1351,-2.1599,-2.1599,-2.1523,-2.1662,-2.224,-2.1945,-2.1706,-2.2419,-2.1959,-2.1871,-2.274,-2.315,-2.3396,-2.3828,-2.4589,-2.472,-2.4263,-2.4684,-2.4937,-2.4597,-2.4679,-2.4407,-2.372,-2.3204,-2.2859,-2.2686,-2.2503,-2.2439,-2.2535,-2.2309,-2.2137,-2.204,-2.1803,-2.1502,-2.1125,-2.0791,-2.0479,-2.021,-1.9973,-1.9844,-1.9844,-1.9844,-1.9671,-2.0352,0.0,0.0,-2.1631,-2.2751,-2.3862,-2.3744,-2.3765,-2.4035,-2.4822,-2.4463,-2.4481,-2.5206,-2.4736,0.0,-2.5076,-2.4969,-2.4947,-2.5367,-2.5421,-2.5313,-2.5012,-2.4764,-2.4721,-2.5001,-2.5356,-2.5615,-2.5712,-2.597,-2.6056,-2.5873,-2.5862,-2.5679,-2.5281,-2.5033,-2.4797,-2.456,-2.4323,-2.4183,-2.4118,-2.4118,-2.4118,-2.4118,-2.4118,-2.4118,-2.4118,-2.4118,-2.4011,-2.3828,-2.3591,-2.3354,-2.3128,-2.2955,-2.2697,-2.2395,-2.2116,-2.1739,-2.1362,-2.1297,-2.1276,-2.1286,-2.1351,-2.1492,-2.1772,-2.1513,-2.1816,-2.2095,-2.1676,-2.186,-2.2011,-2.2184,-2.2184,-2.2391,-2.2887,-2.2633,-2.2459,-2.3207,-2.2531,-2.2244,-2.3499,-2.3746,-2.3828,-2.4432,-2.4973,-2.5263,-2.4749,-2.5092,-2.5263,-2.4749,-2.4749,-2.4407,-2.3892,-2.3376,-2.3031,-2.2859,-2.2859,-2.2859,-2.2686,-2.2525,-2.2406,-2.2342,-2.2159,-2.1846,-2.1383,-2.106,-2.0705,-2.0307,-1.9994,-1.9844,-1.9844,-1.9844,-1.9725,0.0,0.0,-2.0535,-2.1987,-2.2939,-2.3699,-2.3908,-2.4441,-2.4862,-2.5118,-2.4977,-2.4953,-2.5351,-2.4977,-2.4613,-2.5098,-2.4969,-2.4893,-2.5152,-2.5184,-2.5012,-2.4538,-2.428,-2.4043,0.0,-2.443,-2.5216,-2.6142,-2.6002,-2.5873,-2.5862,-2.5862,-2.5755,-2.5518,-2.5281,-2.5044,-2.4797,-2.457,-2.4334,-2.4118,-2.4118,-2.4118,-2.4118,-2.4118,-2.4118,-2.4118,-2.4118,-2.4107,-2.4086,-2.3838,-2.3601,-2.3386,-2.3375,-2.3085,-2.2697,-2.2923,-2.2417,-2.1577,-2.1351,-2.1276,-2.1319,-2.1534,-2.1459,-2.1319,-2.1545,-2.1448,-2.1492,-2.2036,-2.2266,-2.243,-2.2921,-2.2921,-2.2921,-2.2933,-2.2933,-2.3001,-2.3419,-2.3298,-2.3534,-2.4303,-2.4362,-2.4444,-2.4691,-2.5092,-2.5263,-2.4749,-2.5092,-2.5263,-2.4749,-2.4749,-2.4749,-2.4578,-2.4235,-2.3892,-2.3376,-2.3376,-2.3204,-2.2686,-2.2675,-2.2568,-2.2342,-2.2331,-2.2094,-2.162,-2.1147,-2.0791,-2.0554,-2.0081,-1.9844,-1.9844,-1.9844,-1.9725,0.0,0.0,-2.1972,-2.2311,-2.3309,-2.4119,-2.4343,-2.441,-2.4551,-2.4638,-2.4204,-2.3644,-2.3813,-2.3321,-2.3311,-2.4097,-2.4161,-2.4355,-2.5076,-2.4904,-2.4646,-2.4484,-2.4258,0.0,0.0,0.0,0.0,-2.5496,-2.5895,-2.611,-2.611,-2.5959,-2.569,-2.5303,-2.5055,-2.4893,-2.4807,-2.442,-2.4269,-2.4344,-2.4194,-2.4118,-2.4118,-2.4118,-2.4118,-2.4118,-2.4118,-2.4118,-2.4097,-2.3849,-2.3698,-2.3612,-2.3461,-2.33,-2.3149,-2.3074,-2.274,-2.2288,-2.2062,-2.1976,-2.1965,-2.1879,-2.1969,-2.2091,-2.1991,-2.23,-2.2598,-2.2179,-2.2367,-2.2533,-2.2698,-2.2698,-2.2898,-2.3401,-2.331,-2.3453,-2.4059,-2.3538,-2.3257,-2.4368,-2.3971,-2.3597,-2.4189,-2.4578,-2.4921,-2.5092,-2.5092,-2.4921,-2.4749,-2.4407,-2.4235,-2.4235,-2.4235,-2.4064,-2.3892,-2.3548,-2.3376,-2.3204,-2.2859,-2.2643,-2.2568,-2.2568,-2.2342,-2.1879,-2.1545,-2.119,-2.0791,-2.0479,-2.0242,-2.0091,-2.0091,-1.9962,0.0,-2.1359,-2.255,-2.2718,-2.3542,-2.4321,-2.4269,-2.4398,-2.4463,-2.4463,-2.3838,-2.3246,-2.3085,-2.2589,-2.2471,-2.3235,-2.3365,-2.3731,-2.4775,-2.4657,-2.4398,-2.4226,-2.4151,0.0,0.0,0.0,0.0,-2.5023,-2.555,-2.5895,-2.597,-2.5755,-2.5561,-2.5432,-2.5184,-2.5023,-2.4937,-2.4646,-2.4484,-2.4463,-2.4226,-2.4118,-2.4118,-2.4118,-2.4021,-2.3871,-2.4043,-2.4021,-2.386,-2.3871,-2.3828,-2.3741,-2.3677,-2.3601,-2.3515,-2.3451,-2.3278,-2.2998,-2.2503,-2.2277,-2.2191,-2.2126,-2.2208,-2.2332,-2.2408,-2.271,-2.2999,-2.2933,-2.3011,-2.3236,-2.3146,-2.3179,-2.327,-2.3675,-2.3561,-2.355,-2.4314,-2.3801,-2.3506,-2.4337,-2.3926,-2.354,-2.3869,-2.4235,-2.4578,-2.4921,-2.4749,-2.4749,-2.4921,-2.4749,-2.4578,-2.4578,-2.4578,-2.4578,-2.4407,-2.3892,-2.3548,-2.3376,-2.3031,-2.2686,-2.2686,-2.2686,-2.246,-2.1997,-2.1739,-2.1383,-2.0899,-2.0673,-2.0479,-2.0339,-2.0253,-2.0134,-2.1211,-2.2029,-2.2654,-2.3548,-2.3946,-2.4129,-2.4129,-2.4301,-2.4441,-2.4387,-2.3978,-2.3483,0.0,0.0,-2.2051,-2.2568,-2.2675,-2.3117,-2.4312,-2.4484,-2.4312,0.0,0.0,0.0,0.0,0.0,0.0,-2.4786,0.0,-2.5303,-2.5561,-2.5356,-2.5432,-2.5873,-2.5647,-2.5421,-2.5216,-2.5173,-2.4926,-2.4463,-2.4226,-2.4118,-2.4118,-2.4118,-2.3871,-2.3461,-2.3914,-2.386,-2.3472,-2.3924,-2.3978,-2.3784,-2.4021,-2.3967,-2.3795,-2.4011,-2.3935,-2.3601,-2.2697,-2.2223,-2.2062,-2.2277,-2.2191,-2.2219,-2.2785,-2.2865,-2.2888,-2.3978,-2.4221,-2.4006,-2.4287,-2.4051,-2.3835,-2.3789,-2.3721,-2.3778,-2.4029,-2.4075,-2.4064,-2.4064,-2.4064,-2.3892,-2.3548,-2.372,-2.4064,-2.4064,-2.4407,-2.4921,-2.5263,-2.5433,-2.5433,-2.5433,-2.5433,-2.5263,-2.4749,-2.4407,-2.3892,-2.3376,-2.3031,-2.2686,-2.2686,-2.2686,-2.246,-2.1997,-2.1771,-2.1416,-2.0942,-2.0727,-2.0597,-2.0554,-2.0339,-2.0221,-2.1771,-2.288,-2.3935,-2.4,-2.4204,-2.4377,-2.4377,-2.442,-2.4204,-2.3321,-2.2622,-2.1803,0.0,0.0,0.0,-2.1954,-2.26,0.0,-2.4549,-2.471,0.0,0.0,0.0,-2.4657,-2.4721,-2.499,0.0,0.0,-2.5303,-2.569,-2.6282,-2.6089,-2.6013,-2.6142,-2.5733,-2.5572,-2.569,-2.5163,-2.4753,-2.4463,-2.4226,-2.4118,-2.4118,-2.4118,-2.4043,-2.3935,-2.4064,-2.4043,-2.3946,-2.4064,-2.4075,-2.4021,-2.4086,-2.4075,-2.4011,-2.3881,-2.3688,-2.3451,-2.3214,-2.2977,-2.2751,-2.2632,-2.2546,-2.2514,-2.275,-2.2718,-2.2685,-2.3093,-2.3148,-2.3009,-2.3126,-2.3159,-2.3064,-2.3184,-2.3248,-2.3514,-2.376,-2.3671,-2.3548,-2.3548,-2.3376,-2.3204,-2.3376,-2.3548,-2.372,-2.4064,-2.4235,-2.4407,-2.4749,-2.4921,-2.5092,-2.5433,-2.5433,-2.5263,-2.4749,-2.4407,-2.3892,-2.3376,-2.3031,-2.2686,-2.2686,-2.2686,-2.2546,-2.2245,-2.218,-2.1922,-2.1437,-2.1383,-2.1082,-2.0565,-2.05,-2.0382,-2.2955,-2.3828,-2.456,-2.4323,-2.4366,-2.4301,-2.3677,-2.3526,-2.3192,-2.1997,-2.1265,0.0,0.0,0.0,0.0,0.0,0.0,0.0,-2.4603,-2.4807,-2.4872,0.0,-2.5098,0.0,-2.5604,-2.5755,-2.5819,0.0,-2.5723,-2.5841,-2.625,-2.6142,-2.6175,-2.6379,-2.6024,-2.5841,-2.5862,-2.527,-2.4904,-2.4775,-2.443,-2.4269,-2.4258,-2.4161,-2.4,-2.3806,0.0,-2.3989,-2.3817,-2.4032,-2.4118,-2.4118,-2.4118,-2.4118,-2.4097,-2.3957,-2.3752,-2.3548,-2.3548,-2.3397,-2.316,-2.2923,-2.2772,-2.2697,-2.2978,-2.3108,-2.3053,-2.3325,-2.3358,-2.3162,-2.3053,-2.2935,-2.2848,-2.288,-2.2956,-2.3064,-2.3195,-2.3119,-2.3031,-2.3031,-2.2859,-2.2859,-2.3031,-2.3204,-2.3376,-2.3548,-2.3892,-2.4235,-2.4407,-2.4407,-2.4578,-2.5092,-2.5092,-2.5092,-2.5092,-2.4407,-2.4064,-2.372,-2.3031,-2.2686,-2.2686,-2.2686,-2.2568,-2.2342,-2.2223,-2.1986,-2.162,-2.1523,-2.1265,-2.0877,-2.0759,-2.064,-2.4204,-2.4635,-2.4786,-2.4527,-2.4484,-2.414,-2.2751,-2.2385,-2.1976,-2.0684,0.0,0.0,-1.9112,0.0,-1.9876,-2.0877,0.0,-2.302,-2.4581,-2.4883,-2.5173,-2.5787,-2.569,-2.5776,-2.6325,-2.6315,-2.6401,-2.6702,-2.6315,-2.6046,-2.6013,-2.6013,-2.6185,-2.6573,-2.6358,-2.611,-2.5873,-2.541,-2.5173,-2.5173,-2.4689,-2.4463,-2.4452,-2.4226,-2.3892,-2.3515,0.0,0.0,-2.3526,-2.3946,-2.4118,-2.4118,-2.4118,-2.4118,-2.4107,-2.4075,-2.3935,-2.3752,-2.3752,-2.3591,-2.3365,-2.316,-2.2955,-2.2815,-2.3534,-2.3457,-2.3509,-2.4069,-2.395,-2.3545,-2.3487,-2.3239,-2.2998,-2.2783,-2.2708,-2.2697,-2.2729,-2.2708,-2.2686,-2.2686,-2.2686,-2.2686,-2.2686,-2.3031,-2.3204,-2.2686,-2.3376,-2.3903,-2.4109,-2.4086,-2.4407,-2.4749,-2.4749,-2.4921,-2.5263,-2.4578,-2.4064,-2.4064,-2.3204,-2.2686,-2.2686,-2.2686,-2.2589,-2.2385,-2.2169,-2.1943,-2.1717,-2.148,-2.134,-2.1276,-2.1017,-2.0899,-2.4237,-2.4635,-2.5012,-2.457,-2.4603,-2.442,-2.3203,-2.2622,0.0,0.0,0.0,-1.9295,-1.8433,-1.9101,0.0,-2.1566,0.0,0.0,0.0,0.0,-2.5733,0.0,0.0,0.0,0.0,0.0,0.0,0.0,0.0,0.0,-2.6778,-2.6767,-2.6702,-2.6584,-2.6358,-2.611,-2.5873,-2.541,-2.5173,-2.5173,-2.4689,-2.4463,-2.4452,-2.4226,-2.4064,-2.3989,0.0,0.0,-2.4,-2.4075,-2.4118,-2.4118,-2.4118,-2.4118,-2.4086,-2.3881,-2.3784,-2.3752,-2.3752,-2.3591,-2.3397,-2.3354,-2.3311,-2.3278,-2.3499,-2.3488,-2.3455,-2.3499,-2.351,-2.3455,-2.3228,-2.302,-2.3042,-2.2998,-2.2826,-2.274,-2.2945,-2.2826,-2.2686,-2.2686,-2.2686,-2.2686,-2.2686,-2.2859,-2.2859,-2.2686,-2.2859,-2.3097,-2.3816,-2.4362,-2.4749,-2.5263,-2.5263,-2.5092,-2.4921,-2.4749,-2.4235,-2.3548,-2.3376,-2.3031,-2.2686,-2.2686,-2.2665,-2.2622,-2.2579,-2.2449,-2.2212,-2.1965,-2.1653,-2.1276,-2.1017,-2.0899,-2.4904,-2.5184,-2.5421,-2.4947,-2.4732,-2.4151,-2.2342,0.0,0.0,0.0,0.0,-1.8261,-1.7809,0.0,0.0,0.0,0.0,0.0,0.0,0.0,0.0,0.0,0.0,0.0,0.0,0.0,0.0,0.0,0.0,0.0,-2.7144,-2.7015,-2.6896,-2.6778,-2.6422,-2.6175,-2.6056,-2.5593,-2.5356,-2.5346,-2.5001,-2.4764,-2.4635,-2.4398,-2.4226,-2.4118,-2.4118,0.0,-2.3763,-2.4011,-2.3967,-2.3763,-2.4021,-2.4118,-2.4097,-2.3978,-2.3935,-2.3935,-2.3935,-2.386,-2.3774,-2.3774,-2.3601,-2.3418,-2.3548,-2.3494,-2.3429,-2.3548,-2.3494,-2.3375,-2.3257,-2.3235,-2.3203,-2.3074,-2.2858,-2.2718,-2.2837,-2.2869,-2.288,-2.288,-2.2966,-2.302,-2.2891,-2.288,-2.2869,-2.3217,-2.3564,-2.3771,-2.4069,-2.4963,-2.5437,-2.5306,-2.5175,-2.5092,-2.5092,-2.4921,-2.4407,-2.372,-2.3548,-2.3204,-2.2686,-2.2686,-2.2686,-2.2686,-2.2568,-2.2449,-2.2331,-2.2094,-2.1857,-2.1631,-2.1383,-2.1276,-2.5507,-2.5723,-2.583,-2.5367,-2.4893,-2.3935,-2.1653,-2.0662,0.0,0.0,0.0,-1.741,0.0,0.0,0.0,0.0,0.0,0.0,0.0,0.0,0.0,0.0,0.0,0.0,0.0,0.0,0.0,0.0,0.0,0.0,-2.7305,-2.7079,-2.695,-2.695,-2.653,-2.6315,-2.6315,-2.583,-2.5593,-2.5593,-2.5313,-2.5076,-2.4872,-2.4592,-2.4366,-2.4183,-2.4129,0.0,0.0,-2.3914,-2.3828,-2.3451,-2.3924,-2.4118,-2.4118,-2.4118,-2.4118,-2.4118,-2.4118,-2.4118,-2.4118,-2.4118,-2.386,-2.358,-2.3774,-2.3698,-2.3591,-2.3774,-2.3688,-2.3537,-2.3483,-2.3472,-2.3418,-2.3181,-2.2977,-2.2826,-2.2772,-2.2988,-2.3181,-2.3138,-2.3354,-2.3494,-2.3311,-2.3235,-2.339,-2.3787,-2.4238,-2.4555,-2.4657,-2.5454,-2.5806,-2.5488,-2.502,-2.498,-2.5275,-2.4921,-2.4601,-2.4143,-2.3799,-2.3281,-2.2762,-2.2762,-2.274,-2.2686,-2.2503,-2.2406,-2.2406,-2.2169,-2.2051,-2.204,-2.1803,-2.1663,-2.5464,-2.5852,-2.6089,-2.5604,-2.513,-2.4269,-2.2331,0.0,0.0,0.0,-1.768,-1.7507,0.0,0.0,0.0,0.0,0.0,0.0,0.0,0.0,0.0,0.0,0.0,0.0,0.0,0.0,0.0,0.0,0.0,0.0,0.0,-2.7079,-2.695,-2.695,-2.6692,-2.6552,-2.6552,-2.6078,-2.583,-2.583,-2.5389,-2.5163,-2.513,-2.4667,-2.4452,-2.442,0.0,0.0,0.0,-2.3914,-2.3828,-2.3451,-2.3924,-2.4118,-2.4118,-2.4118,-2.4118,-2.4118,-2.4118,-2.4118,-2.4118,-2.4118,-2.4086,-2.4054,-2.4075,-2.4064,-2.4054,-2.4075,-2.4064,-2.4,-2.3774,-2.372,-2.3655,-2.3418,-2.3354,-2.3278,-2.3063,-2.3365,-2.3623,-2.3408,-2.3741,-2.4043,-2.4021,-2.3828,-2.3763,-2.3978,-2.4184,-2.442,-2.54,-2.5605,-2.5772,-2.6354,-2.5571,-2.4996,-2.4761,-2.4749,-2.4671,-2.4383,-2.4395,-2.3872,-2.302,-2.302,-2.2912,-2.2686,-2.2665,-2.2654,-2.2654,-2.2417,-2.2299,-2.2299,-2.2051,-2.1825,-2.5216,-2.5766,-2.6185,-2.5992,-2.5055,-2.3752,-2.2137,0.0,-1.9628,-1.8358,-1.7819,-1.7593,-1.7647,0.0,0.0,0.0,0.0,0.0,0.0,0.0,0.0,0.0,0.0,0.0,0.0,0.0,0.0,0.0,0.0,0.0,0.0,-2.7079,-2.695,-2.695,-2.6713,-2.6584,-2.6584,-2.625,-2.6013,-2.5862,-2.5679,-2.5443,-2.5173,-2.498,-2.4807,-2.4657,0.0,0.0,0.0,-2.4064,-2.3957,-2.3472,-2.4237,-2.4441,-2.4323,-2.4323,-2.4237,-2.4118,-2.4118,-2.4118,-2.4118,-2.4118,-2.4118,-2.4118,-2.4118,-2.4118,-2.4118,-2.4118,-2.4118,-2.4097,-2.3989,-2.386,-2.372,-2.3634,-2.3504,-2.3375,-2.3278,-2.3634,-2.3946,-2.3849,-2.4097,-2.428,-2.414,-2.3914,-2.3965,-2.4245,-2.4272,-2.4576,-2.5308,-2.5658,-2.5901,-2.5701,-2.5666,-2.5663,-2.5568,-2.5556,-2.5429,-2.5173,-2.4997,-2.4657,-2.3611,-2.3468,-2.3348,-2.2902,-2.2762,-2.2686,-2.2686,-2.2589,-2.2546,-2.2535,-2.2299,-2.2137,-2.4678,-2.5475,-2.6142,-2.6218,-2.498,-2.3375,0.0,0.0,-1.9413,-1.8229,-1.7787,-1.7615,-1.7593,-1.741,0.0,0.0,0.0,-1.9252,0.0,0.0,0.0,0.0,0.0,0.0,0.0,0.0,0.0,0.0,0.0,0.0,0.0,-2.7079,-2.695,-2.695,-2.6778,-2.6692,-2.6692,-2.6455,-2.6218,-2.597,-2.5906,-2.5583,-2.5066,-2.5141,-2.5001,-2.47,0.0,0.0,0.0,-2.4301,-2.4183,-2.3688,-2.4495,-2.4667,-2.4463,-2.4463,-2.4312,-2.4118,-2.4118,-2.4118,-2.4118,-2.4118,-2.4118,-2.4118,-2.4118,-2.4118,-2.4118,-2.4118,-2.4118,-2.4118,-2.4118,-2.3989,-2.3849,-2.3849,-2.3731,-2.3612,-2.3612,-2.3924,-2.4215,-2.4215,-2.4398,-2.4506,-2.4344,-2.4118,-2.4161,-2.4602,-2.4663,-2.4788,-2.5411,-2.5866,-2.6159,-2.5605,-2.6175,-2.6472,-2.6066,-2.6042,-2.5901,-2.5619,-2.563,-2.5241,-2.4119,-2.3942,-2.36,-2.2945,-2.2772,-2.2686,-2.2686,-2.2686,-2.2686,-2.2675,-2.2514,-2.2406,-2.3806,-2.498,-2.5927,-2.6175,-2.498,-2.3375,0.0,-2.0522,-1.9165,-1.797,-1.754,-1.7529,-1.8003,-1.7496,-1.74,-1.8584,-1.8584,0.0,0.0,0.0,0.0,0.0,0.0,0.0,0.0,0.0,0.0,0.0,0.0,0.0,0.0,-2.7079,-2.695,-2.695,-2.695,-2.695,-2.695,-2.6702,-2.6465,-2.6229,-2.5981,-2.5496,-2.4818,-2.5066,-2.4915,0.0,0.0,0.0,0.0,-2.4603,-2.4527,-2.4151,-2.4624,-2.4667,-2.4463,-2.4463,-2.4312,-2.4118,-2.4118,-2.4118,-2.4118,-2.4118,-2.4118,-2.4118,-2.4118,-2.4118,-2.4118,-2.4118,-2.4118,-2.4118,-2.4118,-2.4107,-2.4107,-2.4107,-2.4107,-2.4107,-2.4107,-2.429,-2.4463,-2.4463,-2.4646,-2.4797,-2.4797,-2.4603,-2.4527,-2.4753,-2.4758,-2.509,-2.5729,-2.6086,-2.6482,-2.7015,-2.7256,-2.6905,-2.5572,-2.5513,-2.5619,-2.5889,-2.5912,-2.5438,-2.4119,-2.4108,-2.3699,-2.2697,-2.2686,-2.2686,-2.2686,-2.2686,-2.2686,-2.2686,-2.2675,-2.2557,-2.1728,-2.2665,-2.3472,-2.3548,-2.2557,-2.1362,-2.0587,-1.9564,-1.8573,-1.7863,-1.7798,-1.7863,-1.7841,-1.7647,-1.783,-1.8864,-1.8832,-1.9198,0.0,0.0,0.0,0.0,0.0,0.0,0.0,0.0,0.0,0.0,0.0,0.0,0.0,0.0,-2.695,-2.695,-2.695,-2.695,-2.695,-2.6875,-2.6713,-2.6465,-2.6229,-2.583,-2.5292,-2.5378,0.0,0.0,0.0,0.0,0.0,-2.4926,-2.4872,-2.4613,-2.4937,-2.5012,-2.4915,-2.4581,-2.4517,-2.4538,-2.4226,-2.4215,-2.4323,-2.4161,-2.4118,-2.4118,-2.4118,-2.4118,-2.4118,-2.4118,-2.4118,-2.4118,-2.4118,-2.4237,-2.4355,-2.4355,-2.4355,-2.4355,-2.4355,-2.4409,-2.4506,-2.4667,-2.4624,-2.4613,-2.4775,-2.4613,-2.4671,-2.4933,-2.5142,-2.5735,-2.6561,-2.6864,-2.7002,-2.7558,-2.7642,-2.751,-2.6893,-2.7025,-2.7157,-2.7253,-2.7253,-2.6582,-2.5411,-2.5082,-2.4386,-2.3181,-2.2848,-2.2686,-2.2686,-2.2686,-2.2686,-2.2686,-2.2686,-2.2643,0.0,-2.1211,-2.1836,-2.2019,-2.1168,0.0,-1.9693,-1.8918,-1.8175,-1.769,-1.7927,-1.8121,-1.7787,-1.7938,-1.8229,-1.8562,-1.8928,-1.9488,0.0,0.0,0.0,0.0,0.0,0.0,0.0,0.0,0.0,0.0,0.0,0.0,0.0,0.0,-2.6993,-2.7079,-2.6993,-2.695,-2.695,-2.695,-2.6821,-2.6584,-2.6433,-2.6067,-2.5518,-2.5604,0.0,0.0,0.0,0.0,0.0,-2.5238,-2.5216,-2.5087,-2.5249,-2.526,-2.513,-2.4732,-2.4678,-2.4753,-2.4377,-2.4344,-2.4441,-2.429,-2.4183,-2.4118,-2.4118,-2.4118,-2.4118,-2.4118,-2.4183,-2.4247,-2.4247,-2.442,-2.457,-2.4484,-2.4527,-2.4592,-2.4592,-2.4592,-2.4657,-2.4904,-2.4753,-2.4635,-2.4775,-2.4689,-2.4779,-2.5339,-2.5473,-2.5938,-2.7052,-2.7052,-2.7251,-2.7811,-2.7896,-2.7896,-2.7727,-2.7775,-2.7811,-2.7811,-2.7811,-2.7271,-2.6179,-2.5774,-2.4856,-2.3621,-2.3228,-2.2859,-2.2686,-2.2686,-2.2686,-2.2686,-2.2686,-2.2686,0.0,0.0,0.0,0.0,0.0,0.0,0.0,-1.8498,0.0,-1.7507,-1.797,0.0,0.0,0.0,-1.8616,-1.7959,-1.8972,-1.9865,0.0,0.0,0.0,0.0,0.0,0.0,0.0,0.0,0.0,0.0,0.0,0.0,0.0,0.0,-2.7068,-2.7262,-2.7068,-2.695,-2.695,-2.695,-2.6821,-2.6584,-2.6584,-2.6207,-2.5529,-2.5776,0.0,0.0,0.0,0.0,0.0,-2.5539,-2.5539,-2.5518,-2.5518,-2.5399,-2.5195,-2.4947,-2.4861,-2.484,-2.4603,-2.4517,-2.4517,-2.4495,-2.4334,-2.414,-2.414,-2.4129,-2.4118,-2.4118,-2.4269,-2.4441,-2.4441,-2.4613,-2.4743,-2.4517,-2.4635,-2.4807,-2.4807,-2.4797,-2.4861,-2.513,-2.498,-2.4807,-2.4829,-2.4829,-2.5018,-2.5595,-2.5794,-2.6182,-2.711,-2.7298,-2.7298,-2.7872,-2.8089,-2.8234,-2.8234,-2.8005,-2.7872,-2.7872,-2.7848,-2.7421,-2.637,-2.6077,-2.5144,-2.3764,-2.3509,-2.3204,-2.2686,-2.2686,-2.2686,-2.2686,-2.2686,-2.2686,-1.8089,0.0,-1.8455,-1.839,0.0,0.0,0.0,0.0,0.0,0.0,0.0,0.0,0.0,0.0,-1.9273,-1.9112,-1.951,-2.0037,0.0,0.0,0.0,0.0,0.0,0.0,0.0,0.0,0.0,0.0,0.0,0.0,0.0,0.0,-2.7155,-2.7036,-2.6982,-2.695,-2.695,-2.695,-2.6821,-2.6584,-2.6584,-2.6207,-2.5529,-2.5959,0.0,0.0,0.0,0.0,-2.6375,-2.6375,-2.646,-2.6681,-2.6681,-2.6565,-2.6265,-2.6023,-2.5851,-2.5561,-2.5152,-2.5012,-2.498,-2.4786,-2.457,-2.4377,-2.4377,-2.4258,-2.4118,-2.4118,-2.4151,-2.4194,-2.4194,-2.4495,-2.4743,-2.4517,-2.4635,-2.4807,-2.4807,-2.4667,-2.4667,-2.5098,-2.498,-2.4861,-2.5055,-2.5458,-2.5839,-2.6409,-2.6961,-2.7471,-2.8236,-2.8236,-2.8236,-2.8439,-2.8487,-2.8524,-2.8524,-2.8463,-2.8427,-2.8427,-2.8234,-2.7781,-2.6887,-2.5901,-2.5057,-2.403,-2.325,-2.2859,-2.2686,-2.2686,-2.2686,-2.2686,-2.2686,-2.2686,-1.7195,-1.7313,-1.7443,-1.7658,-1.7453,-1.7292,0.0,0.0,0.0,0.0,0.0,0.0,0.0,0.0,0.0,-1.9621,-1.9767,-2.0328,0.0,0.0,0.0,0.0,0.0,0.0,0.0,0.0,0.0,0.0,0.0,0.0,0.0,0.0,-2.7241,-2.7111,-2.7004,-2.695,-2.695,-2.695,-2.6821,-2.6584,-2.6702,-2.6487,-2.6013,-2.6272,0.0,0.0,0.0,0.0,-2.7041,-2.6804,-2.6965,-2.7227,-2.7113,-2.7089,-2.7187,-2.6632,-2.6331,-2.6376,-2.581,-2.5421,-2.5281,-2.4915,-2.4646,-2.4463,-2.4463,-2.4377,-2.4247,-2.414,-2.4194,-2.4269,-2.4269,-2.4538,-2.4775,-2.4646,-2.4797,-2.498,-2.498,-2.4958,-2.5023,-2.5281,-2.5227,-2.5173,-2.5313,-2.5709,-2.6286,-2.6862,-2.7361,-2.8031,-2.862,-2.862,-2.862,-2.862,-2.862,-2.8669,-2.8789,-2.8693,-2.862,-2.862,-2.8475,-2.8032,-2.745,-2.673,-2.5623,-2.4305,-2.3217,-2.2686,-2.2686,-2.2686,-2.2686,-2.2686,-2.2686,-2.2686,-1.6861,-1.6969,-1.726,-1.7884,-1.755,-1.7238,0.0,0.0,0.0,0.0,0.0,0.0,0.0,0.0,0.0,0.0,0.0,0.0,0.0,0.0,0.0,0.0,0.0,0.0,0.0,0.0,0.0,0.0,0.0,0.0,0.0,0.0,0.0,-2.7241,-2.7058,-2.695,-2.695,-2.695,-2.6821,-2.6584,-2.6832,-2.6799,-2.6732,-2.6562,-2.6966,0.0,0.0,0.0,-2.7686,-2.7283,-2.7352,-2.7686,-2.7456,-2.7663,-2.7832,-2.7018,-2.6726,-2.6827,-2.6157,-2.5733,-2.5507,-2.5098,-2.4807,-2.4624,-2.4624,-2.457,-2.4474,-2.428,-2.4366,-2.4517,-2.4517,-2.4689,-2.485,-2.4807,-2.5001,-2.5173,-2.5173,-2.5335,-2.5475,-2.5518,-2.5518,-2.5518,-2.5518,-2.61,-2.6487,-2.7067,-2.7669,-2.8079,-2.8632,-2.8656,-2.8669,-2.862,-2.862,-2.8729,-2.8994,-2.8777,-2.8644,-2.8681,-2.8608,-2.8294,-2.7529,-2.7253,-2.6112,-2.4277,-2.3184,-2.2718,-2.2686,-2.2686,-2.2686,-2.2686,-2.2686,-2.2686,-1.7453,-1.7583,-1.7636,-1.7744,-1.755,-1.7453,0.0,0.0,0.0,0.0,0.0,0.0,0.0,0.0,0.0,0.0,0.0,0.0,0.0,0.0,0.0,0.0,0.0,0.0,0.0,0.0,0.0,0.0,0.0,0.0,0.0,0.0,0.0,-2.7015,-2.6971,-2.695,-2.695,-2.695,-2.6821,-2.6584,-2.6832,-2.6916,-2.6882,-2.6688,-2.708,0.0,0.0,-2.7736,-2.8381,-2.8509,-2.8883,-2.9147,-2.9099,-2.8673,-2.8129,-2.8449,-2.7671,-2.6667,-2.6024,-2.5841,-2.5798,-2.5733,-2.555,-2.5356,-2.5356,-2.5076,-2.4743,-2.471,-2.4721,-2.4753,-2.4753,-2.4937,-2.5066,-2.485,-2.5001,-2.5173,-2.5173,-2.5206,-2.5292,-2.5486,-2.5518,-2.5518,-2.5518,-2.6294,-2.7067,-2.7056,-2.8027,-2.868,-2.8656,-2.8813,-2.8862,-2.8644,-2.862,-2.8729,-2.8994,-2.8777,-2.8717,-2.8934,-2.8524,-2.7557,-2.6075,-2.5615,-2.4856,-2.3228,-2.3009,-2.2891,-2.2686,-2.2686,-2.2686,-2.2686,-2.2686,-2.2686,-1.6969,-1.7335,-1.7841,-1.8369,-1.8132,0.0,0.0,0.0,0.0,0.0,0.0,0.0,0.0,0.0,0.0,0.0,0.0,0.0,0.0,0.0,0.0,0.0,0.0,0.0,0.0,0.0,0.0,0.0,0.0,0.0,0.0,0.0,0.0,0.0,-2.5481,-2.5481,-2.5481,-2.6529,-2.6821,-2.6584,-2.7036,-2.7097,-2.6638,-2.7414,-2.7863,-2.8015,0.0,-2.8195,-2.8998,-2.8438,-2.8867,-2.9405,-2.8812,-2.8661,-2.8797,-2.8403,-2.7592,-2.6745,-2.653,-2.6369,-2.6229,-2.611,-2.5819,-2.5518,-2.5518,-2.5281,-2.5033,-2.5152,-2.5001,-2.4807,-2.4807,-2.4893,-2.498,-2.5001,-2.5098,-2.5216,-2.5335,-2.5367,-2.5389,-2.5496,-2.5518,-2.5518,-2.5518,-2.6487,-2.7113,-2.725,-2.8351,-2.9019,-2.9043,-2.9151,-2.9175,-2.9055,-2.9043,-2.9151,-2.9417,-2.9067,-2.8825,-2.8801,-2.8045,-2.7475,-2.6561,-2.5479,-2.4733,-2.3971,-2.3542,-2.3181,-2.3074,-2.2945,-2.288,-2.288,-2.274,-2.2686,-1.6571,-1.7087,-1.7927,0.0,0.0,0.0,0.0,0.0,0.0,0.0,0.0,0.0,0.0,0.0,0.0,0.0,0.0,0.0,0.0,0.0,0.0,0.0,0.0,0.0,0.0,0.0,0.0,0.0,0.0,0.0,0.0,0.0,0.0,0.0,-2.3813,-2.4029,-2.4441,-2.5285,-2.6024,-2.667,-2.7465,-2.7355,-2.6813,-2.7941,-2.8548,-2.8484,-2.8346,-2.8682,-2.9381,-2.8504,-2.8831,-2.9387,-2.8334,-2.8341,-2.8901,-2.794,-2.7316,-2.7068,-2.6864,-2.6745,-2.6552,-2.6369,-2.6035,-2.569,-2.569,-2.5486,-2.5292,-2.5475,-2.526,-2.4969,-2.4969,-2.4969,-2.5023,-2.5216,-2.5303,-2.5389,-2.5561,-2.5604,-2.5615,-2.5679,-2.5636,-2.5615,-2.5679,-2.646,-2.7307,-2.7513,-2.8575,-2.9224,-2.9308,-2.9417,-2.9453,-2.9332,-2.9369,-2.9489,-2.9682,-2.9332,-2.8994,-2.8729,-2.8021,-2.7428,-2.7179,-2.5853,-2.4918,-2.4558,-2.3954,-2.3569,-2.3397,-2.3278,-2.3181,-2.3128,-2.3108,-2.3021,-1.6969,-1.7335,0.0,0.0,0.0,0.0,0.0,0.0,0.0,0.0,0.0,0.0,0.0,0.0,0.0,0.0,0.0,0.0,0.0,0.0,0.0,0.0,0.0,0.0,0.0,0.0,0.0,0.0,0.0,0.0,0.0,0.0,0.0,0.0,0.0,-2.2995,-2.4441,-2.2995,-2.3822,-2.6918,-2.7553,-2.7951,-2.8325,-2.8312,-2.8684,-2.9243,-2.906,-2.9025,-2.9441,-2.9297,-2.9712,-2.9927,-2.8658,-2.8186,-2.8243,-2.7272,-2.7218,-2.7223,-2.6808,-2.6595,-2.6584,-2.6562,-2.639,-2.6185,-2.6185,-2.5862,-2.5496,-2.5518,-2.5496,-2.5464,-2.5464,-2.5464,-2.5475,-2.5486,-2.5658,-2.5819,-2.5841,-2.5841,-2.5906,-2.6142,-2.6002,-2.5916,-2.6142,-2.697,-2.7775,-2.7787,-2.8989,-2.9574,-2.9103,-2.9465,-2.9586,-2.9091,-2.926,-2.9417,-2.9429,-2.9393,-2.926,-2.9006,-2.85,-2.7724,-2.6559,-2.6302,-2.5381,-2.3965,-2.4172,-2.4064,-2.3397,-2.3601,-2.358,-2.3375,-2.3886,-2.4052,-1.6969,-1.6552,0.0,0.0,0.0,0.0,0.0,0.0,0.0,0.0,0.0,0.0,0.0,0.0,0.0,0.0,0.0,0.0,0.0,0.0,0.0,0.0,0.0,0.0,0.0,0.0,0.0,0.0,0.0,0.0,0.0,0.0,0.0,0.0,0.0,-2.0712,-2.1336,-2.1751,-2.2581,-2.3832,-2.4441,-2.4578,-2.4246,-2.6338,-2.7245,-2.7225,-2.8353,-2.9155,-2.9072,-2.7234,-2.6895,-2.7311,-2.6756,-2.6788,-2.7432,-2.7122,-2.6896,-2.7014,-2.681,-2.681,-2.6788,-2.6638,-2.6422,-2.6207,-2.6056,-2.5776,-2.5518,-2.5518,-2.5518,-2.5518,-2.5518,-2.5518,-2.5561,-2.5701,-2.5809,-2.5906,-2.6067,-2.6099,-2.6121,-2.6218,-2.6153,-2.6121,-2.6218,-2.7026,-2.7867,-2.8027,-2.9131,-2.9791,-2.9767,-2.9936,-2.9984,-2.9779,-2.9851,-2.9839,-2.9658,-2.9501,-2.9296,-2.9031,-2.8271,-2.758,-2.6565,-2.6028,-2.5362,-2.4204,-2.4226,-2.4107,-2.3838,-2.3784,-2.3879,-2.4151,-2.3818,-2.3753,-1.5832,-1.5639,-1.5815,-1.7623,0.0,0.0,0.0,0.0,0.0,0.0,0.0,0.0,0.0,0.0,0.0,0.0,0.0,0.0,0.0,0.0,0.0,0.0,0.0,0.0,0.0,0.0,0.0,0.0,0.0,0.0,0.0,0.0,0.0,0.0,0.0,0.0,-1.9469,-2.0095,-2.072,-2.1128,-2.1128,-2.1268,-2.1971,-2.4764,-2.5532,-2.4921,-2.6627,-2.7234,-2.6966,-2.5012,-2.4421,-2.443,-2.4588,-2.5069,-2.6108,-2.6108,-2.6529,-2.695,-2.695,-2.695,-2.6918,-2.6756,-2.6541,-2.6304,-2.6056,-2.5873,-2.5712,-2.5561,-2.5572,-2.5626,-2.5626,-2.5572,-2.5561,-2.5723,-2.5873,-2.6024,-2.6196,-2.6293,-2.6369,-2.6444,-2.6401,-2.6369,-2.6444,-2.7259,-2.7917,-2.8289,-2.9119,-2.9759,-3.0069,-3.0165,-3.0214,-3.0214,-3.0214,-3.0141,-2.9948,-2.9682,-2.9453,-2.9272,-2.8545,-2.7803,-2.6904,-2.6599,-2.5839,-2.5142,-2.4857,-2.4551,-2.441,-2.4237,-2.4117,-2.4404,-2.4059,-2.3971,-1.35,-1.4381,-1.55,0.0,0.0,0.0,0.0,0.0,0.0,0.0,0.0,0.0,0.0,0.0,0.0,0.0,0.0,0.0,0.0,0.0,0.0,0.0,0.0,0.0,0.0,0.0,0.0,0.0,0.0,0.0,0.0,0.0,0.0,0.0,0.0,0.0,-1.9469,-1.7811,-1.7811,-1.9469,-1.7811,-1.9059,-2.2788,-2.339,-2.3474,-2.309,-2.3502,-2.3474,-2.31,-2.2903,-2.2374,-2.1959,-2.2581,-2.34,-2.4441,-2.4441,-2.5481,-2.695,-2.695,-2.695,-2.695,-2.695,-2.6778,-2.6541,-2.6304,-2.6229,-2.6132,-2.5658,-2.569,-2.5873,-2.5873,-2.5701,-2.5529,-2.5529,-2.5895,-2.6239,-2.6239,-2.6422,-2.6659,-2.6907,-2.6756,-2.6659,-2.6907,-2.7349,-2.7962,-2.8586,-2.8982,-2.9498,-2.9839,-3.0045,-3.0214,-3.0214,-3.0214,-3.0214,-3.0214,-2.996,-2.9791,-2.9791,-2.9308,-2.8584,-2.7486,-2.771,-2.7401,-2.6336,-2.5984,-2.5683,-2.5206,-2.4649,-2.4344,-2.4118,-2.4646,-2.4818,-1.4011,-1.3006,0.0,0.0,0.0,0.0,0.0,0.0,0.0,0.0,0.0,0.0,0.0,0.0,0.0,0.0,0.0,0.0,0.0,0.0,0.0,0.0,0.0,0.0,0.0,0.0,0.0,0.0,0.0,0.0,0.0,0.0,0.0,0.0,0.0,0.0,-1.7811,-1.7188,-1.7188,-1.7811,-1.7188,-1.7601,-1.885,-2.0488,-2.1285,-2.1234,-2.2536,-2.2949,-2.2697,-2.1103,-2.0304,-2.0304,-2.0512,-2.1336,-2.2995,-2.4441,-2.5275,-2.5902,-2.7144,-2.7553,-2.7531,-2.6949,-2.653,-2.6293,-2.6046,-2.5981,-2.5949,-2.5798,-2.5938,-2.6121,-2.6121,-2.6078,-2.6067,-2.6229,-2.6379,-2.653,-2.6702,-2.6788,-2.6864,-2.6939,-2.709,-2.7261,-2.6939,-2.7962,-2.8779,-2.8586,-2.9401,-2.9975,-3.0105,-3.0165,-3.0214,-3.0214,-3.0214,-3.0214,-3.0214,-2.996,-2.9791,-2.9791,-2.9308,-2.8668,-2.7745,-2.7627,-2.7226,-2.6336,-2.6016,-2.5794,-2.6024,-2.4911,-2.4791,-2.5454,-2.4734,-2.4463,-1.2662,0.0,0.0,0.0,0.0,0.0,0.0,0.0,0.0,0.0,0.0,0.0,0.0,0.0,0.0,0.0,0.0,0.0,0.0,0.0,0.0,0.0,0.0,0.0,0.0,0.0,0.0,0.0,0.0,0.0,0.0,0.0,0.0,0.0,0.0,0.0,-1.6978,-1.6978,-1.6978,-1.6978,-1.6978,-1.6978,-1.6978,-1.8424,-1.9044,-1.9044,-2.0087,-2.0504,-2.0296,-1.9059,-1.8432,-1.8432,-1.8432,-1.9469,-2.1336,-2.3409,-2.4598,-2.5348,-2.7399,-2.802,-2.7784,-2.7436,-2.7157,-2.708,-2.6627,-2.6616,-2.6649,-2.6067,-2.6185,-2.6369,-2.6369,-2.6369,-2.639,-2.6433,-2.6519,-2.6627,-2.6767,-2.6885,-2.695,-2.7155,-2.7553,-2.7758,-2.7565,-2.8371,-2.8982,-2.8982,-2.9604,-3.0214,-3.0214,-3.0214,-3.0214,-3.0214,-3.0214,-3.0214,-3.0214,-3.0057,-2.996,-2.996,-2.9465,-2.8908,-2.8545,-2.8188,-2.7736,-2.7203,-2.6519,-2.6284,-2.6851,-2.5473,-2.5351,-2.6085,-2.5095,-2.4616,0.0,0.0,0.0,0.0,0.0,0.0,0.0,0.0,0.0,0.0,0.0,0.0,0.0,0.0,0.0,0.0,0.0,0.0,0.0,0.0,0.0,0.0,0.0,0.0,0.0,0.0,0.0,0.0,0.0,0.0,0.0,0.0,0.0,0.0,0.0,0.0,-1.6978,-1.6978,-1.6978,0.0,-1.6978,-1.6978,-1.6978,-1.6978,-1.6978,-1.6978,-1.6978,-1.6978,-1.6978,-1.6978,-1.6978,-1.6978,-1.6978,-1.8013,-1.9446,-2.1725,-2.3259,-2.4738,-2.7168,-2.7985,-2.7985,-2.8186,-2.8335,-2.8472,-2.7638,-2.7536,-2.7636,-2.6591,-2.6232,-2.6403,-2.6616,-2.6403,-2.5945,-2.5946,-2.6253,-2.6616,-2.6616,-2.6788,-2.7155,-2.7758,-2.7758,-2.7962,-2.8586,-2.8586,-2.8994,-2.9389,-2.9808,-3.0214,-3.0214,-3.0214,-3.0214,-3.0214,-3.0214,-3.0214,-3.0214,-3.0214,-3.0214,-3.0214,-2.9731,-2.9429,-2.9405,-2.8898,-2.862,-2.862,-2.7424,-2.7117,-2.7688,-2.6284,-2.5983,-2.6547,-2.5724,-2.524,0.0,0.0,0.0,0.0,0.0,0.0,0.0,0.0,0.0,0.0,0.0,0.0,0.0,0.0,0.0,0.0,0.0,0.0,0.0,0.0,0.0,0.0,0.0,0.0,0.0,0.0,0.0,0.0,0.0,0.0,0.0,0.0,0.0,0.0,0.0,-1.6978,-1.6978,-1.6978,-1.6978,0.0,-1.6978,-1.6978,-1.6978,-1.6978,-1.6978,-1.6978,-1.6978,-1.6978,-1.6978,-1.6978,-1.6978,-1.6978,-1.6978,-1.7113,-1.7626,-1.9878,-2.0883,-2.166,-2.5134,-2.6349,-2.6552,-2.7784,-2.8095,-2.777,-2.7314,-2.727,-2.7245,-2.6743,-2.544,-2.4578,-2.6455,-2.4167,-2.2078,-2.3698,-2.5584,-2.6875,-2.6875,-2.6918,-2.7155,-2.7758,-2.8178,-2.8382,-2.8586,-2.9401,-2.9808,-3.0011,-3.0214,-3.0214,-3.0214,-3.0214,-3.0214,-3.0214,-3.0214,-3.0214,-3.0214,-3.0214,-3.0214,-3.0214,-2.99,-2.9622,-2.9417,-2.8898,-2.862,-2.862,-2.7984,-2.7756,-2.8344,-2.7117,-2.6812,-2.7191,-2.6559,-2.6058,0.0,0.0,0.0,0.0,0.0,0.0,0.0,0.0,0.0,0.0,0.0,0.0,0.0,0.0,0.0,0.0,0.0,0.0,0.0,0.0,0.0,0.0,0.0,0.0,0.0,0.0,0.0,0.0,0.0,0.0,0.0,0.0,0.0,0.0,-1.6978,-1.6978,-1.6978,-1.6978,-1.6978,-1.6978,-1.6978,-1.6978,-1.6978,-1.6978,-1.6978,-1.6978,-1.6978,-1.6978,-1.6978,-1.6978,-1.6978,-1.6971,-1.6897,-1.6822,-1.6955,-1.9205,-1.9914,-2.0384,-2.4518,-2.5967,-2.6179,-2.6981,-2.7259,-2.7146,-2.553,-2.4789,-2.4674,-2.448,-2.3521,-2.2779,-2.4245,-2.2788,-2.1328,-2.2572,-2.3202,-2.3822,-2.3822,-2.4029,-2.4225,-2.4844,-2.5471,-2.5892,-2.6087,-2.6788,-2.7068,-2.7068,-2.7068,-2.7025,-2.7122,-2.7929,-2.8552,-2.8552,-2.9593,-3.0214,-3.0214,-3.0214,-3.0214,-3.0214,-2.9948,-2.9731,-2.9598,-2.9212,-2.8886,-2.8632,-2.8291,-2.8351,-2.8813,-2.7886,-2.7634,-2.8212,-2.7249,-2.6886,0.0,0.0,0.0,0.0,0.0,0.0,0.0,0.0,0.0,0.0,0.0,0.0,0.0,0.0,0.0,0.0,0.0,0.0,0.0,0.0,0.0,0.0,0.0,0.0,0.0,0.0,0.0,0.0,0.0,0.0,0.0,0.0,-1.6978,-1.6978,-1.6978,-1.6978,-1.6978,-1.6978,-1.6978,-1.6978,-1.6978,-1.6978,-1.6978,-1.6978,-1.6978,-1.6978,-1.6978,-1.6978,-1.6978,-1.6951,-1.6944,-1.6924,-1.6768,-1.6693,-1.6879,-1.8716,-1.9159,-1.9549,-2.3508,-2.4998,-2.524,-2.5429,-2.5903,-2.5809,-2.355,-2.2329,-2.2149,-2.195,-2.1328,-2.0903,-2.1751,-2.1336,-2.0912,-2.1328,-2.0496,-1.9655,-2.0488,-2.0903,-2.131,-2.1933,-2.2563,-2.2986,-2.3587,-2.3729,-2.3852,-2.3852,-2.3852,-2.3786,-2.3606,-2.5245,-2.6282,-2.6282,-2.8348,-2.9593,-2.9593,-3.0011,-3.0214,-3.0214,-2.9996,-2.9851,-2.9803,-2.9634,-2.9296,-2.8765,-2.8795,-2.8914,-2.9079,-2.8641,-2.8617,-2.9006,-2.814,-2.7724,0.0,0.0,0.0,0.0,0.0,0.0,0.0,0.0,0.0,0.0,0.0,0.0,0.0,0.0,0.0,0.0,0.0,0.0,0.0,0.0,0.0,0.0,0.0,0.0,0.0,0.0,0.0,0.0,0.0,0.0,0.0,-1.6978,-1.6978,-1.6978,-1.6978,-1.6978,-1.6978,-1.6978,-1.6978,-1.6978,-1.6978,-1.6978,-1.6978,-1.6978,-1.6978,-1.6978,-1.6978,-1.6978,-1.6971,-1.6836,-1.6781,-1.6768,-1.6612,-1.6476,-1.6368,-1.6773,-1.6821,-1.7298,-1.9735,-2.0663,-2.1003,-2.3034,-2.3683,-2.3527,-2.271,-2.2633,-2.2572,-2.2166,-2.0496,-1.9454,-2.1544,-1.9037,-1.6748,-1.8619,-1.737,-1.6951,-2.0912,-2.1751,-2.195,-2.2572,-2.3184,-2.3587,-2.3587,-2.3616,-2.3625,-2.3625,-2.3625,-2.3616,-2.3587,-2.3794,-2.4,-2.4,-2.6066,-2.7305,-2.7305,-2.9174,-3.0214,-3.0214,-3.0177,-3.0045,-2.9803,-2.9996,-2.9851,-2.9308,-2.9369,-2.9393,-2.9357,-2.9127,-2.9019,-2.9006,-2.8705,-2.838,0.0,0.0,0.0,0.0,0.0,0.0,0.0,0.0,0.0,0.0,0.0,0.0,0.0,0.0,0.0,0.0,0.0,0.0,0.0,0.0,0.0,0.0,0.0,0.0,0.0,0.0,0.0,0.0,0.0,0.0,-1.6978,-1.6978,-1.6944,-1.6856,-1.6937,-1.6937,-1.6849,-1.6849,-1.6849,-1.6849,-1.6849,-1.6849,-1.6849,-1.6761,-1.6815,-1.6978,-1.6978,-1.6978,-1.6978,-1.691,-1.6876,-1.6863,-1.6707,-1.6612,-1.6558,-1.6558,-1.6544,-1.6735,-1.9057,-1.9955,-2.0225,-2.1037,-2.1516,-2.1397,-1.976,-1.9199,-1.9044,-1.9261,-1.8215,-1.7587,-1.885,-1.7804,-1.6551,-1.7384,-1.6971,-1.6761,-1.885,-1.8843,-1.8843,-1.9469,-1.967,-1.9903,-1.9998,-2.0014,-2.0014,-2.0014,-2.0014,-1.9982,-1.9887,-2.0903,-2.1725,-2.1725,-2.3794,-2.545,-2.6691,-2.7725,-2.8971,-3.0214,-3.0214,-3.0165,-3.0033,-3.0153,-3.0105,-2.9864,-2.9864,-2.9779,-2.9622,-2.9357,-2.9236,-2.9224,-2.8813,-2.862,0.0,0.0,0.0,0.0,0.0,0.0,0.0,0.0,0.0,0.0,0.0,0.0,0.0,0.0,0.0,0.0,0.0,0.0,0.0,0.0,0.0,0.0,0.0,0.0,0.0,0.0,0.0,0.0,0.0,0.0,-1.6978,-1.6944,-1.689,-1.6809,-1.6883,-1.687,-1.6754,-1.6748,-1.6748,-1.6748,-1.6748,-1.6748,-1.6748,-1.6592,-1.6666,-1.6924,-1.6924,-1.6944,-1.6978,-1.6937,-1.6897,-1.6849,-1.67,-1.6612,-1.6578,-1.6578,-1.6558,-1.6735,-1.8436,-1.9158,-1.9267,-1.922,-1.9314,-1.9253,-1.7601,-1.6768,-1.6341,-1.6768,-1.6768,-1.6341,-1.6978,-1.6978,-1.6978,-1.6978,-1.6978,-1.6978,-1.6978,-1.6558,-1.6558,-1.6978,-1.6978,-1.7012,-1.7121,-1.7141,-1.7141,-1.7141,-1.7141,-1.71,-1.6992,-1.8424,-1.9454,-1.9454,-2.1518,-2.3381,-2.5039,-2.6271,-2.752,-2.9174,-2.9808,-3.0214,-3.0214,-3.0214,-3.0214,-3.0214,-3.0214,-3.0117,-2.99,-2.9562,-2.9405,-2.9393,-2.8862,-2.862,0.0,0.0,0.0,0.0,0.0,0.0,0.0,0.0,0.0,0.0,0.0,0.0,0.0,0.0,0.0,0.0,0.0,0.0,0.0,0.0,0.0,0.0,0.0,0.0,0.0,0.0,0.0,0.0,0.0,0.0,-1.6978,-1.6842,-1.6829,-1.6965,-1.6836,-1.6761,-1.6748,-1.6748,-1.6748,-1.6748,-1.6748,-1.6748,-1.6748,-1.6592,-1.6612,-1.6761,-1.6761,-1.6842,-1.6971,-1.6822,-1.6673,-1.653,-1.6388,-1.6246,-1.6117,-1.6117,-1.6286,-1.6503,-1.6577,-1.6817,-1.7154,-1.7003,-1.7058,-1.7188,-1.6978,-1.6978,-1.6978,-1.6978,-1.6978,-1.6978,-1.6978,-1.6978,-1.6978,-1.6978,-1.6978,-1.6978,-1.6978,-1.6978,-1.6978,-1.6978,-1.6978,-1.6985,-1.6992,-1.6992,-1.6992,-1.6992,-1.6992,-1.6992,-1.6985,-1.7188,-1.7188,-1.7188,-1.9253,-2.0488,-2.0696,-2.4412,-2.6896,-2.7101,-2.8971,-3.0214,-3.0214,-3.0214,-3.0214,-3.0214,-3.0214,-3.0214,-3.0189,-2.9658,-2.9405,-2.9393,-2.8862,-2.862,0.0,0.0,0.0,0.0,0.0,0.0,0.0,0.0,0.0,0.0,0.0,0.0,0.0,0.0,0.0,0.0,0.0,0.0,0.0,0.0,0.0,0.0,0.0,0.0,0.0,0.0,0.0,0.0,0.0,0.0,-1.6978,-1.6836,-1.6775,-1.6829,-1.6781,-1.67,-1.6605,-1.67,-1.6748,-1.6748,-1.6558,-1.6564,-1.6734,-1.6395,-1.6374,-1.6598,-1.651,-1.6551,-1.668,-1.6625,-1.6571,-1.6517,-1.6463,-1.6415,-1.6374,-1.6476,-1.6578,-1.6673,-1.672,-1.6849,-1.6971,-1.6917,-1.6937,-1.6978,-1.6978,-1.6978,-1.6978,-1.6978,-1.6978,-1.6978,-1.6978,-1.6978,-1.6978,-1.6978,-1.6978,-1.6978,-1.6978,-1.6978,-1.6978,-1.6978,-1.6978,-1.6978,-1.6978,-1.6978,-1.6978,-1.6978,-1.6978,-1.6978,-1.6978,-1.6978,-1.6978,-1.6978,-1.7896,-1.8993,-2.0248,-2.1917,-2.4003,-2.6916,-2.7609,-2.8767,-3.0214,-3.0214,-3.0214,-3.0214,-3.0214,-3.0214,-3.0214,-2.9839,-2.9658,-2.9646,-2.9296,-2.9031,0.0,0.0,0.0,0.0,0.0,0.0,0.0,0.0,0.0,0.0,0.0,0.0,0.0,0.0,0.0,0.0,0.0,0.0,0.0,0.0,0.0,0.0,0.0,0.0,0.0,0.0,0.0,0.0,0.0,0.0,-1.6978,-1.6836,-1.6748,-1.6748,-1.6653,-1.6598,-1.6598,-1.6646,-1.6653,-1.6598,-1.6449,-1.6456,-1.6592,-1.6239,-1.6218,-1.6442,-1.6293,-1.6341,-1.6524,-1.6524,-1.6524,-1.6517,-1.6469,-1.6476,-1.653,-1.6585,-1.6666,-1.6754,-1.6809,-1.6897,-1.6971,-1.6917,-1.6937,-1.6978,-1.6978,-1.6978,-1.6978,-1.6978,-1.6978,-1.6978,-1.6978,-1.6978,-1.6978,-1.6978,-1.6978,-1.6978,-1.6978,-1.6978,-1.6978,-1.6978,-1.6978,-1.6978,-1.6978,-1.6978,-1.6978,-1.6978,-1.6978,-1.6978,-1.6978,-1.7026,-1.7032,-1.6985,-1.7154,-1.7882,-1.9296,-2.0133,-2.2021,-2.5787,-2.6614,-2.7929,-3.0011,-3.0214,-3.0214,-3.0214,-3.0214,-3.0214,-3.0214,-2.9936,-2.9791,-2.9791,-2.9526,-2.926,0.0,0.0,0.0,0.0,0.0,0.0,0.0,0.0,0.0,0.0,0.0,0.0,0.0,0.0,0.0,0.0,0.0,0.0,0.0,0.0,0.0,0.0,0.0,0.0,0.0,0.0,0.0,0.0,0.0,-1.6978,-1.6978,-1.6836,-1.6748,-1.6741,-1.6463,-1.6449,-1.6734,-1.6592,-1.6449,-1.632,-1.6449,-1.6442,-1.6313,-1.6151,-1.6164,-1.63,-1.6151,-1.6246,-1.651,-1.651,-1.651,-1.6497,-1.6354,-1.6388,-1.6497,-1.6368,-1.6497,-1.6727,-1.6585,-1.6727,-1.6958,-1.6802,-1.6856,-1.6978,-1.6978,-1.6978,-1.6978,-1.6978,-1.6978,-1.6978,-1.6978,-1.6978,-1.6978,-1.6978,-1.6978,-1.6978,-1.6978,-1.6978,-1.6978,-1.6978,-1.6978,-1.6978,-1.6978,-1.6978,-1.6978,-1.6978,-1.6985,-1.6985,-1.6978,-1.7107,-1.7141,-1.7005,-1.7249,-1.7358,-1.7209,-1.9091,-2.1399,-2.349,-2.5573,-2.7725,-3.0011,-3.0214,-3.0214,-3.0214,-3.0214,-3.0214,-3.0214,-2.9936,-2.9803,-2.9803,-2.9538,-2.9272,-0.766,0.0,0.0,0.0,0.0,0.0,-0.9014,0.0,0.0,0.0,0.0,0.0,0.0,0.0,0.0,0.0,0.0,0.0,0.0,0.0,0.0,0.0,0.0,0.0,0.0,0.0,0.0,0.0,-1.6876,-1.6863,-1.6978,-1.6836,-1.67,-1.6585,-1.6503,-1.6449,-1.6429,-1.6388,-1.6402,-1.6463,-1.6286,-1.6293,-1.6456,-1.6198,-1.6164,-1.63,-1.6151,-1.613,-1.6205,-1.6205,-1.6205,-1.6198,-1.6157,-1.6239,-1.6374,-1.6442,-1.6585,-1.6761,-1.6829,-1.691,-1.6971,-1.6931,-1.6944,-1.6978,-1.6978,-1.6978,-1.6978,-1.6978,-1.6978,-1.6978,-1.6978,-1.6978,-1.6978,-1.6978,-1.6978,-1.6978,-1.6978,-1.6978,-1.6978,-1.6978,-1.6978,-1.6978,-1.6978,-1.6978,-1.6978,-1.6978,-1.7066,-1.71,-1.6992,-1.7107,-1.7175,-1.7141,-1.7304,-1.7405,-1.7358,-1.7995,-1.9212,-2.1188,-2.3286,-2.545,-2.7725,-2.9389,-3.0214,-3.0214,-3.0214,-3.0214,-3.0214,-3.0141,-3.0105,-3.0093,-2.9815,-2.955,0.0,0.0,0.0,0.0,0.0,0.0,-0.876,-0.9492,0.0,0.0,0.0,0.0,0.0,0.0,0.0,0.0,0.0,0.0,0.0,0.0,0.0,0.0,0.0,0.0,0.0,0.0,0.0,-1.6978,-1.6897,-1.6856,-1.6883,-1.6741,-1.6612,-1.6524,-1.6402,-1.6327,-1.6307,-1.6307,-1.632,-1.6334,-1.6232,-1.6232,-1.6334,-1.6157,-1.613,-1.6212,-1.6123,-1.6083,-1.6083,-1.6083,-1.6117,-1.6178,-1.6178,-1.6307,-1.6503,-1.6585,-1.6714,-1.6856,-1.6951,-1.6978,-1.6978,-1.6978,-1.6978,-1.6978,-1.6978,-1.6978,-1.6978,-1.6978,-1.6978,-1.6978,-1.6978,-1.6978,-1.6978,-1.6978,-1.6978,-1.6978,-1.6978,-1.6978,-1.6978,-1.6978,-1.6978,-1.6978,-1.6978,-1.6978,-1.6978,-1.6978,-1.7053,-1.7073,-1.6992,-1.7161,-1.7243,-1.7114,-1.7405,-1.7528,-1.7344,-1.7385,-1.8202,-2.0353,-2.163,-2.3587,-2.6691,-2.8144,-2.9174,-3.0214,-3.0214,-3.0214,-3.0214,-3.0214,-3.0214,-3.0214,-3.0045,-2.9827,0.0,0.0,0.0,0.0,0.0,0.0,-0.9523,-0.958,-0.9819,0.0,0.0,0.0,0.0,0.0,0.0,0.0,0.0,0.0,0.0,0.0,0.0,0.0,0.0,0.0,0.0,-1.6965,-1.6965,-1.6978,-1.6978,-1.691,-1.6761,-1.6605,-1.6524,-1.6524,-1.6232,-1.6157,-1.6307,-1.6293,-1.6225,-1.611,-1.6246,-1.6239,-1.6103,-1.6103,-1.6096,-1.6083,-1.6083,-1.609,-1.6103,-1.6103,-1.6185,-1.6307,-1.6307,-1.649,-1.6748,-1.6748,-1.6849,-1.6978,-1.6978,-1.6978,-1.6978,-1.6978,-1.6978,-1.6978,-1.6978,-1.6978,-1.6978,-1.6978,-1.6978,-1.6978,-1.6978,-1.6978,-1.6978,-1.6978,-1.6978,-1.6978,-1.6978,-1.6978,-1.6978,-1.6978,-1.6992,-1.7005,-1.7005,-1.7005,-1.7005,-1.7005,-1.7005,-1.6998,-1.6985,-1.7236,-1.7311,-1.7032,-1.7494,-1.765,-1.7229,-1.7317,-1.8181,-1.9906,-2.016,-2.214,-2.6282,-2.6691,-2.7929,-3.0214,-3.0214,-3.0214,-3.0214,-3.0214,-3.0214,-3.0214,-3.0214,-3.0069,0.0,0.0,0.0,0.0,0.0,0.0,-0.8133,-0.7931,-0.8089,0.0,0.0,0.0,0.0,0.0,0.0,0.0,0.0,0.0,0.0,0.0,0.0,0.0,0.0,0.0,0.0,-1.687,-1.6842,-1.6971,-1.6978,-1.691,-1.6761,-1.6605,-1.6524,-1.6524,-1.6232,-1.6157,-1.6307,-1.6185,-1.6171,-1.6266,-1.6293,-1.6293,-1.6266,-1.6266,-1.6198,-1.6083,-1.6083,-1.6151,-1.6266,-1.6266,-1.6286,-1.6307,-1.6307,-1.649,-1.6748,-1.6748,-1.6849,-1.6978,-1.6978,-1.6978,-1.6978,-1.6978,-1.6978,-1.6978,-1.6978,-1.6978,-1.6978,-1.6978,-1.6978,-1.6978,-1.6978,-1.6978,-1.6978,-1.6978,-1.6978,-1.6978,-1.6978,-1.6978,-1.6978,-1.6978,-1.7073,-1.7154,-1.7154,-1.7154,-1.7154,-1.7154,-1.7154,-1.7107,-1.6992,-1.7236,-1.7351,-1.7168,-1.7365,-1.7419,-1.7209,-1.7222,-1.7387,-1.7657,-1.9268,-2.1518,-2.4206,-2.5861,-2.7929,-3.0214,-3.0214,-3.0214,-3.0214,-3.0214,-3.0214,-3.0214,-3.0214,-3.0069,0.0,0.0,0.0,-0.8758,0.0,0.0,0.0,-0.8014,-0.8237,-0.9666,0.0,0.0,0.0,0.0,0.0,0.0,0.0,0.0,0.0,0.0,0.0,0.0,0.0,0.0,0.0,-1.6863,-1.6897,-1.6978,-1.6978,-1.6876,-1.6646,-1.6564,-1.649,-1.6415,-1.6273,-1.6266,-1.6415,-1.6341,-1.63,-1.6307,-1.6307,-1.6273,-1.6198,-1.6198,-1.6151,-1.6083,-1.6164,-1.6239,-1.6313,-1.6388,-1.6415,-1.6422,-1.6497,-1.6619,-1.6761,-1.6836,-1.691,-1.6978,-1.6978,-1.6978,-1.6978,-1.6978,-1.6978,-1.6978,-1.6978,-1.6978,-1.6978,-1.6978,-1.6978,-1.6978,-1.6978,-1.6978,-1.6978,-1.6978,-1.6978,-1.6978,-1.6978,-1.6978,-1.6978,-1.6978,-1.7154,-1.7283,-1.7202,-1.7256,-1.7304,-1.7304,-1.7304,-1.7283,-1.7209,-1.7399,-1.7446,-1.7216,-1.7399,-1.7412,-1.7114,-1.7154,-1.7134,-1.6992,-1.8013,-2.0079,-2.3381,-2.4618,-2.6896,-3.0214,-3.0214,-3.0214,-3.0214,-3.0214,-3.0214,-3.0214,-2.9879,-2.9534,0.0,0.0,0.0,0.0,0.0,-0.7119,0.0,0.0,0.0,-1.0028,0.0,0.0,0.0,0.0,0.0,0.0,0.0,0.0,0.0,0.0,0.0,0.0,0.0,0.0,0.0,-1.6639,-1.6809,-1.6931,-1.6883,-1.6741,-1.6497,-1.6483,-1.6429,-1.6313,-1.6307,-1.6381,-1.6517,-1.6497,-1.6435,-1.6347,-1.632,-1.6259,-1.6164,-1.6137,-1.6137,-1.6171,-1.6266,-1.6341,-1.6402,-1.6517,-1.6585,-1.6619,-1.6714,-1.6748,-1.6768,-1.6924,-1.6978,-1.6978,-1.6978,-1.6978,-1.6978,-1.6978,-1.6978,-1.6978,-1.6978,-1.6978,-1.6978,-1.6978,-1.6978,-1.6978,-1.6978,-1.6978,-1.6978,-1.6978,-1.6978,-1.6978,-1.6978,-1.6978,-1.6978,-1.6978,-1.7195,-1.7344,-1.7249,-1.7365,-1.7467,-1.7467,-1.7439,-1.7419,-1.7419,-1.7528,-1.75,-1.7222,-1.7412,-1.7405,-1.7012,-1.7087,-1.71,-1.6985,-1.6978,-1.9052,-2.3381,-2.4412,-2.6487,-3.0214,-3.0214,-3.0214,-3.0214,-3.0214,-3.0214,-3.0214,-2.9581,-2.9285,0.0,0.0,0.0,0.0,-0.7202,0.0,0.0,0.0,-0.8241,-0.854,0.0,0.0,0.0,0.0,0.0,0.0,0.0,0.0,0.0,0.0,0.0,0.0,0.0,0.0,0.0,0.0,-1.6198,-1.6734,-1.653,-1.6374,-1.6334,-1.6334,-1.6327,-1.6307,-1.6307,-1.6381,-1.6517,-1.6395,-1.6388,-1.6497,-1.6368,-1.6368,-1.6469,-1.6341,-1.6354,-1.6463,-1.6354,-1.6456,-1.67,-1.6714,-1.6802,-1.6917,-1.6795,-1.6748,-1.6768,-1.6924,-1.6978,-1.6978,-1.6978,-1.6978,-1.6978,-1.6978,-1.6978,-1.6978,-1.6978,-1.6978,-1.6978,-1.6978,-1.6978,-1.6978,-1.6978,-1.6978,-1.6978,-1.6978,-1.6978,-1.6978,-1.6978,-1.6978,-1.6978,-1.6978,-1.7107,-1.7256,-1.7372,-1.7521,-1.7623,-1.7623,-1.7507,-1.7419,-1.7419,-1.7439,-1.7385,-1.7209,-1.7222,-1.7175,-1.6998,-1.6992,-1.6998,-1.6985,-1.6978,-1.9052,-2.3381,-2.7316,-2.9593,-3.0214,-3.0214,-3.0214,-3.0214,-3.0214,-3.0214,-3.0214,-3.0189,-2.9963,0.0,0.0,0.0,0.0,0.0,0.0,0.0,0.0,-0.8023,0.0,0.0,0.0,0.0,0.0,0.0,0.0,0.0,0.0,0.0,0.0,0.0,0.0,0.0,0.0,0.0,0.0,0.0,0.0,0.0,-1.5879,-1.5791,-1.6117,-1.6347,-1.6429,-1.6354,-1.6422,-1.6653,-1.6592,-1.651,-1.6402,-1.6422,-1.6374,-1.6266,-1.6205,-1.6212,-1.6266,-1.63,-1.6381,-1.6503,-1.6585,-1.6653,-1.672,-1.6741,-1.6802,-1.689,-1.6958,-1.6978,-1.6978,-1.6978,-1.6978,-1.6978,-1.6978,-1.6978,-1.6978,-1.6978,-1.6978,-1.6978,-1.6978,-1.6978,-1.6978,-1.6978,-1.6978,-1.6978,-1.6978,-1.6978,-1.7005,-1.7087,-1.7039,-1.7032,-1.7202,-1.7283,-1.7372,-1.7528,-1.7609,-1.765,-1.765,-1.7595,-1.7555,-1.7555,-1.7473,-1.7365,-1.7209,-1.7195,-1.7134,-1.6992,-1.6978,-1.6978,-1.6978,-1.8222,-2.0288,-2.3381,-2.6691,-2.8971,-3.0214,-3.0214,-3.0214,-3.0214,-3.0214,-3.0214,-3.0214,-2.9653,-2.9581,-0.6536,0.0,0.0,0.0,0.0,0.0,0.0,0.0,0.0,0.0,0.0,0.0,0.0,0.0,0.0,0.0,0.0,0.0,0.0,0.0,0.0,0.0,0.0,0.0,0.0,0.0,0.0,0.0,-1.518,-1.5377,-1.535,-1.5879,-1.6273,-1.6456,-1.6402,-1.6469,-1.6686,-1.6727,-1.6619,-1.6368,-1.6435,-1.6374,-1.6198,-1.6117,-1.6123,-1.6205,-1.6279,-1.6334,-1.6381,-1.6524,-1.6585,-1.6598,-1.6754,-1.6883,-1.6978,-1.6978,-1.6978,-1.6978,-1.6978,-1.6978,-1.6978,-1.6978,-1.6978,-1.6978,-1.6978,-1.6978,-1.6978,-1.6978,-1.6978,-1.6978,-1.6978,-1.6978,-1.6978,-1.6978,-1.6978,-1.7019,-1.7161,-1.7114,-1.7114,-1.7372,-1.7419,-1.7453,-1.7568,-1.765,-1.7704,-1.7704,-1.767,-1.765,-1.765,-1.748,-1.7317,-1.7202,-1.7195,-1.7134,-1.6992,-1.7019,-1.7019,-1.6985,-1.9044,-2.1111,-2.2554,-2.4824,-2.7101,-2.9174,-2.9389,-2.9593,-3.0214,-3.0214,-3.0214,-3.0214,-2.9605,-2.932,0.0,0.0,0.0,0.0,0.0,0.0,0.0,0.0,-0.8735,0.0,0.0,0.0,0.0,0.0,0.0,0.0,0.0,0.0,0.0,0.0,0.0,0.0,0.0,0.0,0.0,0.0,0.0,-1.3996,-1.4504,-1.4889,-1.5174,-1.5622,-1.6008,-1.6307,-1.6442,-1.6517,-1.653,-1.6673,-1.6673,-1.651,-1.6381,-1.6381,-1.6497,-1.6212,-1.6239,-1.6503,-1.6368,-1.6388,-1.6524,-1.668,-1.6741,-1.6754,-1.691,-1.6978,-1.6978,-1.6978,-1.6978,-1.6978,-1.6978,-1.6978,-1.6978,-1.6978,-1.6978,-1.6978,-1.6978,-1.6978,-1.6978,-1.6978,-1.6978,-1.6978,-1.6978,-1.6978,-1.6978,-1.6978,-1.6978,-1.7019,-1.7161,-1.7188,-1.7229,-1.7392,-1.7419,-1.7419,-1.7426,-1.767,-1.786,-1.786,-1.7738,-1.765,-1.765,-1.7385,-1.7195,-1.7195,-1.7195,-1.7134,-1.6992,-1.7107,-1.7127,-1.6992,-1.9044,-2.0279,-2.0488,-2.2554,-2.4824,-2.6896,-2.7101,-2.8144,-3.0214,-3.0214,-3.0214,-3.0214,-3.0202,-3.0202,0.0,0.0,-0.6738,-0.6228,0.0,0.0,0.0,0.0,0.0,0.0,0.0,0.0,0.0,0.0,0.0,0.0,0.0,0.0,0.0,0.0,0.0,0.0,0.0,0.0,0.0,0.0,0.0,-1.3102,-1.3599,-1.3899,0.0,-1.4896,-1.5506,-1.571,-1.6151,-1.6381,-1.6381,-1.6625,-1.6625,-1.6381,-1.6429,-1.6476,-1.6517,-1.632,-1.6286,-1.6381,-1.6334,-1.6334,-1.6388,-1.6435,-1.6571,-1.6754,-1.6809,-1.689,-1.6978,-1.6978,-1.6978,-1.6978,-1.6978,-1.6978,-1.6978,-1.6978,-1.6978,-1.6978,-1.6978,-1.6978,-1.6978,-1.6978,-1.6978,-1.6978,-1.6978,-1.6978,-1.6978,-1.6978,-1.6978,-1.7019,-1.7161,-1.7195,-1.727,-1.7521,-1.7568,-1.7602,-1.7704,-1.7792,-1.7826,-1.7738,-1.7684,-1.765,-1.765,-1.7467,-1.7344,-1.7344,-1.7344,-1.7324,-1.7277,-1.7222,-1.7168,-1.7121,-1.765,-1.8888,-2.0458,-2.1088,-2.2544,-2.4845,-2.6026,-2.7162,-2.7797,-2.9054,-2.9606,-2.9841,-2.9841,-2.9962,-0.6592,-0.6832,0.0,-0.6643,-0.61,0.0,-0.5958,0.0,0.0,0.0,0.0,0.0,0.0,0.0,0.0,0.0,0.0,0.0,0.0,-1.0841,0.0,0.0,0.0,0.0,0.0,0.0,-1.2588,-1.214,-1.2903,-1.3268,0.0,0.0,-1.5228,-1.5486,-1.6076,-1.6388,-1.6388,-1.6625,-1.6625,-1.6388,-1.6429,-1.6469,-1.6517,-1.632,-1.6232,-1.6232,-1.6286,-1.6307,-1.632,-1.6422,-1.6578,-1.6754,-1.6809,-1.6897,-1.6978,-1.6978,-1.6978,-1.6978,-1.6978,-1.6978,-1.6978,-1.6978,-1.6978,-1.6978,-1.6978,-1.6978,-1.7032,-1.7304,-1.7188,-1.7039,-1.7304,-1.7182,-1.6978,-1.6978,-1.7019,-1.7093,-1.7243,-1.7317,-1.7426,-1.7684,-1.7717,-1.7758,-1.7846,-1.786,-1.7826,-1.7738,-1.7684,-1.765,-1.765,-1.7514,-1.7419,-1.7419,-1.7419,-1.7419,-1.7419,-1.7236,-1.7141,-1.7188,-1.706,-1.7671,-1.9288,-1.9296,-2.0433,-2.2743,-2.4008,-2.5348,-2.6793,-2.7904,-2.8752,-2.9753,-2.9753,-2.9888]}]]